Date StartTime U_cm/s V_cm/s W_cm/s Ustd_cm/s Vstd_cm/s Wstd_cm/s Uvar_(cm/s)^2 Vvar_(cm/s)^2 Wvar_(cm/s)^2 KE_(m/s)^2 TurbulentKE_(m/s)^2 HorizWindSpeed_cm/s FrictionSpeec_cm/s DragCoef SpeedOfSound_m/s SonicTemperature_C Pressure_mb 
03/23/2014  00:00:00      -98.231      -60.392       -6.642       12.604       14.359       11.870      158.855      206.174      140.908        0.692        0.025      115.310        7.526        0.004      335.565        6.285      863.909
03/23/2014  00:01:00     -115.697      -50.457      -10.599       10.958       10.858        7.770      120.079      117.897       60.378        0.817        0.015      126.221        4.787        0.001      335.547        6.253      863.912
03/23/2014  00:02:00     -112.666      -48.316      -12.588       11.106       15.062       12.650      123.337      226.852      160.027        0.785        0.026      122.589        5.031        0.002      335.569        6.289      863.901
03/23/2014  00:03:00     -126.394      -41.521      -16.320       11.798       12.471       10.431      139.192      155.519      108.796        0.918        0.020      133.039        5.455        0.002      335.566        6.286      863.911
03/23/2014  00:04:00     -131.412      -48.415      -19.055       14.474       10.493       10.318      209.487      110.106      106.454        1.020        0.021      140.047        5.164        0.001      335.498        6.171      863.908
03/23/2014  00:05:00     -147.607      -45.515      -19.235       13.218       13.762       12.113      174.721      189.406      146.733        1.237        0.026      154.465        6.889        0.002      335.412        6.028      863.902
03/23/2014  00:06:00     -125.262      -54.469      -17.117       15.452       17.980       13.536      238.767      323.289      183.230        0.985        0.037      136.592        8.174        0.004      335.385        5.981      863.898
03/23/2014  00:07:00      -93.571      -46.860      -19.663       24.026       17.866       14.350      577.259      319.204      205.921        0.622        0.055      104.649        8.163        0.006      335.345        5.915      863.898
03/23/2014  00:08:00      -72.376      -47.596      -16.208       24.652       20.800       13.179      607.698      432.644      173.681        0.449        0.061       86.624       11.128        0.017      335.377        5.970      863.897
03/23/2014  00:09:00      -12.952       -6.434       15.552       25.754       16.555       15.093      663.287      274.058      227.807        0.081        0.058       14.463       13.094        0.820      335.327        5.886      863.894
03/23/2014  00:10:00      -67.442      -11.345       -9.914       21.673       17.433       16.637      469.699      303.920      276.777        0.291        0.053       68.390        4.108        0.004      335.467        6.119      863.909
03/23/2014  00:11:00      -49.538      -32.445      -10.501       38.693       19.116       17.335     1497.129      365.431      300.510        0.289        0.108       59.217       16.266        0.075      335.447        6.088      863.908
03/23/2014  00:12:00      -84.353      -36.790      -17.921       22.142       17.888       15.495      490.263      319.991      240.085        0.492        0.053       92.026       10.123        0.012      335.476        6.134      863.916
03/23/2014  00:13:00      -68.529      -63.903       -9.163       31.707       21.740       18.392     1005.343      472.640      338.251        0.534        0.091       93.700       17.958        0.037      335.467        6.120      863.929
03/23/2014  00:14:00      -57.102      -40.124        0.670       37.430       22.905       24.650     1400.976      524.655      607.611        0.370        0.127       69.789       25.199        0.130      335.433        6.063      863.930
03/23/2014  00:15:00     -115.581      -53.799       -9.790       25.805       20.957       15.120      665.910      439.206      228.611        0.884        0.067      127.488        7.879        0.004      335.424        6.049      863.935
03/23/2014  00:16:00     -120.816      -45.673       -2.760       30.088       20.136       12.671      905.288      405.460      160.565        0.908        0.074      129.161       15.611        0.015      335.481        6.143      863.940
03/23/2014  00:17:00     -107.518      -42.102       -0.649       25.190       15.746       12.770      634.545      247.938      163.074        0.719        0.052      115.467       12.464        0.012      335.391        5.992      863.955
03/23/2014  00:18:00      -97.721      -46.650       -2.771       38.296       23.163       18.456     1466.591      536.547      340.612        0.704        0.117      108.285       20.643        0.036      335.338        5.904      863.981
03/23/2014  00:19:00      -92.615      -66.295       -3.388       34.321       25.393       22.779     1177.930      644.785      518.865        0.766        0.117      113.898       17.936        0.025      335.362        5.943      863.992
03/23/2014  00:20:00      -82.642      -53.823        0.592       43.964       29.588       22.122     1932.867      875.469      489.365        0.651        0.165       98.623       20.995        0.045      335.344        5.913      864.016
03/23/2014  00:21:00     -143.869      -64.995       -9.956       24.623       22.034       14.825      606.287      485.483      219.784        1.317        0.066      157.869        7.090        0.002      335.356        5.934      864.031
03/23/2014  00:22:00     -104.604      -40.995        2.670       48.177       33.122       25.293     2320.984     1097.037      639.734        0.834        0.203      112.351       25.997        0.054      335.312        5.862      864.038
03/23/2014  00:23:00      -94.710      -49.490        1.277       44.291       27.805       18.937     1961.711      773.132      358.594        0.726        0.155      106.861       15.714        0.022      335.341        5.910      864.044
03/23/2014  00:24:00      -80.971      -57.873        2.046       39.982       29.102       20.361     1598.554      846.920      414.579        0.638        0.143       99.527       18.974        0.036      335.330        5.892      864.048
03/23/2014  00:25:00      -78.830      -37.283       -2.024       48.241       23.032       20.161     2327.216      530.479      406.477        0.544        0.163       87.202       25.475        0.085      335.294        5.831      864.044
03/23/2014  00:26:00      -98.807      -48.373       -1.559       41.296       26.574       17.640     1705.346      706.184      311.162        0.741        0.136      110.013       18.075        0.027      335.284        5.813      864.049
03/23/2014  00:27:00     -106.760      -52.430       -3.216       36.749       21.266       18.898     1350.494      452.227      357.137        0.816        0.108      118.940       17.437        0.021      335.286        5.817      864.054
03/23/2014  00:28:00     -115.294      -54.307       -0.809       23.772       14.720       14.891      565.130      216.664      221.729        0.862        0.050      127.444       14.383        0.013      335.251        5.759      864.054
03/23/2014  00:29:00     -123.385      -53.636       -3.742       24.758       23.891       16.994      612.963      570.792      288.786        0.979        0.074      134.539       13.260        0.010      335.296        5.834      864.059
03/23/2014  00:30:00     -124.826      -45.123        0.485       23.537       17.118       12.044      553.979      293.017      145.062        0.930        0.050      132.732       12.233        0.008      335.269        5.790      864.052
03/23/2014  00:31:00      -93.447      -39.032       -6.035       26.574       16.346       15.849      706.171      267.183      251.186        0.576        0.061      101.271       12.900        0.016      335.274        5.797      864.038
03/23/2014  00:32:00      -66.893      -41.733       -1.654       21.127       14.831       13.356      446.348      219.966      178.386        0.353        0.042       78.844       10.524        0.018      335.273        5.796      864.039
03/23/2014  00:33:00      -74.669      -41.289      -11.880       15.412       14.644       12.592      237.527      214.456      158.566        0.402        0.031       85.324        9.510        0.012      335.250        5.758      864.023
03/23/2014  00:34:00      -88.309      -41.964      -15.249        9.120        7.606        7.874       83.181       57.848       62.001        0.500        0.010       97.773        4.825        0.002      335.261        5.774      864.009
03/23/2014  00:35:00      -82.065      -45.434      -13.403       11.804       14.498       13.717      139.339      210.200      188.146        0.476        0.027       93.802        3.324        0.001      335.308        5.855      864.002
03/23/2014  00:36:00      -96.515      -32.709      -13.030       11.997       10.316        7.007      143.938      106.416       49.099        0.543        0.015      101.907        3.115        0.001      335.293        5.827      864.004
03/23/2014  00:37:00      -97.697      -37.934      -14.746       10.330       13.324        7.800      106.711      177.519       60.838        0.577        0.017      104.803        2.703        0.001      335.286        5.815      863.997
03/23/2014  00:38:00      -97.856      -28.620      -11.253       10.203       12.210        7.454      104.093      149.075       55.556        0.542        0.015      101.956        3.894        0.001      335.272        5.795      863.986
03/23/2014  00:39:00      -99.717      -22.379      -16.862       16.608       10.896       10.141      275.839      118.721      102.842        0.561        0.025      102.197        6.714        0.004      335.338        5.904      863.995
03/23/2014  00:40:00      -94.430      -34.554      -11.246       11.222       14.632        9.297      125.924      214.095       86.439        0.533        0.021      100.554        6.444        0.004      335.357        5.934      863.992
03/23/2014  00:41:00      -87.371      -26.392      -15.136       10.519       15.209       10.322      110.648      231.328      106.548        0.450        0.022       91.270        5.478        0.004      335.314        5.863      863.992
03/23/2014  00:42:00      -93.491      -30.361      -14.151       10.296       11.940        8.335      106.016      142.569       69.470        0.509        0.016       98.297        4.957        0.003      335.320        5.875      863.996
03/23/2014  00:43:00     -117.507      -35.096      -13.015       21.659       11.819       10.776      469.125      139.682      116.123        0.797        0.036      122.636       12.091        0.010      335.245        5.749      863.998
03/23/2014  00:44:00     -138.694      -40.768      -14.015       11.424       15.845       14.009      130.514      251.065      196.249        1.084        0.029      144.562        6.823        0.002      335.211        5.694      863.989
03/23/2014  00:45:00     -150.135      -46.118      -10.162       26.920       19.702       17.242      724.685      388.187      297.276        1.309        0.071      157.058       14.587        0.009      335.109        5.525      863.982
03/23/2014  00:46:00     -129.669      -46.665      -11.247       21.840       19.158       15.854      476.972      367.040      251.343        1.011        0.055      137.811       12.193        0.008      335.023        5.383      863.989
03/23/2014  00:47:00     -100.528      -36.449       -3.718       32.105       23.857       15.701     1030.737      569.146      246.533        0.665        0.092      106.932       17.012        0.025      335.032        5.398      863.991
03/23/2014  00:48:00     -123.742      -44.055      -14.861       15.110       14.048       10.436      228.303      197.333      108.913        0.900        0.027      131.350        6.323        0.002      335.124        5.551      863.980
03/23/2014  00:49:00     -116.749      -35.451      -16.451        8.993        9.431        7.410       80.874       88.949       54.902        0.769        0.011      122.013        5.094        0.002      335.130        5.558      863.973
03/23/2014  00:50:00     -112.841      -24.636      -12.469       17.715       17.232       11.585      313.839      296.926      134.224        0.712        0.037      115.499       10.659        0.009      335.121        5.544      863.961
03/23/2014  00:51:00     -110.500      -33.440      -16.691        7.364       10.897        9.095       54.232      118.753       82.713        0.693        0.013      115.449        4.096        0.001      335.060        5.443      863.949
03/23/2014  00:52:00     -113.300      -51.692      -20.543        8.857       12.910        8.087       78.442      166.677       65.399        0.812        0.016      124.535        7.063        0.003      335.021        5.378      863.937
03/23/2014  00:53:00     -106.968      -48.490      -19.631       17.329       18.106       13.786      300.307      327.827      190.062        0.750        0.041      117.446        6.268        0.003      335.013        5.366      863.930
03/23/2014  00:54:00     -115.668      -38.637      -12.488       13.363       13.286       11.765      178.583      176.517      138.425        0.776        0.025      121.950        8.784        0.005      334.968        5.290      863.918
03/23/2014  00:55:00     -118.390      -44.689      -14.690       14.940       14.325       12.320      223.194      205.205      151.790        0.840        0.029      126.543        5.744        0.002      334.937        5.239      863.930
03/23/2014  00:56:00     -128.633      -46.744      -11.325       19.354       17.179       14.610      374.596      295.113      213.445        0.987        0.044      136.863        8.143        0.004      334.884        5.151      863.926
03/23/2014  00:57:00     -148.309      -52.347       -8.827       15.948       11.126       11.636      254.338      123.797      135.399        1.266        0.026      157.276        8.990        0.003      334.849        5.092      863.924
03/23/2014  00:58:00     -118.460      -66.729       -2.467       30.316       22.754       15.975      919.085      517.732      255.195        1.009        0.085      135.962       13.012        0.009      334.886        5.153      863.933
03/23/2014  00:59:00     -120.794      -55.711       -5.719       35.924       30.444       19.788     1290.546      926.853      391.573        1.017        0.130      133.022       19.624        0.022      334.905        5.186      863.945
03/23/2014  01:00:00      -98.887      -53.366        0.827       36.534       28.255       18.463     1334.752      798.324      340.871        0.755        0.124      112.367       14.795        0.017      334.936        5.237      863.961
03/23/2014  01:01:00      -96.431      -65.532        1.152       33.350       28.981       20.532     1112.246      839.884      421.583        0.798        0.119      116.591       13.764        0.014      334.996        5.337      863.969
03/23/2014  01:02:00      -84.250      -75.306        0.253       47.270       40.919       24.749     2234.462     1674.390      612.495        0.864        0.226      113.000       27.100        0.058      335.010        5.360      863.972
03/23/2014  01:03:00      -81.271      -66.594        0.417       43.274       42.230       22.049     1872.603     1783.341      486.142        0.759        0.207      105.069       15.188        0.021      335.055        5.435      863.974
03/23/2014  01:04:00     -119.288      -92.783       -1.161       41.968       45.010       26.513     1761.320     2025.906      702.962        1.366        0.225      151.124       21.401        0.020      334.984        5.318      863.977
03/23/2014  01:05:00     -134.591     -123.094        0.415       56.619       46.751       37.423     3205.760     2185.639     1400.495        2.003        0.340      182.392       36.185        0.039      334.893        5.164      863.969
03/23/2014  01:06:00     -128.461     -117.038        4.073       53.906       55.604       37.203     2905.875     3091.844     1384.047        1.880        0.369      173.782       31.784        0.033      334.771        4.961      863.966
03/23/2014  01:07:00     -134.358      -92.409        0.352       50.731       47.366       30.959     2573.682     2243.501      958.474        1.618        0.289      163.069       28.237        0.030      334.853        5.098      863.969
03/23/2014  01:08:00     -110.098     -116.755       -3.657       46.841       28.079       22.741     2194.107      788.425      517.146        1.463        0.175      160.478       25.113        0.024      334.853        5.100      863.981
03/23/2014  01:09:00     -117.499      -98.053      -11.286       28.049       29.896       17.689      786.755      893.768      312.886        1.277        0.100      153.037       15.212        0.010      334.855        5.103      863.982
03/23/2014  01:10:00      -79.896      -70.716       -1.098       31.386       33.878       18.617      985.111     1147.720      346.601        0.693        0.124      106.696       19.913        0.035      334.942        5.248      863.986
03/23/2014  01:11:00      -76.462      -55.614       -0.307       39.570       24.273       20.940     1565.795      589.190      438.467        0.577        0.130       94.548       22.545        0.057      334.937        5.239      863.986
03/23/2014  01:12:00     -111.224      -53.069        1.740       58.178       28.943       22.639     3384.629      837.715      512.524        0.996        0.237      123.236       29.902        0.059      334.855        5.103      863.990
03/23/2014  01:13:00      -95.653      -48.843       -1.575       57.360       33.425       25.481     3290.225     1117.242      649.300        0.830        0.253      107.402       22.729        0.045      334.861        5.111      863.984
03/23/2014  01:14:00      -74.477      -52.041       -9.493       37.904       27.735       18.447     1436.710      769.224      340.300        0.545        0.127       90.857       14.451        0.025      334.907        5.189      863.974
03/23/2014  01:15:00     -132.449      -50.320      -10.075       17.868       20.726       12.238      319.258      429.550      149.774        1.054        0.045      141.686        7.411        0.003      334.807        5.022      863.983
03/23/2014  01:16:00      -90.571      -43.825        1.207       42.965       23.530       18.063     1845.953      553.668      326.256        0.643        0.136      100.617       20.941        0.043      334.857        5.106      863.990
03/23/2014  01:17:00     -113.793      -30.492       -4.504       27.100       21.250       19.947      734.427      451.549      397.864        0.774        0.079      117.807       13.533        0.013      334.785        4.986      863.982
03/23/2014  01:18:00     -103.599      -42.132       -4.523       20.622       22.047       14.067      425.278      486.063      197.882        0.682        0.055      111.838        8.679        0.006      334.882        5.148      863.987
03/23/2014  01:19:00     -100.615      -47.617       -4.834       35.516       21.703       12.667     1261.365      471.005      160.459        0.715        0.095      111.313        7.444        0.004      334.857        5.105      864.000
03/23/2014  01:20:00     -121.995      -54.356       -8.678       20.248       20.235       13.453      410.000      409.456      180.993        0.946        0.050      133.557        6.830        0.003      334.791        4.996      864.002
03/23/2014  01:21:00     -115.285      -45.225       -3.642       28.228       23.945       10.816      796.827      573.365      116.988        0.842        0.074      123.838        6.147        0.002      334.741        4.913      864.006
03/23/2014  01:22:00      -85.885      -54.038       -3.630       34.384       27.106       19.971     1182.252      734.723      398.855        0.631        0.116      101.471       20.510        0.041      334.688        4.824      864.030
03/23/2014  01:23:00      -68.206      -45.248       -0.804       21.137       21.158       15.483      446.754      447.657      239.719        0.392        0.057       81.850       11.422        0.019      334.733        4.900      864.045
03/23/2014  01:24:00      -65.869      -15.846       -6.502       21.979       19.559       13.824      483.092      382.545      191.111        0.284        0.053       67.748       11.051        0.027      334.713        4.867      864.058
03/23/2014  01:25:00      -93.100      -24.654       -6.364       21.530       24.784       14.075      463.524      614.250      198.117        0.530        0.064       96.309        6.813        0.005      334.602        4.680      864.061
03/23/2014  01:26:00      -75.079      -49.752       -5.167       23.229       16.373       15.085      539.578      268.071      227.554        0.459        0.052       90.067       12.889        0.020      334.650        4.762      864.074
03/23/2014  01:27:00      -96.280      -54.400       -6.051       38.551       20.050       21.009     1486.176      401.987      441.381        0.730        0.116      110.586       21.145        0.037      334.629        4.729      864.078
03/23/2014  01:28:00     -108.868      -46.051       -9.379       20.510       25.322       14.952      420.680      641.207      223.565        0.767        0.064      118.207        8.159        0.005      334.623        4.717      864.078
03/23/2014  01:29:00      -93.361      -67.061       -5.236       27.156       24.790       13.262      737.438      614.539      175.871        0.738        0.076      114.950        9.021        0.006      334.690        4.829      864.081
03/23/2014  01:30:00      -84.735      -67.279       -9.350       37.868       25.664       17.126     1433.953      658.651      293.308        0.709        0.119      108.196       13.196        0.015      334.712        4.865      864.086
03/23/2014  01:31:00      -70.679      -68.747       -2.923       32.462       31.360       23.806     1053.786      983.474      566.725        0.617        0.130       98.598       21.364        0.047      334.705        4.854      864.097
03/23/2014  01:32:00      -71.231      -49.056       -0.122       39.101       26.077       23.888     1528.926      680.019      570.651        0.513        0.139       86.489       27.449        0.101      334.683        4.817      864.106
03/23/2014  01:33:00      -83.448      -53.465       -8.408       38.197       20.257       14.084     1459.032      410.356      198.372        0.598        0.103       99.106       13.255        0.018      334.689        4.828      864.102
03/23/2014  01:34:00      -96.716      -58.994       -2.617       26.440       18.033       13.607      699.063      325.188      185.152        0.703        0.060      113.289        8.634        0.006      334.674        4.802      864.126
03/23/2014  01:35:00      -44.048      -32.008        5.412       39.062       22.235       18.553     1525.823      494.408      344.213        0.268        0.118       54.449       20.327        0.139      334.613        4.701      864.140
03/23/2014  01:36:00      -85.211      -48.257       -7.673       23.738       16.099       13.255      563.500      259.175      175.693        0.532        0.050       97.927       13.648        0.019      334.619        4.709      864.142
03/23/2014  01:37:00      -90.716      -35.698      -10.094       12.056       16.388       13.450      145.340      268.551      180.902        0.510        0.030       97.487        7.749        0.006      334.601        4.681      864.149
03/23/2014  01:38:00      -94.770      -35.916       -3.941       24.048       18.621       12.749      578.290      346.726      162.535        0.569        0.054      101.347       10.356        0.010      334.673        4.800      864.150
03/23/2014  01:39:00      -90.090      -27.649       -0.024       22.100       26.516       15.130      488.400      703.096      228.910        0.515        0.071       94.238       12.442        0.017      334.680        4.812      864.161
03/23/2014  01:40:00     -116.175      -51.879      -11.322       19.782       19.607       12.801      391.344      384.420      163.855        0.863        0.047      127.232        9.151        0.005      334.731        4.896      864.167
03/23/2014  01:41:00     -123.142      -37.811      -10.004       22.165       17.111       13.950      491.309      292.800      194.604        0.884        0.049      128.816        9.564        0.006      334.611        4.698      864.170
03/23/2014  01:42:00     -106.521      -24.897       -6.106       22.829       24.013       14.027      521.169      576.602      196.770        0.665        0.065      109.392        8.797        0.006      334.605        4.688      864.168
03/23/2014  01:43:00     -100.795      -29.248        1.025       32.279       24.958       20.772     1041.915      622.879      431.459        0.656        0.105      104.953       22.134        0.044      334.535        4.572      864.172
03/23/2014  01:44:00     -110.214      -23.581       -7.137       21.753       22.083       14.435      473.213      487.681      208.377        0.696        0.058      112.708       11.322        0.010      334.592        4.666      864.178
03/23/2014  01:45:00     -117.979      -45.349      -11.375       14.515       13.407       11.106      210.676      179.749      123.353        0.831        0.026      126.395        5.314        0.002      334.527        4.559      864.172
03/23/2014  01:46:00     -108.304      -62.292       -5.503       25.801       24.025       14.618      665.667      577.221      213.692        0.855        0.073      124.940        9.607        0.006      334.502        4.518      864.182
03/23/2014  01:47:00      -96.819      -51.088       -0.178       33.120       22.028       20.319     1096.902      485.218      412.874        0.699        0.100      109.471       20.511        0.035      334.462        4.451      864.193
03/23/2014  01:48:00     -100.668      -58.027       -9.386       12.670       15.673        9.557      160.531      245.649       91.335        0.704        0.025      116.195        6.058        0.003      334.502        4.516      864.207
03/23/2014  01:49:00      -87.500      -51.298      -11.368       24.000       12.645       12.392      575.990      159.887      153.569        0.565        0.044      101.429        9.773        0.009      334.478        4.479      864.205
03/23/2014  01:50:00      -86.411      -41.416      -11.532       14.569       13.528        9.863      212.262      183.007       97.270        0.490        0.025       95.824        7.377        0.006      334.503        4.519      864.209
03/23/2014  01:51:00      -99.767      -34.644      -14.315       10.372       11.161        9.423      107.580      124.562       88.801        0.584        0.016      105.611        5.343        0.003      334.508        4.529      864.206
03/23/2014  01:52:00      -89.162      -36.267       -6.199       20.103       16.320       12.374      404.116      266.333      153.108        0.506        0.041       96.256       11.096        0.013      334.492        4.500      864.206
03/23/2014  01:53:00     -104.481      -40.007      -16.240       10.892       13.411        8.467      118.629      179.842       71.694        0.658        0.019      111.879        4.147        0.001      334.449        4.429      864.186
03/23/2014  01:54:00      -98.139      -36.529      -13.824       14.875       19.849       11.699      221.265      393.986      136.860        0.595        0.038      104.717        9.020        0.007      334.417        4.376      864.172
03/23/2014  01:55:00     -101.481      -32.141      -12.507       13.051       19.484       10.081      170.325      379.638      101.623        0.607        0.033      106.450        2.525        0.001      334.393        4.337      864.163
03/23/2014  01:56:00      -92.882      -29.512      -16.622       18.018       15.531       11.276      324.645      241.207      127.154        0.523        0.035       97.458        8.199        0.007      334.345        4.258      864.164
03/23/2014  01:57:00      -82.996      -35.717      -11.952       11.086       12.119        8.900      122.893      146.859       79.205        0.433        0.017       90.355        5.928        0.004      334.438        4.410      864.162
03/23/2014  01:58:00      -89.020      -42.120       -4.434       17.082       17.391       11.837      291.795      302.454      140.108        0.523        0.037       98.482       10.007        0.010      334.464        4.454      864.158
03/23/2014  01:59:00      -82.821      -41.522       -7.981       19.616       17.698       10.028      384.806      313.231      100.551        0.472        0.040       92.647        6.709        0.005      334.427        4.393      864.173
03/23/2014  02:00:00      -62.319      -33.027       -4.449       14.662       13.566        9.872      214.980      184.025       97.448        0.275        0.025       70.529        2.752        0.002      334.550        4.597      864.175
03/23/2014  02:01:00      -68.972      -29.564       -6.950       12.714       11.070        8.404      161.634      122.538       70.630        0.302        0.018       75.041        4.801        0.004      334.626        4.725      864.174
03/23/2014  02:02:00      -59.022      -31.506       -4.720       21.562       10.658       14.439      464.937      113.593      208.478        0.264        0.039       66.905       14.764        0.049      334.683        4.818      864.164
03/23/2014  02:03:00      -34.583      -19.338        4.996       33.762       13.995       11.820     1139.851      195.849      139.717        0.153        0.074       39.623       14.734        0.138      334.639        4.743      864.164
03/23/2014  02:04:00      -69.819      -34.509        6.416       23.639       17.653       15.318      558.820      311.642      234.633        0.361        0.055       77.881       13.914        0.032      334.496        4.505      864.167
03/23/2014  02:05:00      -75.637      -41.819        0.243       30.110       18.453       17.022      906.609      340.512      289.749        0.450        0.077       86.428       17.011        0.039      334.429        4.398      864.170
03/23/2014  02:06:00      -54.851      -42.273       -4.120       33.799       16.077       14.944     1142.368      258.460      223.318        0.322        0.081       69.250       14.915        0.046      334.518        4.543      864.160
03/23/2014  02:07:00      -66.306      -25.997       -3.014       16.435       17.444       14.713      270.101      304.310      216.465        0.294        0.040       71.220        9.688        0.019      334.458        4.444      864.156
03/23/2014  02:08:00      -76.524      -41.985       -1.578       23.929       19.057       16.634      572.605      363.185      276.705        0.442        0.061       87.285       14.766        0.029      334.448        4.428      864.161
03/23/2014  02:09:00      -87.836      -31.143       -6.322       11.691       10.947        9.521      136.670      119.831       90.640        0.454        0.017       93.193        6.869        0.005      334.451        4.432      864.174
03/23/2014  02:10:00      -96.537      -44.048       -4.558       22.573       14.144       12.459      509.550      200.065      155.223        0.607        0.043      106.111       11.916        0.013      334.399        4.347      864.177
03/23/2014  02:11:00     -110.290      -33.612        0.334       33.930       21.978       18.627     1151.256      483.046      346.977        0.764        0.099      115.298       17.671        0.023      334.338        4.246      864.178
03/23/2014  02:12:00     -111.285      -39.708        2.485       32.821       28.835       19.288     1077.243      831.446      372.011        0.812        0.114      118.157       18.944        0.026      334.329        4.232      864.177
03/23/2014  02:13:00      -84.465      -46.354        2.514       31.637       25.141       21.398     1000.902      632.086      457.889        0.569        0.105       96.348       16.080        0.028      334.352        4.269      864.169
03/23/2014  02:14:00      -62.048      -27.853        8.116       32.073       30.654       16.705     1028.674      939.662      279.068        0.347        0.112       68.013       14.222        0.044      334.340        4.249      864.164
03/23/2014  02:15:00      -94.115      -38.452        1.878       29.425       23.639       12.417      865.808      558.782      154.172        0.596        0.079      101.667       13.415        0.017      334.340        4.248      864.162
03/23/2014  02:16:00     -100.983      -37.599       -4.897       25.298       21.379       14.978      640.003      457.048      224.349        0.648        0.066      107.756       11.652        0.012      334.347        4.261      864.152
03/23/2014  02:17:00      -92.444      -54.688        4.345       40.545       26.117       21.324     1643.938      682.084      454.716        0.717        0.139      107.409       18.552        0.030      334.343        4.254      864.154
03/23/2014  02:18:00      -70.799      -32.715       12.482       46.186       28.965       23.338     2133.124      838.943      544.644        0.488        0.176       77.992       23.212        0.089      334.304        4.190      864.149
03/23/2014  02:19:00      -40.273      -26.718        6.642       35.843       23.212       18.672     1284.727      538.778      348.662        0.228        0.109       48.330       18.068        0.140      334.301        4.185      864.150
03/23/2014  02:20:00      -72.261      -55.038        3.200       50.107       30.502       22.830     2510.707      930.354      521.198        0.611        0.198       90.834       24.784        0.074      334.378        4.311      864.144
03/23/2014  02:21:00      -44.754      -54.117        4.371       39.736       26.476       19.562     1578.946      700.967      382.684        0.381        0.133       70.225       18.223        0.067      334.426        4.391      864.150
03/23/2014  02:22:00      -46.525      -35.889        6.884       37.762       30.835       15.861     1425.961      950.777      251.555        0.306        0.131       58.758       16.503        0.079      334.327        4.229      864.149
03/23/2014  02:23:00      -36.678      -42.861       12.059       33.493       17.836       18.237     1121.757      318.130      332.602        0.255        0.089       56.412       17.359        0.095      334.407        4.359      864.141
03/23/2014  02:24:00      -60.766      -35.342        9.599       46.238       28.046       22.771     2137.938      786.559      518.527        0.424        0.172       70.297       22.115        0.099      334.303        4.187      864.137
03/23/2014  02:25:00      -80.612      -47.242        8.589       54.444       30.289       21.729     2964.139      917.428      472.143        0.658        0.218       93.435       28.188        0.091      334.268        4.129      864.128
03/23/2014  02:26:00     -114.276      -54.779       -5.821       38.582       29.302       21.631     1488.575      858.635      467.920        0.945        0.141      126.727       18.560        0.021      334.247        4.094      864.112
03/23/2014  02:27:00     -130.152      -57.101       -0.354       31.119       20.066       17.240      968.420      402.638      297.231        1.093        0.083      142.126       17.080        0.014      334.138        3.912      864.108
03/23/2014  02:28:00     -124.552      -45.519       -6.847       31.018       24.322       15.418      962.108      591.545      237.722        0.971        0.090      132.609       10.319        0.006      334.136        3.910      864.110
03/23/2014  02:29:00     -115.416      -42.015       -3.203       28.489       32.519       17.540      811.633     1057.504      307.655        0.864        0.109      122.826       14.378        0.014      334.181        3.986      864.109
03/23/2014  02:30:00      -89.620      -50.593        2.656       41.599       34.298       18.904     1730.469     1176.378      357.355        0.693        0.163      102.915       18.148        0.031      334.227        4.060      864.099
03/23/2014  02:31:00     -126.839      -55.815       -9.499       23.597       24.006       17.277      556.837      576.265      298.483        1.036        0.072      138.576       12.857        0.009      334.268        4.130      864.096
03/23/2014  02:32:00     -119.501      -47.779        2.119       33.361       22.573       16.156     1112.967      509.526      261.016        0.923        0.094      128.699       15.605        0.015      334.265        4.124      864.099
03/23/2014  02:33:00     -100.703      -20.705        0.304       28.995       25.646       17.467      840.737      657.693      305.097        0.619        0.090      102.810       13.055        0.016      334.254        4.106      864.102
03/23/2014  02:34:00     -105.024      -22.277        0.585       35.198       25.317       20.495     1238.883      640.942      420.046        0.691        0.115      107.361       20.663        0.037      334.180        3.983      864.102
03/23/2014  02:35:00      -99.251      -34.479        1.219       34.068       29.721       20.106     1160.616      883.321      404.232        0.674        0.122      105.069       19.963        0.036      334.092        3.836      864.093
03/23/2014  02:36:00     -123.061      -56.826       -2.345       56.818       34.685       17.955     3228.240     1203.074      322.389        1.157        0.238      135.547       14.039        0.011      334.086        3.826      864.091
03/23/2014  02:37:00     -135.168      -71.961       -4.766       31.249       38.343       21.726      976.483     1470.215      472.030        1.319        0.146      153.130       18.120        0.014      334.054        3.775      864.093
03/23/2014  02:38:00     -150.482      -40.531      -12.205       19.065       26.308       16.953      363.477      692.092      287.411        1.289        0.067      155.844        6.786        0.002      333.899        3.517      864.092
03/23/2014  02:39:00     -126.508      -26.613       -8.420       31.289       26.159       20.665      978.990      684.286      427.036        0.944        0.105      129.277       16.122        0.016      333.915        3.542      864.090
03/23/2014  02:40:00     -126.682      -19.454       -7.522       38.908       21.901       18.494     1513.818      479.668      342.017        0.941        0.117      128.167       20.521        0.026      333.937        3.580      864.082
03/23/2014  02:41:00     -110.310      -26.373       -3.848       31.153       26.335       18.159      970.525      693.551      329.748        0.744        0.100      113.419       15.999        0.020      333.976        3.644      864.079
03/23/2014  02:42:00     -131.517      -13.881      -10.173       39.264       30.316       25.508     1541.624      919.038      650.667        1.035        0.156      132.248       22.900        0.030      333.909        3.532      864.082
03/23/2014  02:43:00      -85.322      -14.270       -1.501       49.804       32.836       26.585     2480.418     1078.233      706.741        0.587        0.213       86.508       26.573        0.094      333.858        3.448      864.075
03/23/2014  02:44:00     -101.989       17.402      -15.110       43.722       36.696       24.664     1911.656     1346.563      608.310        0.740        0.193      103.463       12.868        0.015      333.897        3.514      864.062
03/23/2014  02:45:00     -139.961       31.381       -6.435       48.694       45.663       28.337     2371.105     2085.100      802.978        1.294        0.263      143.436       22.774        0.025      333.915        3.544      864.054
03/23/2014  02:46:00     -122.332        3.399       -9.527       48.162       31.020       26.756     2319.555      962.266      715.878        0.953        0.200      122.380       27.844        0.052      333.933        3.574      864.048
03/23/2014  02:47:00     -103.208        7.899       -2.259       60.438       36.704       30.586     3652.773     1347.176      935.489        0.833        0.297      103.509       34.907        0.114      333.932        3.571      864.038
03/23/2014  02:48:00      -88.287      -24.874      -13.016       58.411       41.167       20.155     3411.819     1694.741      406.205        0.705        0.276       91.724       21.782        0.056      334.018        3.714      864.030
03/23/2014  02:49:00     -100.106      -57.857        2.821       35.223       36.009       22.530     1240.677     1296.677      507.588        0.821        0.152      115.623       13.565        0.014      333.895        3.510      864.020
03/23/2014  02:50:00      -91.790      -36.880      -11.348       34.050       22.845       20.371     1159.413      521.899      414.987        0.600        0.105       98.922       10.414        0.011      333.940        3.585      864.009
03/23/2014  02:51:00      -12.893      -35.908        2.620       30.858       19.516       18.565      952.215      380.879      344.648        0.157        0.084       38.152        8.734        0.052      333.942        3.587      864.005
03/23/2014  02:52:00       -6.760      -22.526        8.227       32.989       19.645       17.815     1088.242      385.923      317.391        0.121        0.090       23.518       14.744        0.393      333.988        3.664      863.996
03/23/2014  02:53:00      -50.578      -17.832       -3.228       42.567       39.009       15.054     1811.945     1521.696      226.637        0.322        0.178       53.630       13.730        0.066      333.874        3.476      863.987
03/23/2014  02:54:00      -71.376       -9.061       -7.620       27.081       25.307       14.557      733.371      640.429      211.916        0.341        0.079       71.949       10.065        0.020      333.797        3.347      863.985
03/23/2014  02:55:00      -48.093      -16.372      -11.544       18.535       14.995       17.764      343.563      224.862      315.569        0.180        0.044       50.803       10.332        0.041      333.978        3.649      863.985
03/23/2014  02:56:00      -55.449      -12.065      -13.197       16.706       11.384        7.927      279.079      129.584       62.832        0.193        0.024       56.746        2.816        0.002      334.009        3.699      863.977
03/23/2014  02:57:00      -29.481      -19.645       -9.973       13.644       10.354        9.470      186.158      107.213       89.679        0.087        0.019       35.427        2.990        0.007      334.099        3.849      863.973
03/23/2014  02:58:00        0.471      -48.038       -4.330       39.555       17.643       15.967     1564.627      311.268      254.943        0.223        0.107       48.040        9.732        0.041      334.056        3.776      863.981
03/23/2014  02:59:00      -45.881      -50.209        7.124       46.508       37.830       30.473     2163.031     1431.140      928.631        0.460        0.226       68.015       24.696        0.132      333.919        3.550      863.996
03/23/2014  03:00:00      -90.611      -62.441        0.863       47.367       30.236       24.077     2243.640      914.245      579.722        0.792        0.187      110.042       24.354        0.049      333.911        3.537      863.992
03/23/2014  03:01:00     -116.385      -66.170       -0.151       41.114       29.308       23.871     1690.355      858.935      569.809        1.052        0.156      133.881       24.031        0.032      333.876        3.478      863.986
03/23/2014  03:02:00      -92.731      -67.234        2.374       50.880       36.569       30.217     2588.819     1337.327      913.050        0.898        0.242      114.540       26.606        0.054      333.953        3.605      863.983
03/23/2014  03:03:00     -109.682      -76.019        5.940       43.223       34.951       24.533     1868.249     1221.544      601.858        1.077        0.185      133.451       21.414        0.026      333.973        3.639      863.981
03/23/2014  03:04:00      -94.052      -53.514        6.998       52.352       32.769       26.152     2740.716     1073.812      683.936        0.813        0.225      108.211       26.193        0.059      333.999        3.682      863.974
03/23/2014  03:05:00      -87.639      -70.037       -2.883       32.256       22.988       21.876     1040.480      528.445      478.571        0.732        0.102      112.187       19.585        0.030      334.053        3.771      863.954
03/23/2014  03:06:00      -92.969      -49.018        5.999       38.314       27.366       18.714     1467.955      748.880      350.197        0.682        0.128      105.100       15.983        0.023      334.057        3.778      863.940
03/23/2014  03:07:00      -77.985      -46.368        3.831       42.624       29.686       21.754     1816.847      881.268      473.253        0.571        0.159       90.728       19.042        0.044      333.994        3.673      863.928
03/23/2014  03:08:00      -59.053      -46.514       -1.174       37.765       25.735       26.614     1426.196      662.288      708.291        0.422        0.140       75.172       15.337        0.042      333.989        3.666      863.925
03/23/2014  03:09:00     -115.269      -40.867       -1.935       56.735       29.955       18.664     3218.849      897.332      348.353        0.971        0.223      122.299       20.328        0.028      333.913        3.538      863.912
03/23/2014  03:10:00     -158.275      -46.370       -4.608       42.343       30.261       23.849     1792.900      915.712      568.755        1.525        0.164      164.928       23.747        0.021      333.845        3.426      863.899
03/23/2014  03:11:00     -133.224      -44.181        2.929       29.594       32.519       21.327      875.779     1057.479      454.840        1.105        0.119      140.359       18.128        0.017      333.838        3.415      863.898
03/23/2014  03:12:00     -124.009      -56.765       -8.269       24.431       26.710       14.921      596.885      713.445      222.622        1.010        0.077      136.384        8.389        0.004      333.875        3.477      863.890
03/23/2014  03:13:00     -135.957      -65.059       -3.323       40.227       23.295       18.156     1618.219      542.646      329.658        1.261        0.125      150.722       18.968        0.016      333.770        3.301      863.890
03/23/2014  03:14:00      -73.344      -47.040       -2.399       49.821       26.576       23.612     2482.166      706.294      557.514        0.567        0.187       87.133       23.194        0.071      333.806        3.362      863.885
03/23/2014  03:15:00      -97.033      -38.575      -12.893       33.385       27.500       20.121     1114.545      756.272      404.861        0.667        0.114      104.420       17.513        0.028      333.781        3.320      863.886
03/23/2014  03:16:00     -105.801        2.355      -11.465       34.776       33.682       20.653     1209.382     1134.493      426.563        0.705        0.139      105.827       20.041        0.036      333.585        2.997      863.893
03/23/2014  03:17:00      -63.404      -20.831       -4.090       41.741       23.622       16.431     1742.293      557.996      269.963        0.352        0.129       66.738       12.187        0.033      333.598        3.018      863.903
03/23/2014  03:18:00       -3.539      -14.990        2.491       13.879       21.534       16.166      192.626      463.723      261.339        0.058        0.046       15.402       13.239        0.739      333.673        3.144      863.910
03/23/2014  03:19:00      -35.203      -18.802        0.120       20.000       20.729       13.264      400.001      429.692      175.939        0.130        0.050       39.910       12.456        0.097      333.674        3.142      863.912
03/23/2014  03:20:00      -26.843       -9.886        1.163       32.056       11.047       13.435     1027.595      122.034      180.504        0.107        0.067       28.606       13.422        0.220      333.667        3.132      863.913
03/23/2014  03:21:00      -82.601      -24.777      -12.557       27.343       19.150       12.265      747.630      366.710      150.440        0.443        0.063       86.237       10.955        0.016      333.635        3.079      863.918
03/23/2014  03:22:00      -84.309      -27.789       -9.946       33.134       24.044       16.296     1097.837      578.091      265.564        0.496        0.097       88.771       16.309        0.034      333.624        3.061      863.911
03/23/2014  03:23:00     -100.793      -32.810      -17.467       29.319       24.527       16.514      859.624      601.582      272.697        0.664        0.087      105.999       13.235        0.016      333.631        3.071      863.914
03/23/2014  03:24:00      -94.293      -27.440       -8.871       33.008       16.154       11.858     1089.532      260.956      140.615        0.561        0.075       98.205        5.108        0.003      333.743        3.259      863.912
03/23/2014  03:25:00      -24.906      -19.315        5.002       44.353       33.297       19.619     1967.199     1108.663      384.911        0.224        0.173       31.518       24.419        0.600      333.694        3.178      863.905
03/23/2014  03:26:00      -45.485      -25.857        0.886       34.656       29.041       16.852     1201.008      843.390      283.978        0.253        0.116       52.320       14.996        0.082      333.619        3.053      863.911
03/23/2014  03:27:00      -91.567       -7.202       -5.860       15.373       17.085       12.309      236.336      291.889      151.510        0.458        0.034       91.850        5.375        0.003      333.711        3.206      863.914
03/23/2014  03:28:00      -87.595      -11.373      -16.897       18.535       17.902       13.332      343.559      320.499      177.735        0.446        0.042       88.330        5.276        0.004      333.514        2.876      863.910
03/23/2014  03:29:00      -69.795      -17.093      -10.275       22.984       19.751       12.285      528.277      390.100      150.917        0.317        0.053       71.858       10.855        0.023      333.470        2.805      863.908
03/23/2014  03:30:00      -41.012      -26.477       -6.963       18.346       17.822       16.350      336.572      317.618      267.337        0.168        0.046       48.816        4.916        0.010      333.638        3.083      863.900
03/23/2014  03:31:00      -33.586      -21.373       -4.076       21.548       18.980       10.838      464.325      360.247      117.472        0.127        0.047       39.810        9.042        0.052      333.625        3.062      863.906
03/23/2014  03:32:00      -48.914      -36.034      -10.612       14.047       16.831       12.494      197.310      283.287      156.098        0.222        0.032       60.754        6.234        0.011      333.692        3.173      863.916
03/23/2014  03:33:00      -53.575      -25.347        0.967       23.092       13.899       11.580      533.227      193.181      134.098        0.219        0.043       59.268       12.954        0.048      333.807        3.363      863.916
03/23/2014  03:34:00      -53.844      -42.064       -6.767       15.211       15.777       12.885      231.375      248.900      166.025        0.268        0.032       68.327        2.560        0.001      333.721        3.221      863.908
03/23/2014  03:35:00      -63.615      -33.893       -9.661       16.298       22.152       11.460      265.637      490.718      131.325        0.309        0.044       72.081       11.068        0.024      333.699        3.186      863.897
03/23/2014  03:36:00      -67.603      -28.634       -9.278       16.740       17.134       11.609      280.218      293.568      134.769        0.309        0.035       73.417        7.329        0.010      333.603        3.025      863.890
03/23/2014  03:37:00      -81.396      -22.994      -10.661       16.574       17.963       11.758      274.694      322.675      138.258        0.400        0.037       84.582        7.625        0.008      333.576        2.981      863.893
03/23/2014  03:38:00      -88.197       -8.299      -13.708       17.921       20.850       11.893      321.152      434.724      141.450        0.447        0.045       88.587        9.396        0.011      333.561        2.954      863.885
03/23/2014  03:39:00      -67.581        3.472      -12.019       14.872        9.903        8.169      221.181       98.061       66.734        0.255        0.019       67.670        6.295        0.009      333.727        3.231      863.870
03/23/2014  03:40:00      -37.391      -10.114       -8.711       13.500       12.541       11.200      182.250      157.269      125.448        0.102        0.023       38.735        9.624        0.062      333.841        3.421      863.864
03/23/2014  03:41:00      -31.560      -22.409      -10.120       11.244        9.557        8.611      126.433       91.328       74.157        0.095        0.015       38.706        5.544        0.021      333.826        3.398      863.853
03/23/2014  03:42:00      -32.213      -23.714       -7.861       11.197       11.145        8.018      125.383      124.215       64.291        0.099        0.016       40.001        6.387        0.025      333.714        3.211      863.859
03/23/2014  03:43:00      -40.409      -11.231       -6.526        9.754       10.691        6.918       95.140      114.305       47.855        0.103        0.013       41.941        5.510        0.017      333.741        3.255      863.859
03/23/2014  03:44:00      -51.892      -12.266      -10.674        9.650       10.246        8.006       93.123      104.981       64.102        0.161        0.013       53.322        6.090        0.013      333.606        3.029      863.858
03/23/2014  03:45:00      -38.216      -16.341       -7.795       14.633       11.355       10.083      214.138      128.927      101.676        0.112        0.022       41.563        5.289        0.016      333.653        3.110      863.860
03/23/2014  03:46:00      -36.354       -1.415       -6.423       14.816       10.008       10.537      219.499      100.168      111.021        0.090        0.022       36.381        3.964        0.012      333.893        3.507      863.854
03/23/2014  03:47:00      -29.338      -16.614       -5.635       17.724       14.327        7.169      314.157      205.271       51.397        0.087        0.029       33.716        5.826        0.030      333.965        3.626      863.840
03/23/2014  03:48:00      -69.665      -24.197       -9.589       17.368       13.445        8.376      301.664      180.770       70.161        0.304        0.028       73.748        3.647        0.002      333.578        2.983      863.836
03/23/2014  03:49:00      -87.421      -25.395      -11.712       14.283       11.404        9.881      204.011      130.050       97.628        0.443        0.022       91.035        6.311        0.005      333.397        2.685      863.842
03/23/2014  03:50:00      -85.229      -47.872      -15.861       13.199       10.964        9.459      174.216      120.207       89.474        0.510        0.019       97.753        7.012        0.005      333.431        2.741      863.843
03/23/2014  03:51:00      -86.561      -37.904      -17.438       16.081       15.761       14.328      258.609      248.417      205.291        0.497        0.036       94.496        8.592        0.008      333.414        2.711      863.839
03/23/2014  03:52:00     -109.390      -40.839      -13.918       14.425       12.450        9.521      208.090      154.992       90.654        0.714        0.023      116.765        6.216        0.003      333.454        2.778      863.833
03/23/2014  03:53:00     -105.120      -60.948       -8.418       32.838       20.618       13.193     1078.347      425.106      174.056        0.826        0.084      121.511       12.605        0.011      333.521        2.889      863.829
03/23/2014  03:54:00      -64.296      -53.674       -2.278       40.296       24.796       18.823     1623.776      614.859      354.294        0.481        0.130       83.755       17.603        0.044      333.470        2.805      863.840
03/23/2014  03:55:00     -111.939      -55.356      -14.224       18.558       19.810       19.040      344.400      392.426      362.534        0.845        0.055      124.879        9.317        0.006      333.504        2.861      863.845
03/23/2014  03:56:00     -102.190      -43.476       -4.392       16.923       21.681       12.966      286.385      470.085      168.104        0.664        0.046      111.054        3.472        0.001      333.534        2.911      863.850
03/23/2014  03:57:00      -83.588      -35.271       -3.214       21.859       17.358       14.698      477.797      301.291      216.035        0.462        0.050       90.725       13.038        0.021      333.527        2.900      863.862
03/23/2014  03:58:00      -98.635      -13.108       -9.765       19.215       12.535       10.695      369.210      157.135      114.374        0.532        0.032       99.502       10.347        0.011      333.587        2.999      863.867
03/23/2014  03:59:00     -101.349      -12.602       -5.606       24.254       16.636       14.533      588.241      276.758      211.212        0.577        0.054      102.129       12.237        0.014      333.481        2.824      863.865
03/23/2014  04:00:00      -94.434      -25.955       -6.930       16.400       10.432        9.024      268.955      108.822       81.425        0.505        0.023       97.936        7.180        0.005      333.472        2.806      863.849
03/23/2014  04:01:00      -91.677      -28.881       -7.171       17.912       13.429        8.182      320.831      180.326       66.948        0.493        0.028       96.119        6.426        0.004      333.536        2.913      863.838
03/23/2014  04:02:00      -72.507      -45.357      -13.749        9.972       10.902        7.268       99.436      118.853       52.829        0.389        0.014       85.525        4.105        0.002      333.610        3.037      863.831
03/23/2014  04:03:00      -64.499      -23.993       -7.816        9.445       15.081        7.267       89.200      227.440       52.813        0.258        0.018       68.817        4.283        0.004      333.665        3.129      863.824
03/23/2014  04:04:00      -74.588      -20.287       -7.671       11.430       12.491        9.839      130.655      156.027       96.806        0.321        0.019       77.297        5.080        0.004      333.690        3.170      863.828
03/23/2014  04:05:00      -91.681      -22.913      -16.893       20.203       12.391       10.173      408.148      153.539      103.496        0.494        0.033       94.501        7.898        0.007      333.610        3.037      863.834
03/23/2014  04:06:00      -98.519      -34.492       -8.676       15.529       16.429       11.995      241.156      269.899      143.868        0.581        0.033      104.382        9.526        0.008      333.522        2.891      863.843
03/23/2014  04:07:00      -83.787      -23.480      -18.036       14.618        9.065        8.161      213.680       82.182       66.605        0.413        0.018       87.015        3.838        0.002      333.455        2.781      863.850
03/23/2014  04:08:00      -63.461      -12.161      -11.678       14.888       11.648       10.326      221.653      135.673      106.625        0.239        0.023       64.615        6.213        0.009      333.504        2.862      863.864
03/23/2014  04:09:00      -77.238      -13.300      -15.764       10.988       16.420       10.006      120.738      269.615      100.129        0.344        0.025       78.375        4.936        0.004      333.404        2.695      863.866
03/23/2014  04:10:00      -68.128      -23.814      -18.161       12.231       13.008        6.837      149.589      169.201       46.742        0.295        0.018       72.170        2.503        0.001      333.294        2.515      863.873
03/23/2014  04:11:00      -47.584      -13.123      -15.717        9.795        9.566        9.366       95.935       91.516       87.715        0.148        0.014       49.361        2.772        0.003      333.434        2.746      863.875
03/23/2014  04:12:00      -59.440       -7.377       -8.536       12.616       11.912       10.453      159.169      141.905      109.261        0.204        0.021       59.896        4.941        0.007      333.436        2.747      863.886
03/23/2014  04:13:00      -65.642      -11.796       -5.292       16.797       14.648       12.075      282.133      214.558      145.795        0.256        0.032       66.693       10.602        0.025      333.349        2.605      863.880
03/23/2014  04:14:00      -53.427      -10.603       -8.213       25.252       16.015        9.223      637.664      256.466       85.069        0.201        0.049       54.469        9.514        0.031      333.368        2.635      863.872
03/23/2014  04:15:00      -23.728        3.552       -2.548       26.504       13.189        7.693      702.443      173.949       59.188        0.076        0.047       23.993       10.601        0.195      333.703        3.192      863.867
03/23/2014  04:16:00      -34.354       -8.865      -10.866       13.156       14.511        8.496      173.093      210.582       72.187        0.092        0.023       35.479        7.877        0.049      333.499        2.854      863.861
03/23/2014  04:17:00      -30.111      -17.416      -14.839       16.072       10.905       10.100      258.318      118.915      102.005        0.095        0.024       34.785        7.085        0.041      333.617        3.049      863.859
03/23/2014  04:18:00      -31.635       -9.996       -5.202       16.420        8.622       11.080      269.630       74.336      122.769        0.080        0.023       33.176        6.353        0.037      333.502        2.859      863.859
03/23/2014  04:19:00      -26.647        5.419       -3.084       12.884       16.690        6.819      165.998      278.567       46.495        0.062        0.025       27.193        6.781        0.062      333.710        3.204      863.859
03/23/2014  04:20:00      -47.487      -15.428       -6.228       10.547       13.303        7.903      111.235      176.977       62.455        0.144        0.018       49.930        5.476        0.012      333.507        2.867      863.866
03/23/2014  04:21:00      -69.748       -5.531      -10.585       11.192       13.523        9.075      125.258      182.872       82.353        0.270        0.020       69.967        5.340        0.006      333.351        2.608      863.877
03/23/2014  04:22:00      -35.836      -12.681       -9.276       19.152       11.135        8.433      366.791      123.991       71.108        0.105        0.028       38.014        5.167        0.018      333.650        3.102      863.885
03/23/2014  04:23:00      -35.485       -6.776       -5.606        7.173        9.343        5.713       51.446       87.295       32.634        0.075        0.009       36.127        3.010        0.007      333.551        2.941      863.895
03/23/2014  04:24:00      -39.709      -12.829       -6.368        8.680       11.532        9.107       75.348      132.986       82.931        0.104        0.015       41.730        2.737        0.004      333.565        2.964      863.898
03/23/2014  04:25:00      -42.604      -30.708       -5.653       14.922       10.752        9.999      222.668      115.615       99.981        0.161        0.022       52.518        7.193        0.019      333.608        3.034      863.907
03/23/2014  04:26:00      -44.883      -26.464       -6.759       15.608        8.741        8.856      243.605       76.411       78.422        0.158        0.020       52.104        6.607        0.016      333.362        2.626      863.912
03/23/2014  04:27:00      -42.085      -14.141       -9.826       13.309       11.181        6.479      177.124      125.013       41.983        0.121        0.017       44.397        4.734        0.011      333.382        2.661      863.917
03/23/2014  04:28:00      -50.740      -13.222       -8.592        9.036       10.030        9.937       81.647      100.596       98.737        0.155        0.014       52.435        4.531        0.007      333.446        2.765      863.922
03/23/2014  04:29:00      -70.487      -14.301      -12.883        9.799        8.971        7.844       96.019       80.484       61.527        0.279        0.012       71.923        4.123        0.003      333.321        2.558      863.933
03/23/2014  04:30:00      -81.978      -39.062      -10.377       19.413       12.763       10.315      376.870      162.890      106.400        0.450        0.032       90.809        7.364        0.007      333.298        2.521      863.940
03/23/2014  04:31:00     -107.760      -35.951       -7.677       17.582       18.020       13.872      309.117      324.725      192.440        0.689        0.041      113.599        7.502        0.004      333.192        2.347      863.946
03/23/2014  04:32:00     -104.427      -16.082      -16.915       15.256       14.175       10.149      232.734      200.942      102.999        0.599        0.027      105.658        7.420        0.005      333.106        2.203      863.958
03/23/2014  04:33:00      -85.057      -16.293      -10.601       19.947       13.354        9.092      397.900      178.343       82.658        0.414        0.033       86.604        9.837        0.013      333.213        2.380      863.962
03/23/2014  04:34:00      -84.996       -3.915      -17.886       15.174        8.872        8.623      230.238       78.712       74.360        0.397        0.019       85.086        8.406        0.010      333.255        2.450      863.974
03/23/2014  04:35:00      -68.337       -7.710      -11.764       14.074       14.026       11.966      198.076      196.737      143.175        0.270        0.027       68.771        8.471        0.015      333.271        2.474      863.984
03/23/2014  04:36:00      -60.468      -20.614      -10.597       20.198       16.638       14.156      407.954      276.824      200.403        0.254        0.044       63.885       14.882        0.054      333.260        2.457      863.999
03/23/2014  04:37:00      -84.725       -7.799      -10.304       40.907       24.845       15.117     1673.378      617.281      228.512        0.493        0.126       85.083       13.490        0.025      333.270        2.474      864.016
03/23/2014  04:38:00      -81.697      -53.770       -6.206       25.244       31.495       13.618      637.267      991.948      185.454        0.571        0.091       97.804       11.271        0.013      333.326        2.568      864.032
03/23/2014  04:39:00      -75.982      -42.860       -4.062       43.033       21.903       23.732     1851.801      479.744      563.219        0.526        0.145       87.237       26.698        0.094      333.267        2.468      864.048
03/23/2014  04:40:00      -87.166      -48.729      -13.703       17.131       18.823       14.491      293.461      354.295      209.993        0.551        0.043       99.862        6.933        0.005      333.279        2.488      864.055
03/23/2014  04:41:00      -65.244      -50.377       -4.883       16.932       24.416       17.306      286.699      596.131      299.504        0.400        0.059       82.429       11.405        0.019      333.254        2.447      864.065
03/23/2014  04:42:00     -100.431      -38.927      -13.797       16.574       11.212       11.612      274.712      125.700      134.850        0.616        0.027      107.711        6.479        0.004      333.228        2.404      864.072
03/23/2014  04:43:00     -106.815      -25.063      -11.549       19.559       15.354       15.127      382.564      235.742      228.820        0.651        0.042      109.716       10.498        0.009      333.260        2.459      864.074
03/23/2014  04:44:00     -113.234      -37.703       -9.028       19.540       16.429       12.873      381.812      269.918      165.711        0.757        0.041      119.346        7.047        0.003      333.267        2.469      864.079
03/23/2014  04:45:00     -112.055      -31.211       -7.098       20.398       19.160       14.454      416.094      367.088      208.929        0.729        0.050      116.321        9.655        0.007      333.309        2.538      864.077
03/23/2014  04:46:00      -61.880      -28.622        4.122       40.592       17.639       14.045     1647.686      311.134      197.249        0.341        0.108       68.179       16.188        0.056      333.349        2.604      864.076
03/23/2014  04:47:00      -58.175      -35.232       -1.067       27.220       18.824       15.752      740.929      354.343      248.122        0.298        0.067       68.012       14.826        0.048      333.384        2.663      864.073
03/23/2014  04:48:00      -37.371      -10.376        0.804       15.165       20.145        9.112      229.966      405.824       83.034        0.111        0.036       38.784        7.475        0.037      333.382        2.661      864.078
03/23/2014  04:49:00      -52.750       -9.415       -7.882       25.143       14.523       11.950      632.187      210.931      142.812        0.196        0.049       53.584       11.721        0.048      333.335        2.583      864.078
03/23/2014  04:50:00     -105.443      -17.351      -12.109       15.473       16.411       10.872      239.403      269.317      118.200        0.610        0.031      106.861        9.907        0.009      333.320        2.560      864.075
03/23/2014  04:51:00      -85.414      -38.362       -9.990        9.905        8.292        6.832       98.118       68.750       46.671        0.454        0.011       93.633        4.211        0.002      333.402        2.694      864.069
03/23/2014  04:52:00      -93.951      -45.709       -9.286       10.601       10.582        8.681      112.382      111.980       75.367        0.565        0.015      104.480        3.920        0.001      333.437        2.749      864.070
03/23/2014  04:53:00      -89.990      -49.570      -15.992       14.801       12.437       12.185      219.056      154.691      148.484        0.567        0.026      102.739        6.427        0.004      333.388        2.670      864.068
03/23/2014  04:54:00     -102.230      -45.534       -1.802       30.188       15.807       14.659      911.332      249.859      214.900        0.695        0.069      111.912       16.223        0.021      333.260        2.458      864.070
03/23/2014  04:55:00     -111.766      -50.445       -7.369       18.171       21.006       16.025      330.187      441.259      256.807        0.806        0.051      122.622       11.225        0.008      333.202        2.361      864.072
03/23/2014  04:56:00     -136.636      -35.930      -15.751       19.802       13.614       10.452      392.109      185.351      109.238        1.045        0.034      141.281        4.086        0.001      333.183        2.329      864.081
03/23/2014  04:57:00      -95.950      -38.462       -2.121       24.352       25.510       13.434      593.006      650.764      180.462        0.606        0.071      103.372       11.020        0.011      333.194        2.348      864.086
03/23/2014  04:58:00     -126.646      -48.349       -9.474       13.785       17.458       11.240      190.039      304.783      126.337        0.954        0.031      135.561        5.412        0.002      333.211        2.376      864.094
03/23/2014  04:59:00     -109.230      -57.911      -10.047       11.926       18.071       12.020      142.236      326.562      144.472        0.800        0.031      123.633        6.373        0.003      333.205        2.366      864.108
03/23/2014  05:00:00     -115.625      -33.060      -15.635       18.475       16.052       11.284      341.335      257.651      127.332        0.772        0.036      120.258        5.011        0.002      333.203        2.363      864.127
03/23/2014  05:01:00     -132.666      -28.432       -8.192       20.022       15.941       14.403      400.896      254.115      207.457        0.967        0.043      135.679       11.586        0.007      333.168        2.306      864.141
03/23/2014  05:02:00     -127.769      -14.361       -5.909       32.764       23.167       22.796     1073.470      536.690      519.666        0.935        0.106      128.573       19.475        0.023      333.057        2.122      864.150
03/23/2014  05:03:00     -140.244      -33.139       -3.174       20.054       23.391       15.748      402.160      547.122      248.012        1.099        0.060      144.106       10.536        0.005      333.160        2.292      864.151
03/23/2014  05:04:00     -129.403      -57.971       -5.163       18.076       15.991       15.344      326.744      255.728      235.433        1.047        0.041      141.794        9.074        0.004      333.166        2.303      864.149
03/23/2014  05:05:00     -118.569      -66.569       -3.088       41.844       28.859       16.698     1750.880      832.856      278.825        1.068        0.143      135.978       14.288        0.011      333.261        2.460      864.155
03/23/2014  05:06:00     -125.641      -71.614      -10.029       27.814       24.215       17.175      773.599      586.383      294.989        1.133        0.083      144.617       11.093        0.006      333.260        2.456      864.156
03/23/2014  05:07:00     -105.047      -57.059       -1.644       22.290       27.960       16.529      496.844      781.734      273.214        0.792        0.078      119.543       13.122        0.012      333.204        2.364      864.158
03/23/2014  05:08:00     -101.589       -7.246        0.678       43.207       25.442       22.349     1866.887      647.309      499.463        0.669        0.151      101.847       21.721        0.045      333.133        2.248      864.160
03/23/2014  05:09:00     -115.345       -1.264        1.808       47.537       28.181       24.091     2259.744      794.184      580.375        0.847        0.182      115.351       26.427        0.052      332.988        2.009      864.165
03/23/2014  05:10:00     -106.296      -15.371        3.236       35.269       27.167       22.188     1243.892      738.042      492.310        0.701        0.124      107.402       21.428        0.040      333.087        2.172      864.172
03/23/2014  05:11:00      -67.215      -22.274        8.237       37.748       20.694       20.751     1424.932      428.226      430.590        0.368        0.114       70.810       20.344        0.083      333.424        2.729      864.176
03/23/2014  05:12:00      -97.779      -35.204       -8.459       16.272       26.340       14.651      264.779      693.808      214.646        0.602        0.059      103.923       13.662        0.017      333.517        2.882      864.192
03/23/2014  05:13:00     -114.155      -12.491        1.920       41.651       28.155       23.950     1734.816      792.729      573.590        0.815        0.155      114.836       25.268        0.048      333.204        2.367      864.212
03/23/2014  05:14:00     -112.006        1.683        3.506       43.066       41.757       27.196     1854.684     1743.632      739.609        0.845        0.217      112.019       26.092        0.054      333.175        2.318      864.210
03/23/2014  05:15:00     -116.494      -13.764       -0.239       34.152       26.769       19.749     1166.331      716.570      390.021        0.802        0.114      117.304       21.159        0.033      333.258        2.454      864.210
03/23/2014  05:16:00      -94.781      -33.208        1.913       43.329       20.188       13.899     1877.389      407.558      193.178        0.628        0.124      100.430       17.078        0.029      333.326        2.567      864.201
03/23/2014  05:17:00     -130.737      -38.226       -8.550       28.962       25.763       19.765      838.804      663.741      390.661        1.026        0.095      136.211       15.002        0.012      333.305        2.533      864.204
03/23/2014  05:18:00     -129.469      -16.504       -7.900       38.033       25.719       22.419     1446.546      661.465      502.632        0.985        0.131      130.517       20.665        0.025      333.186        2.336      864.206
03/23/2014  05:19:00     -109.343      -10.741       -3.340       38.009       21.044       19.916     1444.667      442.861      396.634        0.718        0.114      109.869       20.361        0.034      333.179        2.323      864.201
03/23/2014  05:20:00     -123.092      -13.595       -2.133       40.821       26.917       24.757     1666.383      724.499      612.885        0.917        0.150      123.841       23.563        0.036      333.042        2.098      864.198
03/23/2014  05:21:00     -108.026      -13.398        2.870       54.106       26.862       28.252     2927.506      721.593      798.162        0.815        0.222      108.853       31.086        0.082      332.945        1.938      864.196
03/23/2014  05:22:00     -103.654       -6.212       -4.547       38.517       27.518       22.669     1483.562      757.230      513.900        0.678        0.138      103.840       20.527        0.039      332.866        1.809      864.181
03/23/2014  05:23:00      -72.122      -45.506       -8.226       28.689       30.640       16.604      823.032      938.808      275.706        0.469        0.102       85.278       14.705        0.030      333.007        2.041      864.179
03/23/2014  05:24:00     -101.719      -34.606       -4.510       26.949       25.143       17.552      726.262      632.150      308.077        0.662        0.083      107.444       15.124        0.020      333.070        2.144      864.192
03/23/2014  05:25:00     -120.196       -9.206       -6.222       32.428       34.083       20.176     1051.604     1161.682      407.078        0.860        0.131      120.548       13.785        0.013      332.940        1.929      864.203
03/23/2014  05:26:00     -101.106      -10.023        0.167       59.614       34.755       26.158     3553.796     1207.898      684.235        0.788        0.272      101.602       30.910        0.093      332.878        1.828      864.210
03/23/2014  05:27:00      -90.292      -18.732       -1.728       50.878       41.480       20.312     2588.557     1720.553      412.590        0.661        0.236       92.215       17.636        0.037      332.818        1.729      864.217
03/23/2014  05:28:00     -117.397      -19.035       -3.692       52.442       37.923       28.788     2750.148     1438.120      828.776        0.959        0.251      118.931       29.031        0.060      332.767        1.645      864.228
03/23/2014  05:29:00     -106.705       -1.999       -0.145       53.537       32.822       27.938     2866.243     1077.262      780.552        0.806        0.236      106.724       28.713        0.072      332.767        1.643      864.236
03/23/2014  05:30:00     -142.460       -2.776       -7.637       58.992       38.268       26.604     3480.101     1464.477      707.769        1.301        0.283      142.487       32.899        0.053      332.769        1.647      864.247
03/23/2014  05:31:00     -128.370      -14.084      -13.650       43.732       35.857       23.398     1912.490     1285.734      547.480        1.030        0.187      129.140       21.414        0.027      332.764        1.639      864.263
03/23/2014  05:32:00     -104.652        8.028       -7.991       42.620       28.880       21.025     1816.482      834.077      442.051        0.709        0.155      104.960       13.098        0.016      332.873        1.818      864.277
03/23/2014  05:33:00     -112.427      -21.802       -2.576       45.986       35.670       23.602     2114.729     1272.348      557.065        0.853        0.197      114.521       24.402        0.045      332.838        1.763      864.294
03/23/2014  05:34:00     -121.013        0.791       -7.773       44.409       29.083       26.586     1972.137      845.838      706.828        0.911        0.176      121.016       26.377        0.048      332.779        1.665      864.295
03/23/2014  05:35:00      -44.877      -18.624        9.086       50.397       31.051       22.460     2539.856      964.163      504.470        0.323        0.200       48.588       24.642        0.257      332.808        1.713      864.283
03/23/2014  05:36:00      -19.323      -12.157       12.780       33.575       17.232       20.944     1127.291      296.948      438.652        0.127        0.093       22.829       21.745        0.907      332.976        1.989      864.274
03/23/2014  05:37:00      -44.241      -36.307       -4.045       33.277       18.980       15.443     1107.360      360.251      238.484        0.250        0.085       57.232        8.840        0.024      332.998        2.025      864.265
03/23/2014  05:38:00      -51.055      -38.226       -8.836       11.777       11.517       11.673      138.687      132.650      136.255        0.228        0.020       63.780        5.427        0.007      333.099        2.191      864.265
03/23/2014  05:39:00      -54.333      -29.992       -9.984       15.028       13.213       11.973      225.838      174.571      143.355        0.225        0.027       62.061        3.621        0.003      333.243        2.428      864.257
03/23/2014  05:40:00      -71.029      -32.933       -7.634       11.163       12.619       10.471      124.604      159.239      109.648        0.329        0.020       78.292        7.640        0.010      333.057        2.122      864.256
03/23/2014  05:41:00      -62.304      -28.593      -11.936       21.158       17.892       14.057      447.672      320.121      197.612        0.290        0.048       68.552        7.568        0.012      333.164        2.299      864.259
03/23/2014  05:42:00      -82.709      -32.180      -16.506       12.838        9.540        7.786      164.827       91.004       60.620        0.423        0.016       88.748        5.155        0.003      333.124        2.233      864.257
03/23/2014  05:43:00     -128.398      -51.614      -14.878       24.324       21.781       15.633      591.636      474.411      244.403        1.034        0.066      138.384       11.091        0.006      333.074        2.153      864.262
03/23/2014  05:44:00     -124.860      -53.963      -12.636       30.511       16.142       14.407      930.935      260.575      207.553        1.003        0.070      136.022       17.606        0.017      333.087        2.172      864.273
03/23/2014  05:45:00      -96.992      -49.359       -9.606       17.442       19.367       15.895      304.218      375.096      252.635        0.643        0.047      108.829        8.076        0.006      333.124        2.232      864.276
03/23/2014  05:46:00     -116.072      -35.694      -13.154       13.791       24.849       11.007      190.192      617.469      121.162        0.792        0.046      121.436        7.906        0.004      333.164        2.298      864.273
03/23/2014  05:47:00      -96.543      -22.861        0.732       28.353       23.509       17.336      803.871      552.666      300.528        0.575        0.083       99.212       15.861        0.026      333.023        2.066      864.279
03/23/2014  05:48:00      -98.222      -40.788       -0.113       29.242       17.216       14.277      855.099      296.383      203.827        0.633        0.068      106.354       16.075        0.023      333.032        2.080      864.284
03/23/2014  05:49:00      -68.515      -38.422        6.998       36.016       25.666       19.333     1297.131      658.753      373.765        0.427        0.116       78.553       19.110        0.059      333.011        2.046      864.289
03/23/2014  05:50:00      -52.628      -35.691        7.622       26.487       22.807       15.964      701.571      520.146      254.834        0.279        0.074       63.589       12.053        0.036      333.125        2.235      864.296
03/23/2014  05:51:00      -57.536      -31.703       11.980       46.345       29.767       20.147     2147.902      886.088      405.894        0.395        0.172       65.692       18.935        0.083      333.082        2.163      864.307
03/23/2014  05:52:00      -49.349      -37.095        7.247       53.690       30.324       23.856     2882.649      919.544      569.118        0.412        0.219       61.736       25.193        0.167      333.067        2.139      864.315
03/23/2014  05:53:00      -91.177      -65.696        1.919       59.372       37.068       22.671     3525.005     1374.035      513.968        0.902        0.271      112.379       25.652        0.052      333.086        2.172      864.315
03/23/2014  05:54:00     -115.516      -60.176        3.341       62.623       35.019       29.167     3921.662     1226.296      850.688        1.149        0.300      130.250       30.037        0.053      333.010        2.045      864.324
03/23/2014  05:55:00      -86.977      -50.121        4.758       53.925       42.051       25.675     2907.957     1768.313      659.226        0.772        0.267      100.384       23.766        0.056      333.120        2.227      864.325
03/23/2014  05:56:00      -97.911      -56.733       -3.155       31.390       28.540       20.956      985.356      814.548      439.138        0.753        0.112      113.160       19.364        0.029      333.133        2.250      864.332
03/23/2014  05:57:00      -97.804      -37.719        2.148       44.561       27.693       19.781     1985.656      766.880      391.305        0.707        0.157      104.825       23.552        0.050      333.079        2.159      864.340
03/23/2014  05:58:00      -99.243      -47.424       -1.785       41.641       29.933       20.714     1733.975      896.001      429.063        0.758        0.153      109.992       20.848        0.036      333.054        2.119      864.341
03/23/2014  05:59:00      -55.118      -24.839        1.695       37.669       24.267       17.825     1418.953      588.899      317.738        0.299        0.116       60.456       20.439        0.114      333.159        2.291      864.349
03/23/2014  06:00:00      -56.705      -16.108        1.311       33.068       22.993       18.877     1093.477      528.686      356.324        0.273        0.099       58.948       17.797        0.091      333.017        2.056      864.356
03/23/2014  06:01:00      -60.965      -21.997       -1.469       46.911       37.816       26.354     2200.652     1430.074      694.509        0.426        0.216       64.811       26.608        0.169      332.972        1.984      864.362
03/23/2014  06:02:00      -43.048        1.333        0.248       44.974       20.942       19.182     2022.660      438.569      367.936        0.234        0.141       43.069       18.334        0.181      332.888        1.845      864.369
03/23/2014  06:03:00      -71.041      -18.816       -7.222       22.798       20.318       13.023      519.732      412.814      169.593        0.328        0.055       73.490       11.492        0.024      332.829        1.747      864.383
03/23/2014  06:04:00      -86.498      -31.343       -9.633       17.088       20.846       11.334      292.014      434.560      128.452        0.471        0.043       92.002        5.866        0.004      332.803        1.705      864.385
03/23/2014  06:05:00      -63.289        0.132       -2.419       31.106       28.066       18.525      967.594      787.713      343.168        0.305        0.105       63.289       15.677        0.061      332.769        1.649      864.386
03/23/2014  06:06:00      -98.958      -24.914       -8.049       21.490       21.163       13.923      461.819      447.890      193.858        0.579        0.055      102.046        8.511        0.007      332.852        1.784      864.389
03/23/2014  06:07:00      -62.451      -17.445      -11.271       22.315       16.893       19.136      497.976      285.366      366.192        0.274        0.057       64.842       11.355        0.031      332.854        1.790      864.384
03/23/2014  06:08:00      -25.492      -15.820       -2.197       26.596       18.526       13.261      707.321      343.202      175.842        0.107        0.061       30.002       11.992        0.160      332.827        1.744      864.400
03/23/2014  06:09:00      -63.968      -46.757      -13.210       26.122       19.203       16.862      682.358      368.739      284.315        0.389        0.067       79.235        7.595        0.009      332.824        1.738      864.414
03/23/2014  06:10:00      -34.340      -13.033       -1.352       20.436       15.777       13.328      417.629      248.922      177.636        0.110        0.042       36.730       13.218        0.130      332.867        1.811      864.416
03/23/2014  06:11:00      -29.124      -15.197       -5.990       17.923       15.885       12.682      321.240      252.331      160.825        0.092        0.037       32.851        9.505        0.084      332.868        1.812      864.421
03/23/2014  06:12:00      -50.176      -21.230        0.301       43.722       18.699       11.332     1911.629      349.635      128.421        0.268        0.119       54.482       12.445        0.052      332.843        1.770      864.432
03/23/2014  06:13:00      -79.291        2.842      -11.068       16.157       12.086       10.385      261.055      146.080      107.850        0.347        0.026       79.342        2.924        0.001      332.684        1.507      864.446
03/23/2014  06:14:00      -64.233       -6.847      -10.381       19.216       13.417        8.829      369.271      180.005       77.953        0.245        0.031       64.597        5.520        0.007      332.689        1.515      864.453
03/23/2014  06:15:00      -65.892      -13.606       -7.822       12.961        8.509        8.984      167.999       72.407       80.719        0.245        0.016       67.282        7.101        0.011      332.663        1.473      864.455
03/23/2014  06:16:00      -57.377      -11.515       -7.741       10.029       11.269        7.688      100.590      126.991       59.107        0.189        0.014       58.521        3.571        0.004      332.665        1.475      864.465
03/23/2014  06:17:00      -57.082      -25.829      -14.452       10.641        9.932        9.477      113.232       98.635       89.809        0.222        0.015       62.654        4.793        0.006      332.747        1.612      864.494
03/23/2014  06:18:00      -33.199       -9.820       -9.817       19.708        8.884        6.455      388.421       78.924       41.670        0.090        0.025       34.621        7.518        0.047      332.926        1.907      864.515
03/23/2014  06:19:00       31.573       21.779      -20.466       23.206       17.356       11.678      538.507      301.236      136.369        0.143        0.049       38.356        9.300        0.059      333.227        2.405      864.524
03/23/2014  06:20:00       29.268       19.431        2.796       13.871       10.931       11.897      192.395      119.477      141.550        0.085        0.023       35.130        6.703        0.036      333.138        2.257      864.534
03/23/2014  06:21:00        1.844        0.843        0.187        6.805        7.150        5.090       46.306       51.118       25.913        0.006        0.006        2.028        4.804        5.611      333.122        2.228      864.555
03/23/2014  06:22:00       -0.782        3.317       -2.571        8.717        8.219        6.748       75.993       67.554       45.542        0.010        0.009        3.408        5.015        2.166      333.100        2.196      864.581
03/23/2014  06:23:00       -9.696      -16.780       -1.556        8.333       11.816       10.806       69.447      139.619      116.779        0.035        0.016       19.380        4.899        0.064      332.977        1.990      864.593
03/23/2014  06:24:00       -2.805      -12.057       -2.632        8.660       12.371        8.212       74.990      153.036       67.431        0.023        0.015       12.379        7.911        0.408      332.824        1.739      864.597
03/23/2014  06:25:00       13.700       10.340       12.397       11.012        9.844       11.890      121.266       96.901      141.378        0.040        0.018       17.164       10.422        0.369      332.948        1.944      864.593
03/23/2014  06:26:00        4.823        0.634       17.012        8.861       21.694       13.044       78.514      470.648      170.141        0.052        0.036        4.864       15.458       10.099      333.002        2.033      864.597
03/23/2014  06:27:00      -13.466      -30.439        3.229       28.701       15.659       14.534      823.750      245.215      211.232        0.120        0.064       33.285       17.078        0.263      333.174        2.317      864.605
03/23/2014  06:28:00      -51.535       -2.171      -11.360       17.099        9.396        6.877      292.363       88.278       47.297        0.161        0.021       51.581        3.419        0.004      332.822        1.736      864.618
03/23/2014  06:29:00      -34.462       -3.143       -4.012       18.196        9.483        7.468      331.085       89.933       55.766        0.085        0.024       34.605        3.940        0.013      332.814        1.723      864.624
03/23/2014  06:30:00      -63.270      -20.500       -8.539       16.602       12.644        9.251      275.642      159.878       85.577        0.251        0.026       66.509        6.138        0.009      332.859        1.798      864.641
03/23/2014  06:31:00      -77.789      -31.000       -9.785       15.447       15.320       10.799      238.609      234.708      116.615        0.385        0.029       83.738        6.494        0.006      332.881        1.832      864.652
03/23/2014  06:32:00      -62.702      -17.527       -6.415       17.234       13.714       11.457      297.015      188.082      131.252        0.245        0.031       65.106        8.770        0.018      332.860        1.799      864.669
03/23/2014  06:33:00      -81.119      -17.863      -11.485       13.965       10.314        6.919      195.010      106.384       47.866        0.369        0.017       83.062        3.903        0.002      332.908        1.878      864.679
03/23/2014  06:34:00      -76.114      -29.365       -9.852       11.979        9.056        7.561      143.486       82.009       57.175        0.352        0.014       81.582        6.275        0.006      332.948        1.944      864.698
03/23/2014  06:35:00      -73.682      -22.356      -12.462       15.323       10.658        9.205      234.780      113.583       84.735        0.326        0.022       76.998        5.216        0.005      333.021        2.064      864.723
03/23/2014  06:36:00      -86.753       -2.759      -10.547       21.617       12.661       11.298      467.274      160.313      127.642        0.420        0.038       86.797        9.125        0.011      332.915        1.889      864.743
03/23/2014  06:37:00      -76.239       -6.608      -10.021       16.529       11.070       11.683      273.202      122.545      136.500        0.324        0.027       76.525        9.474        0.015      332.850        1.782      864.758
03/23/2014  06:38:00      -56.819      -20.899       -1.975       18.952       11.402       10.964      359.192      130.001      120.217        0.214        0.030       60.541        9.917        0.027      332.918        1.893      864.770
03/23/2014  06:39:00      -48.384      -26.276       -9.725       25.669        9.415        8.258      658.894       88.644       68.188        0.197        0.041       55.059        7.779        0.020      332.951        1.947      864.783
03/23/2014  06:40:00      -10.447      -14.779       14.465       33.046       12.993       13.036     1092.025      168.818      169.931        0.098        0.072       18.099       17.415        0.926      332.799        1.698      864.806
03/23/2014  06:41:00      -40.414      -17.771       -2.709       15.310       12.359       11.748      234.395      152.756      138.007        0.124        0.026       44.149        7.520        0.029      332.779        1.663      864.816
03/23/2014  06:42:00      -25.410      -13.948       -5.681       16.992       13.664        8.891      288.737      186.701       79.045        0.071        0.028       28.986        7.205        0.062      332.865        1.808      864.823
03/23/2014  06:43:00      -84.010       -3.515      -12.206       25.083       12.591       10.458      629.155      158.539      109.366        0.406        0.045       84.083        7.381        0.008      332.684        1.507      864.830
03/23/2014  06:44:00      -84.855        5.790      -11.406       28.240       13.342        9.265      797.523      178.000       85.843        0.421        0.053       85.053       10.904        0.016      332.635        1.425      864.838
03/23/2014  06:45:00      -67.055       -1.173       -3.880       23.512       12.372        9.898      552.838      153.063       97.964        0.266        0.040       67.065       12.287        0.034      332.712        1.553      864.849
03/23/2014  06:46:00      -53.069        3.406       -4.539       14.851       11.554       10.049      220.546      133.492      100.977        0.165        0.023       53.179        8.889        0.028      332.773        1.654      864.861
03/23/2014  06:47:00      -55.342       -1.419       -8.511       16.430       11.029       10.141      269.958      121.635      102.843        0.182        0.025       55.360        9.811        0.031      332.762        1.636      864.877
03/23/2014  06:48:00      -18.937       -0.926       -0.030       18.299       10.951        7.689      334.871      119.919       59.121        0.044        0.026       18.960        7.961        0.176      332.753        1.622      864.894
03/23/2014  06:49:00      -55.334      -21.230       -8.889       12.723       10.175        8.716      161.870      103.526       75.963        0.197        0.017       59.267        4.562        0.006      332.696        1.526      864.912
03/23/2014  06:50:00      -54.269      -26.019       -7.350       18.043       15.706        6.471      325.536      246.671       41.873        0.214        0.031       60.184        5.733        0.009      332.688        1.515      864.921
03/23/2014  06:51:00      -60.923      -13.455       -5.577       15.844       18.017       10.165      251.020      324.622      103.326        0.230        0.034       62.391        7.812        0.016      332.752        1.620      864.926
03/23/2014  06:52:00      -57.546       -7.436       -3.150       18.086       12.031       12.275      327.097      144.733      150.683        0.200        0.031       58.024       10.191        0.031      332.611        1.387      864.932
03/23/2014  06:53:00      -81.696      -11.816      -12.001       17.304       15.428       11.003      299.425      238.031      121.073        0.381        0.033       82.547        7.541        0.008      332.575        1.328      864.947
03/23/2014  06:54:00      -49.528       -8.248       -3.483       28.508       22.336       12.595      812.718      498.904      158.630        0.200        0.074       50.210       11.380        0.051      332.831        1.749      864.957
03/23/2014  06:55:00      -20.589      -24.881        1.891       30.390       12.838        9.979      923.577      164.820       99.585        0.112        0.059       32.295        8.489        0.069      332.962        1.967      864.964
03/23/2014  06:56:00      -51.028      -58.520       -2.766       14.675       20.893       10.159      215.346      436.509      103.202        0.340        0.038       77.643        4.290        0.003      333.008        2.039      864.966
03/23/2014  06:57:00      -65.871      -19.224       -0.808       17.325       27.412       12.516      300.146      751.395      156.641        0.296        0.060       68.619       10.674        0.024      332.981        1.997      864.975
03/23/2014  06:58:00      -29.892       -5.671       -0.956       10.725       15.728        9.198      115.026      247.372       84.607        0.069        0.022       30.425        4.957        0.027      332.694        1.524      864.979
03/23/2014  06:59:00      -32.058        8.264       -3.401       11.232        5.893        5.895      126.153       34.731       34.747        0.065        0.010       33.106        6.154        0.035      332.703        1.539      864.996
03/23/2014  07:00:00      -52.093       38.979      -14.038       12.108       14.186        9.254      146.610      201.254       85.628        0.243        0.022       65.062       10.738        0.027      332.786        1.675      865.009
03/23/2014  07:01:00      -57.116       34.080      -13.256       19.016       17.305       13.941      361.625      299.467      194.346        0.273        0.043       66.511       14.909        0.050      332.813        1.721      865.021
03/23/2014  07:02:00      -60.072       33.750      -10.937       13.240       13.175       12.218      175.309      173.582      149.277        0.268        0.025       68.903        9.067        0.017      332.860        1.798      865.038
03/23/2014  07:03:00      -65.605       16.754       -6.847       11.946       18.568       13.455      142.711      344.758      181.040        0.265        0.033       67.711       11.987        0.031      332.648        1.448      865.070
03/23/2014  07:04:00      -27.107       21.448       -4.649       25.623       33.106       11.188      656.555     1096.032      125.165        0.155        0.094       34.566       11.581        0.112      332.764        1.638      865.088
03/23/2014  07:05:00      -37.567       68.914       -9.646       21.662       21.683       15.049      469.249      470.163      226.477        0.371        0.058       78.489        7.308        0.009      332.951        1.950      865.107
03/23/2014  07:06:00      -16.237       52.470       -8.022       28.859       22.470       11.860      832.821      504.890      140.669        0.228        0.074       54.925        7.020        0.016      333.043        2.099      865.107
03/23/2014  07:07:00       18.700       38.273       -1.491       14.607       39.946       11.547      213.377     1595.715      133.327        0.188        0.097       42.597       16.770        0.155      333.146        2.270      865.113
03/23/2014  07:08:00        3.960       23.187        8.366       14.991       22.875       15.032      224.718      523.266      225.965        0.080        0.049       23.523       16.241        0.477      333.046        2.105      865.115
03/23/2014  07:09:00       11.989       97.184      -13.101       16.882       36.413       10.817      285.013     1325.940      117.008        0.574        0.086       97.921       16.136        0.027      333.131        2.246      865.120
03/23/2014  07:10:00       25.724       95.194      -14.945       16.042       19.468       12.598      257.352      378.998      158.716        0.537        0.040       98.608        9.658        0.010      333.097        2.190      865.130
03/23/2014  07:11:00       32.359       91.705      -16.065       21.332       30.014       17.422      455.037      900.865      303.510        0.569        0.083       97.247       15.983        0.027      333.095        2.186      865.147
03/23/2014  07:12:00       29.884       89.899      -16.258       17.512       36.974       14.817      306.653     1367.073      219.553        0.557        0.095       94.736       16.583        0.031      333.077        2.157      865.159
03/23/2014  07:13:00       28.829       80.571       -1.396       20.948       41.854       24.333      438.838     1751.795      592.071        0.505        0.139       85.573       28.443        0.110      333.123        2.232      865.166
03/23/2014  07:14:00       34.492       47.449        2.486       29.718       32.459       18.256      883.141     1053.585      333.276        0.286        0.114       58.661       13.546        0.053      333.141        2.262      865.164
03/23/2014  07:15:00       34.027       40.118       -4.629       21.899       21.310       17.161      479.565      454.105      294.494        0.201        0.061       52.605       13.339        0.064      333.141        2.261      865.164
03/23/2014  07:16:00       27.520       11.401        2.065       11.935       19.015       11.016      142.440      361.580      121.349        0.076        0.031       29.788        4.216        0.020      333.143        2.267      865.168
03/23/2014  07:17:00       24.076        3.166       -3.458       20.894       11.896       15.156      436.569      141.526      229.698        0.070        0.040       24.283       12.754        0.276      333.256        2.451      865.181
03/23/2014  07:18:00       -8.633      -10.271        2.921       18.893        8.890        6.188      356.961       79.035       38.289        0.033        0.024       13.417        4.780        0.127      333.219        2.391      865.205
03/23/2014  07:19:00      -42.315      -15.373       -5.186       15.127       10.937       14.361      228.829      119.619      206.239        0.130        0.028       45.021       10.572        0.055      332.955        1.955      865.228
03/23/2014  07:20:00      -53.900       -3.307       -7.412       10.149       11.480        6.169      103.012      131.799       38.056        0.162        0.014       54.002        4.731        0.008      332.842        1.768      865.241
03/23/2014  07:21:00      -65.857       16.103       -7.540       12.490        8.223        6.477      155.999       67.620       41.951        0.246        0.013       67.797        1.162        0.000      332.853        1.788      865.245
03/23/2014  07:22:00      -76.411       -3.204      -13.284       10.417       14.363        6.757      108.522      206.282       45.659        0.319        0.018       76.479        2.915        0.001      332.914        1.887      865.262
03/23/2014  07:23:00      -66.553      -22.011      -12.776       10.410       10.644        5.661      108.365      113.288       32.048        0.267        0.013       70.098        3.728        0.003      332.932        1.916      865.270
03/23/2014  07:24:00      -75.556      -19.969       -9.057       15.961       12.741        9.639      254.744      162.344       92.916        0.335        0.026       78.151        5.866        0.006      332.868        1.811      865.274
03/23/2014  07:25:00      -99.702       -0.715      -11.489       17.019        8.277        8.476      289.642       68.511       71.840        0.525        0.021       99.705        5.078        0.003      332.766        1.643      865.273
03/23/2014  07:26:00      -93.438       -7.538       -6.401       21.746       16.632       20.092      472.896      276.619      403.674        0.499        0.058       93.742       13.686        0.021      332.739        1.599      865.286
03/23/2014  07:27:00     -125.190      -27.194       -8.623       22.430       19.642       15.474      503.099      385.795      239.449        0.881        0.056      128.109       13.347        0.011      332.773        1.655      865.309
03/23/2014  07:28:00      -96.563      -27.702       -7.613       32.684       33.042       14.979     1068.263     1091.788      224.384        0.627        0.119      100.458       16.987        0.029      332.689        1.514      865.322
03/23/2014  07:29:00      -67.399       -6.038       -5.947       29.176       26.348       14.522      851.214      694.208      210.900        0.319        0.088       67.669       12.538        0.034      332.693        1.521      865.331
03/23/2014  07:30:00      -75.287      -14.181       -5.045       24.584       21.101       14.498      604.351      445.272      210.197        0.358        0.063       76.611       12.249        0.026      332.706        1.543      865.351
03/23/2014  07:31:00      -62.243      -11.304       -1.254       33.521       22.542       18.116     1123.679      508.155      328.191        0.298        0.098       63.261       14.201        0.050      332.727        1.577      865.360
03/23/2014  07:32:00      -58.452      -13.224       -9.069       21.639       23.800       11.533      468.261      566.453      133.009        0.242        0.058       59.930        3.207        0.003      332.786        1.676      865.365
03/23/2014  07:33:00      -50.416      -18.723      -13.385       26.597       35.545       18.119      707.378     1263.447      328.291        0.268        0.115       53.781       16.658        0.096      332.861        1.801      865.387
03/23/2014  07:34:00      -60.180       -3.127       -4.562       17.790       23.598       16.839      316.492      556.887      283.566        0.240        0.058       60.261       12.014        0.040      332.852        1.785      865.397
03/23/2014  07:35:00      -53.462      -14.926      -11.282       12.054       11.792       11.427      145.310      139.043      130.566        0.181        0.021       55.506        5.119        0.009      332.889        1.846      865.413
03/23/2014  07:36:00      -63.842      -13.809       -7.265       17.064       17.122       13.260      291.182      293.156      175.820        0.254        0.038       65.319        8.416        0.017      332.976        1.989      865.421
03/23/2014  07:37:00      -23.115      -11.503       -1.730       16.530       12.533        7.659      273.228      157.064       58.667        0.058        0.024       25.819        7.832        0.092      333.050        2.112      865.419
03/23/2014  07:38:00      -47.706       -1.838      -13.009       13.801        8.105       10.723      190.469       65.692      114.991        0.141        0.019       47.741        2.567        0.003      333.033        2.083      865.431
03/23/2014  07:39:00      -36.572       -3.358       -3.706        9.240        7.662        7.741       85.376       58.701       59.927        0.078        0.010       36.726        4.469        0.015      333.048        2.107      865.439
03/23/2014  07:40:00      -17.236      -15.281        1.753       15.121        7.722        6.467      228.647       59.635       41.822        0.043        0.017       23.035        6.497        0.080      333.166        2.305      865.452
03/23/2014  07:41:00       15.959        2.520        8.374       26.050       15.279        9.606      678.621      233.461       92.266        0.067        0.050       16.156        7.601        0.221      333.466        2.800      865.458
03/23/2014  07:42:00       29.319       15.685       12.319       18.242       14.080       13.590      332.778      198.252      184.689        0.099        0.036       33.250       12.566        0.143      333.726        3.229      865.463
03/23/2014  07:43:00       30.902       23.779        3.086       13.002        8.622       11.613      169.046       74.335      134.859        0.095        0.019       38.992        7.921        0.041      333.630        3.070      865.467
03/23/2014  07:44:00       13.479       28.811       22.092       17.230       16.254       12.539      296.881      264.200      157.216        0.111        0.036       31.808       11.656        0.134      333.734        3.244      865.470
03/23/2014  07:45:00       14.703       27.634        8.171       24.196       19.040       13.096      585.455      362.519      171.511        0.108        0.056       31.302        9.023        0.083      333.672        3.140      865.476
03/23/2014  07:46:00       14.918       12.826       11.934       13.452       11.657       12.162      180.962      135.891      147.923        0.050        0.023       19.674        6.378        0.105      333.752        3.273      865.483
03/23/2014  07:47:00      -45.966        0.974       -3.638       15.452       16.441       10.065      238.771      270.297      101.306        0.137        0.031       45.976        9.289        0.041      333.386        2.667      865.494
03/23/2014  07:48:00      -44.940        6.234       -3.611       16.371        7.792        6.215      268.015       60.708       38.625        0.122        0.018       45.370        4.470        0.010      333.431        2.742      865.513
03/23/2014  07:49:00      -52.135        9.365       -4.642       11.450       10.308        7.660      131.104      106.250       58.681        0.156        0.015       52.970        5.088        0.009      333.406        2.700      865.526
03/23/2014  07:50:00      -36.342       15.008        5.321       14.416       11.765       11.414      207.827      138.420      130.268        0.103        0.024       39.319       10.526        0.072      333.639        3.087      865.537
03/23/2014  07:51:00      -11.668        4.529        5.592       14.878        8.765        8.080      221.351       76.833       65.293        0.028        0.018       12.516        5.160        0.170      333.923        3.555      865.548
03/23/2014  07:52:00       -6.323       12.433       22.628       11.247       15.571       11.660      126.499      242.443      135.961        0.061        0.025       13.948        6.584        0.223      334.119        3.883      865.566
03/23/2014  07:53:00      -23.191       -7.985        4.730        9.268       11.976        6.751       85.895      143.416       45.578        0.045        0.014       24.527        3.083        0.016      333.774        3.309      865.587
03/23/2014  07:54:00       -7.352        2.439       11.534        7.669        6.298        8.634       58.812       39.661       74.549        0.018        0.009        7.746        5.157        0.443      334.265        4.124      865.597
03/23/2014  07:55:00        0.763       12.872       22.546       10.877       15.594       11.692      118.304      243.175      136.701        0.059        0.025       12.894       10.015        0.603      334.283        4.154      865.596
03/23/2014  07:56:00       -0.365        7.073       20.833       11.022       10.379       12.353      121.488      107.715      152.586        0.043        0.019        7.083        5.900        0.694      334.535        4.572      865.611
03/23/2014  07:57:00       20.922        7.355       13.632       18.229       10.007       15.347      332.286      100.141      235.523        0.067        0.033       22.177       11.366        0.263      334.207        4.028      865.614
03/23/2014  07:58:00       33.029        8.497       19.610       22.695       19.064       16.671      515.057      363.437      277.936        0.135        0.058       34.105       10.679        0.098      334.169        3.964      865.620
03/23/2014  07:59:00       50.874       39.553       27.293       20.830       13.946       17.087      433.908      194.485      291.977        0.291        0.046       64.440        5.612        0.008      333.973        3.639      865.633
03/23/2014  08:00:00       53.790       49.957       37.289       20.493       20.797       21.666      419.963      432.511      469.423        0.405        0.066       73.410       15.156        0.043      334.085        3.825      865.641
03/23/2014  08:01:00       11.410       28.604       27.451       20.900       20.959       13.109      436.821      439.271      171.855        0.137        0.052       30.796        9.960        0.105      334.249        4.098      865.663
03/23/2014  08:02:00        4.560        7.327       18.887       13.557       11.178       16.529      183.805      124.942      273.193        0.051        0.029        8.630       12.661        2.152      334.670        4.796      865.672
03/23/2014  08:03:00       -3.058       16.122       43.993        9.238       17.976        7.918       85.336      323.144       62.689        0.134        0.024       16.409        7.919        0.233      334.670        4.796      865.679
03/23/2014  08:04:00      -12.642       26.630       20.024       14.125       14.179       17.987      199.523      201.051      323.539        0.100        0.036       29.478       11.059        0.141      334.336        4.242      865.685
03/23/2014  08:05:00      -12.579       -3.737       16.261       10.966       11.038       10.780      120.258      121.836      116.208        0.040        0.018       13.123        7.421        0.320      334.492        4.499      865.684
03/23/2014  08:06:00       -4.143       12.890       27.021        9.235       19.278       11.211       85.289      371.650      125.696        0.075        0.029       13.539        5.663        0.175      334.813        5.033      865.682
03/23/2014  08:07:00       11.941       -7.749        3.576       13.861       17.275       17.255      192.129      298.429      297.722        0.050        0.039       14.235       15.246        1.147      334.501        4.517      865.682
03/23/2014  08:08:00        9.382       11.634       21.076       19.973       15.169       18.617      398.908      230.086      346.577        0.082        0.049       14.946       12.666        0.718      334.752        4.932      865.676
03/23/2014  08:09:00       -1.049       16.241       32.185       14.127       17.920       15.226      199.563      321.134      231.827        0.103        0.038       16.275        9.297        0.326      334.894        5.167      865.677
03/23/2014  08:10:00       11.204       24.191       27.113       18.846       19.556       13.982      355.180      382.456      195.502        0.119        0.047       26.660       10.980        0.170      334.637        4.742      865.688
03/23/2014  08:11:00       13.674       26.350       40.941       25.722       17.450       13.100      661.609      304.511      171.607        0.185        0.057       29.687       11.141        0.141      334.718        4.876      865.695
03/23/2014  08:12:00        0.157       36.286       53.513       13.702       22.998       12.255      187.743      528.930      150.191        0.252        0.043       36.286       11.255        0.096      334.799        5.011      865.706
03/23/2014  08:13:00       35.030       48.018       38.067       16.896       16.626       16.065      285.477      276.425      258.075        0.290        0.041       59.438       10.999        0.034      334.423        4.387      865.710
03/23/2014  08:14:00       11.410       24.686       20.602       19.213       18.962       12.274      369.143      359.575      150.656        0.102        0.044       27.195        3.553        0.017      334.604        4.686      865.705
03/23/2014  08:15:00        0.915      -39.341        7.578       29.510       21.016       18.552      870.856      441.655      344.163        0.163        0.083       39.351       12.953        0.108      334.627        4.724      865.700
03/23/2014  08:16:00        1.711      -50.673       19.354       16.034       24.069       19.459      257.098      579.299      378.635        0.208        0.061       50.702       14.097        0.077      334.908        5.190      865.694
03/23/2014  08:17:00       -8.454      -14.477       24.837       21.036       30.015       22.137      442.516      900.885      490.044        0.137        0.092       16.764       20.027        1.427      334.998        5.342      865.685
03/23/2014  08:18:00      -18.022       -5.942       14.682       24.708       10.584       12.178      610.463      112.028      148.309        0.072        0.044       18.976       15.131        0.636      334.762        4.950      865.679
03/23/2014  08:19:00      -35.619      -14.531        2.523       24.823       18.210       12.624      616.178      331.613      159.366        0.130        0.055       38.469        4.673        0.015      334.541        4.582      865.667
03/23/2014  08:20:00      -31.348      -45.192        1.484       23.833       18.450       14.133      567.997      340.395      199.732        0.207        0.055       55.001       13.545        0.061      334.515        4.539      865.673
03/23/2014  08:21:00      -42.759      -29.210       -2.602       23.080       15.522       12.552      532.692      240.924      157.543        0.181        0.047       51.784       13.165        0.065      334.516        4.539      865.673
03/23/2014  08:22:00      -51.956      -26.655       -5.808       10.084       10.422        8.161      101.684      108.615       66.608        0.186        0.014       58.395        4.038        0.005      334.490        4.497      865.676
03/23/2014  08:23:00      -22.458        4.695       -5.899        7.206        9.641        6.135       51.930       92.943       37.641        0.037        0.009       22.944        1.902        0.007      334.528        4.560      865.681
03/23/2014  08:24:00       -4.730       13.608       -0.326        8.636       12.663       18.736       74.575      160.354      351.056        0.040        0.029       14.407        9.677        0.451      334.981        5.313      865.688
03/23/2014  08:25:00       30.502       24.752       10.456       49.542       26.582       23.042     2454.401      706.616      530.931        0.267        0.185       39.281       18.759        0.228      335.014        5.367      865.684
03/23/2014  08:26:00       45.794       24.324       19.674       42.528       22.686       24.991     1808.666      514.645      624.542        0.301        0.147       51.853       24.475        0.223      334.974        5.301      865.685
03/23/2014  08:27:00       76.431       64.959        2.991       29.171       26.944       24.101      850.958      725.963      580.853        0.611        0.108      100.307       13.799        0.019      334.775        4.970      865.691
03/23/2014  08:28:00       89.972       65.946       -2.970       18.683       19.837       20.822      349.061      393.500      433.558        0.681        0.059      111.551       14.526        0.017      334.591        4.664      865.717
03/23/2014  08:29:00       71.045       42.355        0.630       28.969       25.042       21.066      839.184      627.087      443.762        0.438        0.096       82.712        9.193        0.012      334.673        4.802      865.728
03/23/2014  08:30:00       58.503       46.864       15.800       27.969       26.630       30.134      782.289      709.181      908.063        0.413        0.120       74.959       17.686        0.056      334.904        5.184      865.736
03/23/2014  08:31:00       68.203       42.339       22.860       28.809       23.539       27.100      829.987      554.081      734.423        0.454        0.106       80.276       13.729        0.029      334.801        5.013      865.743
03/23/2014  08:32:00       54.191       51.251        4.105       47.015       35.828       25.396     2210.375     1283.624      644.965        0.486        0.207       74.588       23.284        0.097      334.840        5.078      865.750
03/23/2014  08:33:00       70.479       43.000       -2.221       29.981       26.590       19.733      898.865      707.029      389.372        0.441        0.100       82.561       17.151        0.043      334.916        5.204      865.755
03/23/2014  08:34:00       40.769       39.095       -5.081       28.730       28.405       18.523      825.396      806.839      343.117        0.260        0.099       56.485        4.172        0.005      335.017        5.372      865.760
03/23/2014  08:35:00       49.552       57.564       -3.965       26.666       27.356       23.942      711.067      748.324      573.224        0.391        0.102       75.954       17.341        0.052      335.040        5.409      865.758
03/23/2014  08:36:00       29.258       76.382       -6.776       27.600       38.459       24.097      761.785     1479.125      580.665        0.478        0.141       81.794       24.052        0.086      334.963        5.282      865.760
03/23/2014  08:37:00       66.562       34.884        7.924       17.316       18.681       17.072      299.830      348.962      291.445        0.333        0.047       75.149        8.572        0.013      334.705        4.854      865.769
03/23/2014  08:38:00       87.728       58.179        2.913       21.944       16.082       21.137      481.537      258.645      446.758        0.614        0.059      105.266       13.588        0.017      334.657        4.772      865.787
03/23/2014  08:39:00       80.302       46.877       13.373       22.451       26.796       23.766      504.062      718.005      564.807        0.531        0.089       92.983       13.849        0.022      334.660        4.778      865.797
03/23/2014  08:40:00       83.299       28.475        8.449       37.665       32.028       27.567     1418.658     1025.775      759.946        0.551        0.160       88.032       21.747        0.061      334.888        5.158      865.802
03/23/2014  08:41:00       69.396       40.594        4.318       32.660       23.027       27.146     1066.708      530.245      736.917        0.441        0.117       80.397       19.651        0.060      334.972        5.298      865.801
03/23/2014  08:42:00       53.308       29.115       -9.984       20.506       20.461       19.163      420.511      418.664      367.212        0.250        0.060       60.741        8.479        0.019      334.891        5.163      865.798
03/23/2014  08:43:00       41.554       27.454        7.672       30.527       18.269       19.636      931.910      333.755      385.560        0.210        0.083       49.804       11.713        0.055      335.133        5.565      865.800
03/23/2014  08:44:00       26.761       39.816        4.018       22.611       23.546       22.540      511.272      554.417      508.042        0.195        0.079       47.974       15.652        0.106      335.381        5.977      865.795
03/23/2014  08:45:00        7.099       33.801       31.067       24.468       28.608       22.851      598.689      818.435      522.158        0.205        0.097       34.538        8.195        0.056      335.784        6.649      865.795
03/23/2014  08:46:00       39.831       54.385       55.080       48.459       32.370       31.123     2348.248     1047.817      968.634        0.597        0.218       67.411       27.186        0.163      335.442        6.079      865.814
03/23/2014  08:47:00       53.713       65.611       64.835       49.939       43.612       39.675     2493.906     1901.986     1574.124        0.868        0.299       84.793       39.135        0.213      335.252        5.761      865.810
03/23/2014  08:48:00       36.200       67.884       68.273       35.581       39.721       21.996     1266.009     1577.786      483.840        0.695        0.166       76.933       18.096        0.055      335.366        5.952      865.807
03/23/2014  08:49:00       32.985       78.443       51.797       34.746       29.446       33.464     1207.254      867.049     1119.852        0.656        0.160       85.095       14.080        0.027      335.388        5.988      865.808
03/23/2014  08:50:00       58.757       85.337       58.362       45.349       28.515       29.605     2056.501      813.095      876.481        0.894        0.187      103.609       17.495        0.029      335.254        5.765      865.799
03/23/2014  08:51:00      120.099       82.158       48.887       24.591       19.588       30.167      604.701      383.690      910.048        1.273        0.095      145.512       16.800        0.013      334.925        5.218      865.790
03/23/2014  08:52:00       67.311       77.631       46.067       56.576       25.951       38.649     3200.823      673.475     1493.739        0.902        0.268      102.749       32.845        0.102      335.181        5.644      865.786
03/23/2014  08:53:00       64.016       66.175       53.487       39.781       28.084       20.757     1582.527      788.704      430.853        0.707        0.140       92.072       12.885        0.020      335.210        5.692      865.786
03/23/2014  08:54:00       -4.596       31.989       75.074       18.453       38.296       21.182      340.524     1466.586      448.690        0.447        0.113       32.317       24.783        0.588      335.930        6.892      865.787
03/23/2014  08:55:00       -0.967       11.751       57.205       24.713       34.450       23.499      610.709     1186.809      552.215        0.288        0.117       11.791       20.037        2.888      335.936        6.901      865.793
03/23/2014  08:56:00       10.025        2.477       42.556       34.268       36.977       32.325     1174.286     1367.311     1044.884        0.275        0.179       10.327       22.857        4.899      335.933        6.896      865.801
03/23/2014  08:57:00       18.641      -10.325       41.723       25.940       34.066       26.699      672.885     1160.496      712.829        0.237        0.127       21.309       10.152        0.227      335.872        6.796      865.802
03/23/2014  08:58:00       -2.519       14.495       40.974       23.951       25.636       23.744      573.630      657.210      563.754        0.184        0.090       14.713       18.262        1.541      336.086        7.153      865.803
03/23/2014  08:59:00       33.064       43.031       38.856       37.305       25.254       28.626     1391.659      637.774      819.435        0.365        0.142       54.267       24.923        0.211      335.660        6.442      865.816
03/23/2014  09:00:00        2.233       13.943       50.721       24.970       33.362       24.993      623.499     1113.001      624.627        0.257        0.118       14.121       16.994        1.448      336.123        7.215      865.825
03/23/2014  09:01:00       32.229       73.997       76.658       42.269       33.665       20.742     1786.700     1133.343      430.226        0.787        0.168       80.711        9.781        0.015      335.680        6.476      865.829
03/23/2014  09:02:00       61.507       62.713       58.640       46.446       28.229       30.410     2157.191      796.884      924.797        0.752        0.194       87.841       26.247        0.089      335.636        6.401      865.841
03/23/2014  09:03:00       88.348       53.621       28.588       45.442       52.600       33.030     2065.019     2766.744     1091.013        0.871        0.296      103.347       22.273        0.046      335.377        5.970      865.855
03/23/2014  09:04:00       94.997       60.348       -1.899       23.184       29.870       25.659      537.510      892.220      658.371        0.738        0.104      112.545       13.907        0.015      335.274        5.798      865.857
03/23/2014  09:05:00       28.788       12.522        8.216       35.149       35.923       30.772     1235.457     1290.452      946.889        0.226        0.174       31.393       13.326        0.180      335.667        6.453      865.873
03/23/2014  09:06:00      -52.692      -24.482       -0.153       31.160       31.806       28.261      970.945     1011.616      798.673        0.308        0.139       58.102       25.535        0.193      335.645        6.417      865.887
03/23/2014  09:07:00      -16.589       -7.803       14.608       19.766       16.259       18.122      390.709      264.365      328.424        0.077        0.049       18.333       14.380        0.615      336.111        7.195      865.891
03/23/2014  09:08:00      -22.777       10.169        5.320       23.874       22.732       21.552      569.976      516.737      464.507        0.110        0.078       24.944       16.954        0.462      335.906        6.853      865.895
03/23/2014  09:09:00        3.301        1.374       21.930       11.853        8.827       16.002      140.495       77.914      256.061        0.048        0.024        3.576        8.202        5.262      336.382        7.647      865.900
03/23/2014  09:10:00      -13.488      -15.320       10.599       27.786       28.834       16.830      772.087      831.375      283.262        0.121        0.094       20.412       17.981        0.776      336.077        7.138      865.907
03/23/2014  09:11:00     -101.275      -29.793       -7.890       17.306       26.822       12.364      299.493      719.434      152.868        0.619        0.059      105.567        8.032        0.006      335.546        6.252      865.902
03/23/2014  09:12:00      -65.809      -85.993       -1.700       29.204       36.280       20.228      852.895     1316.215      409.160        0.715        0.129      108.284       16.696        0.024      335.627        6.388      865.904
03/23/2014  09:13:00      -91.237      -70.088      -10.352       43.905       41.806       21.285     1927.677     1747.747      453.041        0.874        0.206      115.050       27.758        0.058      335.633        6.398      865.899
03/23/2014  09:14:00      -32.398      -12.634       16.049       35.704       35.404       21.208     1274.800     1253.441      449.788        0.222        0.149       34.774       21.477        0.381      336.143        7.247      865.896
03/23/2014  09:15:00      -66.544      -43.527        0.170       45.504       23.034       20.774     2070.626      530.563      431.544        0.468        0.152       79.516       20.964        0.070      335.826        6.719      865.910
03/23/2014  09:16:00      -73.702      -31.438       -4.425       22.071       21.924       16.442      487.123      480.658      270.349        0.384        0.062       80.127       13.861        0.030      335.720        6.542      865.926
03/23/2014  09:17:00      -36.802      -29.086       -7.494       20.457       25.267       18.119      418.472      638.413      328.300        0.182        0.069       46.908       15.090        0.103      335.872        6.797      865.948
03/23/2014  09:18:00      -36.266      -36.902       -7.016       12.482       24.567        8.476      155.811      603.539       71.846        0.178        0.042       51.740       10.149        0.038      335.721        6.545      865.953
03/23/2014  09:19:00      -76.181       -7.420       -3.889       17.949       15.435       11.340      322.184      238.234      128.593        0.328        0.034       76.542        7.028        0.008      335.828        6.722      865.957
03/23/2014  09:20:00      -42.097       -4.849        2.052       26.052       32.144       12.533      678.716     1033.211      157.075        0.183        0.093       42.375       11.144        0.069      335.996        7.001      865.961
03/23/2014  09:21:00      -60.144       15.167       -2.404       24.442       15.893       13.704      597.418      252.590      187.795        0.245        0.052       62.027        8.356        0.018      335.907        6.853      865.962
03/23/2014  09:22:00      -37.861       20.969       11.767       25.049       31.703       29.392      627.447     1005.079      863.899        0.225        0.125       43.280       21.744        0.252      336.240        7.409      865.963
03/23/2014  09:23:00      -47.052      -12.520        2.478       22.954       20.283       15.091      526.900      411.414      227.749        0.177        0.058       48.690       12.005        0.061      336.134        7.232      865.965
03/23/2014  09:24:00      -43.830      -14.835       -1.341       15.182       24.159       11.131      230.497      583.637      123.893        0.154        0.047       46.273        8.022        0.030      336.058        7.104      865.977
03/23/2014  09:25:00        4.065       43.023       53.310       35.011       37.159       33.968     1225.776     1380.789     1153.826        0.423        0.188       43.215       25.538        0.349      336.757        8.275      865.982
03/23/2014  09:26:00       48.302       52.079       58.265       35.621       31.353       32.020     1268.820      983.015     1025.249        0.586        0.164       71.031       16.639        0.055      336.419        7.708      865.976
03/23/2014  09:27:00      -19.596       28.096       57.249       20.419       36.148       20.712      416.948     1306.683      428.984        0.330        0.108       34.255       22.333        0.425      337.059        8.777      865.993
03/23/2014  09:28:00       21.021       64.585       68.483       38.241       34.414       33.518     1462.401     1184.312     1123.448        0.654        0.189       67.920       24.805        0.133      336.742        8.249      865.994
03/23/2014  09:29:00       43.798       67.485       87.039       48.127       50.759       27.957     2316.213     2576.502      781.594        0.986        0.284       80.452       29.458        0.134      336.568        7.958      865.996
03/23/2014  09:30:00       15.373       29.689       45.080       38.437       50.464       32.402     1477.385     2546.634     1049.901        0.411        0.254       33.433       30.397        0.827      336.712        8.197      866.011
03/23/2014  09:31:00       54.725       65.663       47.251       40.191       37.859       47.462     1615.339     1433.274     2252.630        0.742        0.265       85.477       32.657        0.146      336.251        7.426      866.022
03/23/2014  09:32:00       13.172        5.191       -1.265       39.019       20.697       17.073     1522.451      428.361      291.481        0.122        0.112       14.158       17.531        1.533      336.550        7.927      866.021
03/23/2014  09:33:00       73.141       53.507       41.022       68.993       44.716       46.060     4760.016     1999.501     2121.542        0.939        0.444       90.623       28.674        0.100      336.641        8.080      866.029
03/23/2014  09:34:00       86.261       70.667       16.089       42.380       37.649       38.503     1796.085     1417.463     1482.477        0.869        0.235      111.511       25.070        0.051      336.507        7.857      866.049
03/23/2014  09:35:00       48.620       53.786        0.079       45.608       40.089       23.119     2080.073     1607.093      534.506        0.474        0.211       72.504       14.363        0.039      336.257        7.436      866.058
03/23/2014  09:36:00      -16.063       28.526       40.390       29.938       34.916       30.909      896.296     1219.114      955.362        0.289        0.154       32.738       25.191        0.592      336.909        8.528      866.061
03/23/2014  09:37:00       42.555       68.065       73.552       54.954       52.523       34.330     3019.915     2758.691     1178.540        0.940        0.348       80.273       31.911        0.158      336.806        8.355      866.058
03/23/2014  09:38:00       16.906       75.582       50.492       41.325       46.094       49.389     1707.746     2124.647     2439.279        0.741        0.314       77.449       43.511        0.316      336.893        8.500      866.048
03/23/2014  09:39:00       65.663       85.509       46.676       55.686       29.353       47.248     3100.914      861.576     2232.398        1.000        0.310      107.812       37.945        0.124      336.739        8.244      866.057
03/23/2014  09:40:00       31.503       23.810       12.607       53.787       51.077       29.351     2893.011     2608.870      861.477        0.404        0.318       39.488       12.101        0.094      336.883        8.483      866.053
03/23/2014  09:41:00       16.238      -16.295       19.142       38.286       53.839       32.378     1465.847     2898.599     1048.321        0.315        0.271       23.005       24.715        1.154      337.059        8.779      866.060
03/23/2014  09:42:00       28.254      -43.380       35.913       39.426       74.906       46.924     1554.381     5610.842     2201.862        0.667        0.468       51.770       35.048        0.458      337.277        9.142      866.065
03/23/2014  09:43:00       22.153      -33.792       18.897       45.491       46.902       32.957     2069.424     2199.776     1086.191        0.367        0.268       40.407       25.145        0.387      337.145        8.922      866.079
03/23/2014  09:44:00       79.354       30.641       22.739       39.574       43.829       36.562     1566.106     1920.942     1336.763        0.629        0.241       85.064       24.171        0.081      336.738        8.241      866.073
03/23/2014  09:45:00       48.309        9.636       33.119       36.431       61.998       39.090     1327.211     3843.773     1528.059        0.511        0.335       49.261       36.932        0.562      336.920        8.545      866.071
03/23/2014  09:46:00       28.844       19.219       35.162       27.042       40.103       30.121      731.269     1608.223      907.250        0.284        0.162       34.661       25.859        0.557      337.087        8.825      866.072
03/23/2014  09:47:00       76.874       42.014       37.329       57.350       59.365       55.750     3288.987     3524.208     3108.020        0.949        0.496       87.606       27.126        0.096      336.910        8.529      866.065
03/23/2014  09:48:00        5.489      -36.478        3.354       24.672       45.056       38.080      608.696     2030.032     1450.096        0.273        0.204       36.889       28.135        0.582      337.284        9.153      866.072
03/23/2014  09:49:00       66.336      -57.449        1.005       53.024       74.024       46.898     2811.550     5479.612     2199.460        0.909        0.525       87.755       46.914        0.286      337.339        9.246      866.081
03/23/2014  09:50:00       37.804      -31.818       42.478       38.263       87.416       47.160     1464.084     7641.481     2224.113        0.779        0.566       49.412       52.912        1.147      337.383        9.322      866.089
03/23/2014  09:51:00       31.425       16.379       66.404       50.760       74.099       35.596     2576.589     5490.591     1267.042        0.750        0.467       35.437       39.409        1.237      337.427        9.393      866.091
03/23/2014  09:52:00       14.598       50.281       77.855       33.481       36.504       20.984     1120.958     1332.567      440.320        0.585        0.145       52.357       12.165        0.054      337.416        9.376      866.085
03/23/2014  09:53:00       -2.357       55.846       89.441       28.082       49.157       32.059      788.617     2416.444     1027.795        0.768        0.212       55.896       28.749        0.265      337.600        9.684      866.072
03/23/2014  09:54:00       39.084      -17.560       32.545       69.288       70.103       66.559     4800.773     4914.373     4430.162        0.852        0.707       42.847       57.479        1.800      337.315        9.207      866.054
03/23/2014  09:55:00       26.833      -54.771       25.799       39.629       52.147       47.171     1570.441     2719.288     2225.097        0.545        0.326       60.991       32.512        0.284      337.465        9.457      866.048
03/23/2014  09:56:00       21.699       51.492       78.639       44.078       38.917       27.199     1942.866     1514.515      739.802        0.675        0.210       55.878       20.675        0.137      337.448        9.429      866.048
03/23/2014  09:57:00       52.314       38.929       26.573       47.541       31.885       28.447     2260.173     1016.662      809.218        0.452        0.204       65.209       25.790        0.156      337.139        8.911      866.039
03/23/2014  09:58:00       15.303       33.184       55.120       30.691       49.348       35.114      941.956     2435.212     1233.007        0.449        0.231       36.543       29.183        0.638      337.746        9.928      866.040
03/23/2014  09:59:00      142.156      114.698       34.612       51.433       42.430       43.408     2645.381     1800.318     1884.272        2.044        0.316      182.658       14.458        0.006      336.985        8.651      866.039
03/23/2014  10:00:00      156.702      115.531       39.587       38.278       36.269       46.408     1465.240     1315.414     2153.676        2.220        0.247      194.686       13.348        0.005      336.883        8.482      866.035
03/23/2014  10:01:00      125.688       94.745       -5.153       41.908       35.533       32.825     1756.293     1262.614     1077.490        1.445        0.205      157.398       20.380        0.017      337.063        8.785      866.043
03/23/2014  10:02:00       88.407       25.495       26.020       47.243       56.350       40.061     2231.878     3175.343     1604.849        0.808        0.351       92.010       27.852        0.092      337.431        9.401      866.053
03/23/2014  10:03:00       24.732       10.140       55.523       69.238       89.036       33.020     4793.847     7927.366     1090.335        0.880        0.691       26.730       37.815        2.001      337.403        9.353      866.053
03/23/2014  10:04:00       21.020       -2.026       30.028       43.551       50.134       41.520     1896.679     2513.414     1723.878        0.374        0.307       21.118       28.911        1.874      337.672        9.805      866.051
03/23/2014  10:05:00       51.493       67.134       48.789       67.906       53.813       45.437     4611.200     2895.792     2064.512        0.955        0.479       84.608       39.385        0.217      337.608        9.697      866.060
03/23/2014  10:06:00       74.799       38.703        1.950       77.295       65.468       43.285     5974.530     4286.006     1873.586        0.961        0.607       84.218       20.974        0.062      337.334        9.238      866.059
03/23/2014  10:07:00      121.119       90.727       27.769       79.225       44.524       50.826     6276.539     1982.394     2583.333        1.726        0.542      151.332       24.322        0.026      337.512        9.535      866.058
03/23/2014  10:08:00       97.726       82.500       39.560       56.106       45.457       49.328     3147.855     2066.362     2433.251        1.278        0.382      127.893       26.291        0.042      337.520        9.548      866.064
03/23/2014  10:09:00      114.999      114.422      104.058       54.261       56.773       47.501     2944.266     3223.170     2256.344        2.278        0.421      162.226       40.160        0.061      337.357        9.274      866.059
03/23/2014  10:10:00      142.645       85.367       30.332       48.638       53.643       34.996     2365.643     2877.586     1224.729        1.751        0.323      166.238       16.546        0.010      337.057        8.774      866.062
03/23/2014  10:11:00      105.332       91.023       10.230       36.843       29.790       28.369     1357.399      887.438      804.799        1.127        0.152      139.212       14.352        0.011      337.172        8.966      866.068
03/23/2014  10:12:00       83.367       76.120       67.988       57.771       41.911       35.441     3337.501     1756.565     1256.066        1.186        0.318      112.890       21.693        0.037      337.580        9.650      866.065
03/23/2014  10:13:00       17.380       37.424       62.024       43.827       43.993       33.333     1920.767     1935.371     1111.107        0.526        0.248       41.263       28.138        0.465      337.783        9.990      866.086
03/23/2014  10:14:00       17.399       32.042       71.775       39.410       38.181       23.054     1553.164     1457.772      531.475        0.501        0.177       36.461       23.778        0.425      337.792       10.006      866.084
03/23/2014  10:15:00       45.659       53.922       41.668       40.926       40.396       43.354     1674.978     1631.813     1879.544        0.596        0.259       70.656       24.087        0.116      337.689        9.833      866.097
03/23/2014  10:16:00       40.688       45.548       16.556       46.390       39.742       40.622     2152.011     1579.441     1650.153        0.469        0.269       61.075       24.510        0.161      337.876       10.147      866.095
03/23/2014  10:17:00       22.317       16.381       54.935       38.170       55.488       39.341     1456.955     3078.874     1547.720        0.493        0.304       27.683       20.651        0.557      338.050       10.439      866.101
03/23/2014  10:18:00       45.310       76.019       89.924       59.362       48.278       34.647     3523.870     2330.718     1200.395        1.149        0.353       88.498       36.014        0.166      337.766        9.963      866.105
03/23/2014  10:19:00       43.970       32.636       56.048       56.327       55.463       45.805     3172.737     3076.132     2098.112        0.724        0.417       54.758       46.319        0.716      337.936       10.247      866.114
03/23/2014  10:20:00      123.571      132.053       89.341       91.326       46.125       51.897     8340.437     2127.547     2693.270        2.692        0.658      180.853       55.296        0.093      337.418        9.377      866.105
03/23/2014  10:21:00       40.345       69.242       69.728       53.088       45.557       43.262     2818.342     2075.447     1871.596        0.902        0.338       80.138       35.363        0.195      337.809       10.034      866.115
03/23/2014  10:22:00       43.351      -10.339       57.855       48.679      104.579       53.345     2369.628    10936.690     2845.656        1.074        0.808       44.567       63.103        2.005      338.131       10.574      866.134
03/23/2014  10:23:00       52.240      -82.483        8.393       27.928       65.201       32.163      779.992     4251.135     1034.450        0.783        0.303       97.635       33.254        0.116      337.537        9.578      866.143
03/23/2014  10:24:00       24.602       34.924        7.196       29.931       33.923       24.620      895.867     1150.766      606.155        0.226        0.133       42.720       13.068        0.094      337.878       10.150      866.158
03/23/2014  10:25:00       51.478       34.723        7.138       56.918       36.218       31.710     3239.712     1311.719     1005.555        0.473        0.278       62.094       16.211        0.068      338.097       10.517      866.153
03/23/2014  10:26:00       20.198       33.985       44.213       43.465       40.191       37.176     1889.202     1615.284     1382.039        0.420        0.244       39.534       25.498        0.416      338.720       11.564      866.165
03/23/2014  10:27:00       -2.365       30.286       45.072       33.046       60.936       52.838     1092.043     3713.171     2791.845        0.527        0.380       30.378       36.404        1.436      338.425       11.068      866.173
03/23/2014  10:28:00       72.399       92.575       50.325       58.413       49.438       40.736     3412.104     2444.085     1659.447        1.193        0.376      117.523       33.997        0.084      338.139       10.588      866.188
03/23/2014  10:29:00       19.161       40.346       74.389       30.933       31.609       23.248      956.833      999.135      540.474        0.501        0.125       44.664       18.854        0.178      338.247       10.770      866.202
03/23/2014  10:30:00       60.584       39.392       37.280       41.508       57.028       40.100     1722.912     3252.238     1608.046        0.660        0.329       72.264       24.933        0.119      337.997       10.350      866.204
03/23/2014  10:31:00      113.122       97.408       15.734       63.212       45.835       45.598     3995.780     2100.802     2079.173        1.535        0.409      149.281       19.894        0.018      338.119       10.553      866.205
03/23/2014  10:32:00      159.506      109.195       28.209       83.327       54.737       56.908     6943.313     2996.154     3238.526        2.567        0.659      193.302       55.900        0.084      337.743        9.920      866.212
03/23/2014  10:33:00      165.587      112.414        2.394       53.992       71.356       53.225     2915.131     5091.684     2832.924        2.545        0.542      200.140       37.432        0.035      337.636        9.741      866.225
03/23/2014  10:34:00      169.572      139.331       26.122       44.852       49.035       47.296     2011.710     2404.433     2236.906        2.775        0.333      219.472       19.604        0.008      337.572        9.634      866.230
03/23/2014  10:35:00      152.100      101.789        5.000       45.885       41.498       46.622     2105.422     1722.046     2173.648        1.976        0.300      183.018       27.691        0.023      337.733        9.904      866.224
03/23/2014  10:36:00       -6.803      103.050      122.497       51.869       59.015       49.283     2690.344     3482.769     2428.792        1.713        0.430      103.274       42.626        0.170      338.324       10.898      866.208
03/23/2014  10:37:00       34.671      108.615      103.441       73.186       62.571       59.992     5356.249     3915.135     3599.074        1.828        0.644      114.015       52.180        0.209      338.093       10.510      866.206
03/23/2014  10:38:00       77.289       52.549       12.103       44.572       36.436       35.446     1986.695     1327.572     1256.411        0.673        0.229       93.461       12.488        0.018      338.115       10.548      866.215
03/23/2014  10:39:00       67.959       55.125       15.563       80.052       48.967       41.958     6408.253     2397.762     1760.464        0.923        0.528       87.505       33.795        0.149      338.275       10.816      866.226
03/23/2014  10:40:00       72.916       62.410       75.544       80.896       52.587       63.821     6544.148     2765.364     4073.125        1.415        0.669       95.978       47.934        0.249      338.160       10.622      866.221
03/23/2014  10:41:00       86.696       65.463       61.748       57.146       50.424       41.549     3265.634     2542.559     1726.358        1.157        0.377      108.635       32.852        0.091      338.238       10.753      866.222
03/23/2014  10:42:00       74.453     -115.141       22.339       69.996       88.743       48.332     4899.461     7875.397     2335.965        1.720        0.756      137.116       47.079        0.118      338.311       10.877      866.224
03/23/2014  10:43:00       46.443      -30.814       46.636       65.421       92.688       64.852     4279.846     8591.112     4205.806        1.118        0.854       55.735       74.182        1.772      338.661       11.464      866.219
03/23/2014  10:44:00       18.465       38.120       60.360       41.527       46.953       41.449     1724.513     2204.559     1718.041        0.554        0.282       42.357       32.317        0.582      338.529       11.242      866.220
03/23/2014  10:45:00       38.321       41.262       70.520       57.238       83.957       52.232     3276.137     7048.741     2728.147        1.060        0.653       56.312       62.753        1.242      338.411       11.045      866.213
03/23/2014  10:46:00       13.319       20.402       83.220       39.931       83.589       54.407     1594.465     6987.121     2960.101        0.953        0.577       24.364       51.666        4.497      338.769       11.646      866.203
03/23/2014  10:47:00       22.938       78.389      116.934       45.535       70.679       42.003     2073.417     4995.544     1764.238        1.459        0.442       81.676       47.428        0.337      338.773       11.652      866.172
03/23/2014  10:48:00       24.696       42.855       93.628       49.853       93.324       37.817     2485.324     8709.457     1430.146        1.192        0.631       49.462       23.820        0.232      338.606       11.372      866.177
03/23/2014  10:49:00      124.290      104.279       58.961       51.457       35.880       45.926     2647.776     1287.373     2109.197        1.792        0.302      162.241       30.977        0.036      337.983       10.326      866.163
03/23/2014  10:50:00      123.890       76.617       31.675       40.828       45.436       41.176     1666.889     2064.448     1695.471        1.382        0.271      145.668       31.003        0.045      337.990       10.337      866.153
03/23/2014  10:51:00       78.101       54.398       10.431       38.788       37.574       34.915     1504.473     1411.783     1219.059        0.665        0.207       95.178       14.726        0.024      338.346       10.935      866.124
03/23/2014  10:52:00       65.115       25.398       44.622       45.212       51.331       33.629     2044.118     2634.887     1130.894        0.634        0.290       69.893       26.554        0.144      338.695       11.521      866.100
03/23/2014  10:53:00       31.931      126.815      114.439       52.387       49.353       42.362     2744.353     2435.747     1794.557        1.859        0.349      130.774       26.665        0.042      338.781       11.666      866.087
03/23/2014  10:54:00       72.795      -62.087       35.906      113.959      141.349       57.486    12986.696    19979.609     3304.657        2.335        1.814       95.676       59.126        0.382      338.381       10.993      866.097
03/23/2014  10:55:00       84.984       45.615       57.481       75.009       75.411       42.445     5626.290     5686.826     1801.611        1.286        0.656       96.452       46.489        0.232      338.440       11.093      866.116
03/23/2014  10:56:00       63.328      -27.715       29.038       56.690      102.016       66.181     3213.714    10407.278     4379.886        1.181        0.900       69.127       72.927        1.113      338.805       11.707      866.127
03/23/2014  10:57:00      178.131     -168.947        1.504       93.957      100.504       55.586     8827.887    10101.122     3089.773        4.114        1.101      245.507       48.295        0.039      338.349       10.938      866.125
03/23/2014  10:58:00       60.453        4.594       58.216       73.079      108.326       79.551     5340.582    11734.513     6328.433        1.523        1.170       60.627       88.024        2.108      338.608       11.374      866.154
03/23/2014  10:59:00       19.705      -49.770       26.069       32.538       82.010       46.348     1058.744     6725.673     2148.179        0.674        0.497       53.528       54.344        1.031      338.499       11.193      866.162
03/23/2014  11:00:00        7.071       56.775       93.560       38.781       58.338       43.698     1503.987     3403.335     1909.526        0.942        0.341       57.214       47.616        0.693      338.722       11.566      866.174
03/23/2014  11:01:00       26.398      -75.826       14.196       36.459       52.263       33.518     1329.289     2731.407     1123.451        0.592        0.259       80.290       20.462        0.065      338.880       11.832      866.182
03/23/2014  11:02:00       79.523       97.214       90.125       74.487       73.696       63.887     5548.254     5431.164     4081.511        1.948        0.753      125.597       54.800        0.190      339.056       12.128      866.182
03/23/2014  11:03:00      121.113      134.293      100.179       84.712       48.700       62.226     7176.160     2371.653     3872.085        2.808        0.671      180.840       59.872        0.110      338.482       11.160      866.185
03/23/2014  11:04:00      151.950      142.274       39.670       65.155       43.896       54.610     4245.123     1926.830     2982.298        2.703        0.458      208.160       33.387        0.026      338.082       10.489      866.183
03/23/2014  11:05:00       54.416      103.755      121.582       77.725       65.037       61.247     6041.108     4229.847     3751.152        2.126        0.701      117.159       56.577        0.233      338.791       11.682      866.158
03/23/2014  11:06:00      102.052     -114.795       10.724       54.115       71.924       49.309     2928.455     5173.125     2431.414        1.712        0.527      153.598       46.192        0.090      338.613       11.383      866.159
03/23/2014  11:07:00       63.554      -45.763       30.977       58.468       85.090       42.566     3418.524     7240.325     1811.844        0.978        0.624       78.316       52.669        0.452      338.877       11.828      866.155
03/23/2014  11:08:00       39.034      -10.495       32.432       54.816       83.617       38.625     3004.847     6991.764     1491.900        0.709        0.574       40.420       45.364        1.260      339.018       12.065      866.149
03/23/2014  11:09:00       79.790      -41.442       22.519       77.834       83.703       58.879     6058.066     7006.273     3466.791        1.256        0.827       89.910       64.378        0.513      338.924       11.908      866.164
03/23/2014  11:10:00       18.915       15.640       63.917       48.862       75.838       52.711     2387.505     5751.442     2778.485        0.780        0.546       24.543       49.656        4.093      339.251       12.456      866.164
03/23/2014  11:11:00       81.354       47.459       31.109       63.018       58.463       38.171     3971.291     3417.885     1457.037        0.934        0.442       94.185       19.711        0.044      339.062       12.139      866.172
03/23/2014  11:12:00      114.317       62.821        6.434       59.950       45.632       39.692     3593.989     2082.290     1575.439        1.215        0.363      130.441       26.773        0.042      338.993       12.023      866.178
03/23/2014  11:13:00       55.314       35.630       16.823       49.386       33.608       32.788     2438.931     1129.530     1075.058        0.463        0.232       65.796       10.436        0.025      339.112       12.222      866.165
03/23/2014  11:14:00      110.912       68.719       16.009       69.913       47.001       40.049     4887.787     2209.068     1603.908        1.299        0.435      130.476       31.828        0.060      339.119       12.233      866.158
03/23/2014  11:15:00      105.206       79.980        0.038       71.172       47.745       38.288     5065.425     2279.606     1465.959        1.314        0.441      132.155       26.641        0.041      338.871       11.818      866.131
03/23/2014  11:16:00      122.185       81.143       24.739       61.105       44.208       40.655     3733.796     1954.331     1652.867        1.473        0.367      146.675       16.857        0.013      339.031       12.086      866.118
03/23/2014  11:17:00       23.631       47.964       24.450       53.560       38.234       28.502     2868.676     1461.815      812.340        0.430        0.257       53.469       16.138        0.091      339.181       12.339      866.110
03/23/2014  11:18:00       38.550       28.806       23.616       45.923       40.845       32.011     2108.877     1668.320     1024.725        0.384        0.240       48.124       24.282        0.255      339.332       12.595      866.090
03/23/2014  11:19:00      -24.301       -5.315       25.145       30.179       54.450       37.433      910.779     2964.853     1401.226        0.326        0.264       24.876       34.496        1.923      339.673       13.167      866.085
03/23/2014  11:20:00       -9.874       -1.095       72.552       29.680       50.715       30.255      880.895     2571.989      915.361        0.486        0.218        9.935       28.545        8.256      340.065       13.830      866.082
03/23/2014  11:21:00      -12.837       20.718       73.352       19.972       56.004       40.233      398.862     3136.409     1618.711        0.556        0.258       24.373       42.200        2.998      339.831       13.435      866.087
03/23/2014  11:22:00       13.718      -19.174       41.934       33.773       41.844       31.721     1140.612     1750.886     1006.210        0.311        0.195       23.576       31.872        1.828      339.732       13.268      866.092
03/23/2014  11:23:00       61.695       77.958       55.395       63.560       72.271       43.809     4039.816     5223.169     1919.230        1.207        0.559       99.416       39.743        0.160      339.341       12.608      866.072
03/23/2014  11:24:00        2.208       20.975       66.375       59.497       73.770       57.788     3539.868     5441.956     3339.490        0.858        0.616       21.090       53.092        6.337      339.885       13.525      866.066
03/23/2014  11:25:00       29.152       39.441       77.646       56.850       59.449       59.806     3231.922     3534.238     3576.717        0.939        0.517       49.045       40.383        0.678      339.786       13.357      866.061
03/23/2014  11:26:00       85.854       85.574       49.347       69.349       41.853       61.770     4809.321     1751.665     3815.522        1.375        0.519      121.218       54.620        0.203      339.286       12.515      866.063
03/23/2014  11:27:00       44.831       67.799      105.810       79.648       93.552       62.255     6343.724     8751.888     3875.687        1.838        0.949       81.281       64.468        0.629      339.654       13.135      866.048
03/23/2014  11:28:00      150.064       78.733       17.154       70.073       51.259       48.141     4910.205     2627.486     2317.517        1.943        0.493      169.464       37.874        0.050      339.071       12.152      866.064
03/23/2014  11:29:00       93.236       99.095       51.247       77.079       57.708       58.145     5941.240     3330.237     3380.885        1.689        0.633      136.061       25.135        0.034      339.369       12.655      866.053
03/23/2014  11:30:00       54.680       83.284      110.577       56.877       63.418       35.684     3234.997     4021.906     1273.370        1.534        0.427       99.630       30.371        0.093      339.555       12.967      866.050
03/23/2014  11:31:00       -1.281       15.534       57.651       32.523       46.557       32.362     1057.722     2167.565     1047.276        0.392        0.214       15.586       29.025        3.468      339.726       13.257      866.043
03/23/2014  11:32:00       31.542       53.847        9.908       48.212       38.985       32.669     2324.351     1519.842     1067.277        0.445        0.246       62.405       25.948        0.173      339.518       12.906      866.036
03/23/2014  11:33:00       11.231      -28.373       17.085       35.698       65.949       25.294     1274.349     4349.323      639.798        0.374        0.313       30.515       29.828        0.955      340.056       13.814      866.026
03/23/2014  11:34:00       70.254      -83.282       21.417       53.413      115.236       40.107     2852.987    13279.343     1608.577        1.503        0.887      108.956       52.603        0.233      339.533       12.932      866.008
03/23/2014  11:35:00       34.576       31.038       85.931       52.955      117.296       56.134     2804.243    13758.257     3151.001        1.462        0.986       46.464       61.140        1.731      340.025       13.762      865.982
03/23/2014  11:36:00       88.463       83.986       33.648       76.233       49.811       62.335     5811.539     2481.150     3885.592        1.409        0.609      121.981       53.518        0.192      339.390       12.689      865.990
03/23/2014  11:37:00       89.045       35.688       49.333       67.259       80.970       56.453     4523.812     6556.120     3186.995        1.295        0.713       95.930       54.009        0.317      339.552       12.964      865.971
03/23/2014  11:38:00      178.114      111.927       24.408       91.950       71.287       67.150     8454.805     5081.886     4509.160        3.144        0.902      210.362       49.562        0.056      339.155       12.292      865.975
03/23/2014  11:39:00      109.236       67.322       22.688       59.986       57.953       38.753     3598.300     3358.531     1501.757        1.272        0.423      128.315       28.436        0.049      339.519       12.908      865.973
03/23/2014  11:40:00       50.534      106.849      -11.028       46.548       54.394       32.518     2166.680     2958.726     1057.403        1.014        0.309      118.197       33.336        0.080      339.366       12.652      865.970
03/23/2014  11:41:00       73.997       69.837        4.265       52.412       40.190       43.495     2746.975     1615.267     1891.847        0.831        0.313      101.748       32.672        0.103      339.612       13.063      865.957
03/23/2014  11:42:00       24.808       17.774       37.628       89.792       60.262       46.398     8062.589     3631.507     2152.788        0.809        0.692       30.518       37.218        1.487      340.190       14.040      865.950
03/23/2014  11:43:00       48.675       70.395      103.809       89.092       75.523       66.463     7937.313     5703.700     4417.276        1.808        0.903       85.584       58.771        0.472      340.129       13.935      865.942
03/23/2014  11:44:00      158.942       54.606        8.666       91.768       74.617       63.793     8421.388     5567.672     4069.600        2.319        0.903      168.061       41.720        0.062      339.757       13.308      865.953
03/23/2014  11:45:00      110.494       72.642       76.953       99.966       85.421       46.406     9993.275     7296.720     2153.561        2.142        0.972      132.234       43.005        0.106      339.956       13.644      865.944
03/23/2014  11:46:00       36.911      -87.285       -1.980       39.375       61.768       34.207     1550.386     3815.283     1170.089        0.776        0.327       94.768       39.111        0.170      339.715       13.240      865.938
03/23/2014  11:47:00        3.383      -44.562       11.685       38.028       51.637       29.780     1446.153     2666.370      886.849        0.357        0.250       44.690       22.725        0.259      340.223       14.096      865.917
03/23/2014  11:48:00       21.188        5.691       16.329       39.300       58.836       31.098     1544.518     3461.657      967.069        0.336        0.299       21.939       24.612        1.259      340.187       14.036      865.890
03/23/2014  11:49:00      150.810       79.661       45.143      113.164       66.761       64.984    12805.980     4457.046     4222.863        2.630        1.074      170.556       54.938        0.104      339.830       13.432      865.878
03/23/2014  11:50:00       23.054       37.149       28.326       40.127       37.869       38.498     1610.138     1434.039     1482.097        0.362        0.226       43.722       17.077        0.153      340.223       14.097      865.861
03/23/2014  11:51:00       83.593       66.231       38.772       36.602       45.250       39.425     1339.717     2047.530     1554.297        0.891        0.247      106.651       28.379        0.071      339.679       13.178      865.838
03/23/2014  11:52:00       77.016       62.092       52.680       74.934       43.736       35.347     5615.141     1912.876     1249.407        1.067        0.439       98.929       34.076        0.119      340.113       13.909      865.807
03/23/2014  11:53:00       28.218       50.900       79.559       63.277       73.750       49.113     4004.019     5439.032     2412.134        1.078        0.593       58.198       47.630        0.670      339.951       13.636      865.785
03/23/2014  11:54:00       56.127       61.401       50.588       66.521       49.885       46.391     4425.077     2488.465     2152.089        0.927        0.453       83.189       43.511        0.274      340.170       14.006      865.761
03/23/2014  11:55:00      111.432       72.237       44.511       89.861       80.913       54.139     8074.994     6546.844     2931.043        1.858        0.878      132.797       35.360        0.071      340.074       13.842      865.738
03/23/2014  11:56:00      138.063      114.161       97.422      124.418       83.018       64.246    15479.927     6891.914     4127.489        3.404        1.325      179.148       60.211        0.113      340.029       13.766      865.714
03/23/2014  11:57:00      220.755      108.673       20.431       68.193       55.257       51.516     4650.305     3053.357     2653.860        3.566        0.518      246.055       19.899        0.007      339.489       12.853      865.717
03/23/2014  11:58:00      202.294      109.373       30.607       85.103       69.307       59.242     7242.513     4803.399     3509.646        3.469        0.778      229.968       36.361        0.025      339.757       13.305      865.711
03/23/2014  11:59:00      163.154      111.873       49.358       62.392       46.420       55.535     3892.702     2154.773     3084.161        2.535        0.457      197.825       16.272        0.007      339.721       13.245      865.698
03/23/2014  12:00:00      162.063      109.789       20.721       69.456       52.747       50.737     4824.145     2782.238     2574.241        2.446        0.509      195.749       33.903        0.030      339.725       13.253      865.700
03/23/2014  12:01:00       71.862       91.199       50.367       52.529       57.739       61.345     2759.276     3333.752     3763.187        1.294        0.493      116.109       39.830        0.118      340.030       13.769      865.686
03/23/2014  12:02:00       12.543      109.558      123.051       40.297       52.060       37.333     1623.814     2710.259     1393.744        1.651        0.286      110.274       36.551        0.110      340.198       14.052      865.674
03/23/2014  12:03:00       92.105      174.917      136.692       65.373       49.474       41.878     4273.628     2447.700     1753.794        3.312        0.424      197.685       38.199        0.037      339.770       13.327      865.654
03/23/2014  12:04:00       94.597      118.412       97.566       45.270       47.969       39.803     2049.372     2301.061     1584.318        1.921        0.297      151.558       25.758        0.029      339.736       13.274      865.639
03/23/2014  12:05:00      109.185       66.988       32.024       44.996       53.173       32.501     2024.683     2827.391     1056.302        1.167        0.295      128.097       19.089        0.022      339.961       13.652      865.627
03/23/2014  12:06:00      -12.163       39.229       11.856       27.959       42.162       32.345      781.692     1777.670     1046.191        0.272        0.180       41.071       18.646        0.206      340.372       14.348      865.605
03/23/2014  12:07:00        3.116      -59.350       20.178       44.997       46.890       31.582     2024.691     2198.691      997.436        0.458        0.261       59.432       24.086        0.164      340.423       14.434      865.595
03/23/2014  12:08:00       35.143      -65.658        1.185       48.888      102.066       53.063     2390.022    10417.486     2815.641        1.058        0.781       74.471       55.235        0.550      340.481       14.531      865.549
03/23/2014  12:09:00       61.620     -131.471       15.617       67.798       72.012       60.296     4596.510     5185.720     3635.606        1.737        0.671      145.195       53.108        0.134      340.263       14.161      865.515
03/23/2014  12:10:00       13.217      -18.655       48.917       40.190       68.723       47.737     1615.260     4722.818     2278.838        0.576        0.431       22.863       28.268        1.529      340.859       15.171      865.490
03/23/2014  12:11:00      -53.364     -112.302        5.078       51.811       81.836       54.267     2684.380     6697.082     2944.903        1.390        0.616      124.336       34.253        0.076      340.427       14.439      865.448
03/23/2014  12:12:00      -33.802      -57.159       15.137       60.475       62.321       39.304     3657.170     3883.853     1544.808        0.686        0.454       66.406       27.946        0.177      340.350       14.311      865.440
03/23/2014  12:13:00      -36.158      -55.992        3.117       55.800       43.551       23.006     3113.682     1896.723      529.286        0.500        0.277       66.652       15.599        0.055      340.278       14.189      865.431
03/23/2014  12:14:00        6.960        5.981       12.097       78.379       49.165       36.348     6143.209     2417.205     1321.175        0.505        0.494        9.177       34.271       13.947      340.569       14.680      865.420
03/23/2014  12:15:00       62.401      -18.185       35.116       46.773       94.832       36.973     2187.746     8993.182     1366.971        0.900        0.627       64.997       46.732        0.517      340.696       14.895      865.424
03/23/2014  12:16:00       21.269      -15.351       11.741       46.786       52.430       47.352     2188.939     2748.859     2242.232        0.400        0.359       26.231       29.282        1.246      340.953       15.330      865.429
03/23/2014  12:17:00      -44.085       -7.376       14.232       53.043       34.815       32.225     2813.538     1212.074     1038.440        0.363        0.253       44.698       24.221        0.294      340.944       15.314      865.429
03/23/2014  12:18:00      -14.268       -3.072       52.072       24.766       46.786       35.808      613.377     2188.960     1282.237        0.350        0.204       14.595       35.137        5.796      340.946       15.319      865.433
03/23/2014  12:19:00        9.041      -63.274       13.025       67.638       50.077       40.539     4574.964     2507.682     1643.388        0.649        0.436       63.917       30.482        0.227      340.429       14.444      865.446
03/23/2014  12:20:00      -56.985      -58.597        8.852       45.731       70.885       43.666     2091.333     5024.715     1906.695        0.789        0.451       81.737       43.112        0.278      340.368       14.339      865.443
03/23/2014  12:21:00        0.618      -89.576       -3.832       40.946       55.565       22.512     1676.599     3087.496      506.771        0.665        0.264       89.578       18.874        0.044      339.739       13.278      865.439
03/23/2014  12:22:00      -62.074      -24.521        9.157       58.242       32.516       23.782     3392.186     1057.292      565.571        0.478        0.251       66.742       30.635        0.211      340.448       14.477      865.442
03/23/2014  12:23:00      -29.636      -38.493       -4.939       57.106       52.042       32.073     3261.111     2708.384     1028.678        0.469        0.350       48.580       32.177        0.439      340.077       13.849      865.434
03/23/2014  12:24:00      -16.456       16.509       34.813       16.779       22.679       13.735      281.531      514.323      188.654        0.137        0.049       23.310        4.331        0.035      341.014       15.432      865.439
03/23/2014  12:25:00      -14.380        6.357       15.488       57.755       51.954       35.847     3335.615     2699.226     1285.033        0.390        0.366       15.722       30.643        3.799      340.486       14.540      865.414
03/23/2014  12:26:00      -75.323      -35.995       12.094       48.071       73.446       35.240     2310.781     5394.337     1241.880        0.803        0.447       83.481       28.996        0.121      340.404       14.400      865.374
03/23/2014  12:27:00      -56.667       -4.863       -0.422       39.477       43.830       33.105     1558.448     1921.109     1095.942        0.390        0.229       56.875       22.868        0.162      340.350       14.310      865.376
03/23/2014  12:28:00       62.688      -97.333       25.226       77.572      103.824       65.047     6017.406    10779.320     4231.152        1.753        1.051      115.773       57.002        0.242      340.701       14.901      865.348
03/23/2014  12:29:00       28.267      -46.018       79.493       59.770       92.619       59.989     3572.488     8578.227     3598.654        1.249        0.787       54.007       54.401        1.015      340.885       15.215      865.337
03/23/2014  12:30:00       64.265      -85.149       15.977       77.256      117.811       68.075     5968.547    13879.444     4634.178        1.805        1.224      106.679       73.897        0.480      340.579       14.696      865.345
03/23/2014  12:31:00       -4.111      -64.964        5.634       36.017       60.642       32.211     1297.216     3677.450     1037.573        0.514        0.301       65.094       30.759        0.223      340.622       14.768      865.338
03/23/2014  12:32:00       19.179       -1.002       46.268       38.532       81.387       47.062     1484.684     6623.903     2214.790        0.641        0.516       19.205       55.556        8.368      341.225       15.789      865.322
03/23/2014  12:33:00      -30.662      -58.017        6.513       51.569       46.832       32.085     2659.341     2193.220     1029.479        0.511        0.294       65.621       32.714        0.249      340.855       15.164      865.316
03/23/2014  12:34:00       24.970      -17.868       24.307       26.331       76.979       55.943      693.333     5925.805     3129.618        0.564        0.487       30.705       61.414        4.001      340.778       15.033      865.315
03/23/2014  12:35:00       37.309       48.964       58.985       47.311       52.645       43.521     2238.357     2771.503     1894.036        0.709        0.345       61.558       37.940        0.380      340.732       14.956      865.298
03/23/2014  12:36:00        2.811       35.242       75.176       42.956       53.531       45.790     1845.239     2865.575     2096.770        0.685        0.340       35.354       42.868        1.470      341.316       15.944      865.291
03/23/2014  12:37:00       40.933       50.624      122.751       73.843      104.098       58.660     5452.845    10836.320     3440.969        1.951        0.987       65.102       63.289        0.945      340.999       15.407      865.283
03/23/2014  12:38:00      109.736       93.327      111.505       74.795       82.010       72.821     5594.231     6725.606     5302.872        2.540        0.881      144.055       61.204        0.181      340.508       14.575      865.295
03/23/2014  12:39:00       91.043       71.031       36.027       63.645       53.491       57.796     4050.633     2861.306     3340.324        1.244        0.513      115.474       40.828        0.125      340.477       14.524      865.311
03/23/2014  12:40:00       19.285       12.535        3.168       38.651       45.549       28.095     1493.897     2074.754      789.351        0.245        0.218       23.001       21.173        0.847      340.907       15.251      865.313
03/23/2014  12:41:00       39.429       71.708       85.195       52.349       63.465       42.390     2740.379     4027.772     1796.905        1.126        0.428       81.833       33.188        0.164      340.967       15.355      865.310
03/23/2014  12:42:00       42.621        7.210       56.086       59.662       66.166       55.612     3559.500     4377.951     3092.684        0.802        0.552       43.226       49.908        1.333      340.877       15.201      865.307
03/23/2014  12:43:00        4.867       -3.511       34.038       19.016       33.499       23.319      361.608     1122.192      543.797        0.161        0.101        6.002       16.473        7.534      340.885       15.214      865.314
03/23/2014  12:44:00       16.052      -69.395      -20.914       36.204       52.501       22.750     1310.716     2756.305      517.569        0.505        0.229       71.227       25.249        0.126      340.484       14.536      865.293
03/23/2014  12:45:00       20.210      -71.032       -7.211       38.828       49.659       25.567     1507.626     2466.063      653.656        0.507        0.231       73.851       12.102        0.027      340.537       14.625      865.292
03/23/2014  12:46:00       -9.101      -12.634       18.641       44.843       44.401       33.465     2010.915     1971.426     1119.883        0.285        0.255       15.571       24.800        2.537      341.013       15.432      865.264
03/23/2014  12:47:00      -70.064      -18.761       19.304       65.232       47.246       33.905     4255.156     2232.179     1149.558        0.663        0.382       72.532       36.789        0.257      340.865       15.182      865.255
03/23/2014  12:48:00      -83.053      -14.558        3.266       67.800       49.098       39.395     4596.811     2410.605     1551.953        0.784        0.428       84.319       35.520        0.177      340.931       15.291      865.238
03/23/2014  12:49:00      -95.586      -66.101       -1.379       80.207       66.987       47.064     6433.207     4487.307     2215.021        1.332        0.657      116.215       48.174        0.172      340.695       14.893      865.224
03/23/2014  12:50:00     -142.445       54.862      -16.260       44.160       47.335       25.070     1950.066     2240.573      628.528        1.419        0.241      152.645       16.497        0.012      340.120       13.922      865.215
03/23/2014  12:51:00      -95.303       -5.829       -0.112       96.332       53.752       45.274     9279.942     2889.250     2049.741        1.167        0.711       95.481       45.855        0.231      340.491       14.549      865.198
03/23/2014  12:52:00      -96.147      -66.422       12.032       60.379       49.356       36.292     3645.662     2435.966     1317.122        1.060        0.370      116.859       21.455        0.034      340.409       14.410      865.210
03/23/2014  12:53:00      -52.084      -69.189        1.132       52.797       51.755       33.374     2787.535     2678.625     1113.816        0.704        0.329       86.601       35.987        0.173      340.391       14.381      865.195
03/23/2014  12:54:00      -33.059      -28.464        7.974       31.512       18.984       20.360      992.982      360.374      414.518        0.187        0.088       43.624       18.054        0.171      340.467       14.507      865.190
03/23/2014  12:55:00      -58.409      -46.716       -7.223       37.036       22.957       26.778     1371.672      527.007      717.082        0.413        0.131       74.793       17.502        0.055      340.451       14.481      865.180
03/23/2014  12:56:00      -17.002      -55.931       -4.498       35.625       30.301       25.865     1269.108      918.166      668.984        0.315        0.143       58.458       18.648        0.102      340.494       14.552      865.183
03/23/2014  12:57:00      -23.977      -26.059        1.942       19.859       28.106       20.797      394.362      789.948      432.531        0.144        0.081       35.411       16.566        0.219      340.684       14.874      865.180
03/23/2014  12:58:00       10.062       -9.250       47.994       47.072       69.268       32.807     2215.750     4798.059     1076.290        0.529        0.405       13.668       37.692        7.605      341.257       15.844      865.172
03/23/2014  12:59:00       95.438       76.999       31.391       59.794       41.834       45.073     3575.292     1750.095     2031.571        1.169        0.368      122.626       22.942        0.035      340.482       14.533      865.161
03/23/2014  13:00:00       99.084       75.946       38.771       45.529       42.605       52.809     2072.908     1815.219     2788.779        1.188        0.334      124.841       18.826        0.023      340.892       15.226      865.138
03/23/2014  13:01:00       69.139       51.174       12.117       43.981       33.135       28.533     1934.364     1097.960      814.152        0.570        0.192       86.017       22.112        0.066      340.586       14.709      865.115
03/23/2014  13:02:00      118.741     -101.526        8.000       87.060      152.143       71.269     7579.427    23147.402     5079.298        3.013        1.790      156.228       89.182        0.326      340.828       15.116      865.077
03/23/2014  13:03:00      204.035     -300.937      -39.170       92.775      111.736       74.065     8607.264    12484.938     5485.642        8.015        1.329      363.584       66.322        0.033      340.324       14.262      865.039
03/23/2014  13:04:00      149.766     -206.211       -6.050       95.583      168.165       75.425     9136.165    28279.388     5688.917        5.404        2.155      254.858      101.456        0.158      340.639       14.795      865.025
03/23/2014  13:05:00      112.665       95.027      109.693       86.211      112.155       86.132     7432.403    12578.684     7418.764        3.059        1.371      147.390       81.231        0.304      340.895       15.230      865.020
03/23/2014  13:06:00       84.085      100.617      122.148      115.940       91.555       90.913    13441.969     8382.277     8265.227        3.110        1.504      131.126       86.694        0.437      340.716       14.926      865.028
03/23/2014  13:07:00       64.458      105.033       78.780       62.267       59.514       65.007     3877.124     3541.963     4225.922        1.652        0.582      123.234       49.321        0.160      340.607       14.743      865.037
03/23/2014  13:08:00      -45.053       22.912       18.628       42.447       35.553       23.003     1801.741     1264.023      529.154        0.325        0.180       50.544       14.368        0.081      341.148       15.660      865.018
03/23/2014  13:09:00      -10.964      -28.001       20.610       25.852       38.442       25.257      668.347     1477.820      637.899        0.206        0.139       30.071       22.143        0.542      341.360       16.018      865.003
03/23/2014  13:10:00      -27.013      -98.693        2.273       80.089       70.782       41.045     6414.315     5010.075     1684.691        1.179        0.655      102.323       42.962        0.176      340.665       14.841      865.003
03/23/2014  13:11:00       19.411      -58.959       -9.390       53.900       88.366       36.018     2905.165     7808.601     1297.300        0.797        0.601       62.072       37.603        0.367      340.760       15.003      864.988
03/23/2014  13:12:00       23.222      -22.702       47.125       54.033       71.363       61.916     2919.536     5092.616     3833.595        0.756        0.592       32.475       57.903        3.179      340.896       15.233      864.999
03/23/2014  13:13:00       22.273       -0.910       40.964       43.188       83.698       48.828     1865.236     7005.413     2384.130        0.671        0.563       22.292       57.672        6.693      340.968       15.356      864.985
03/23/2014  13:14:00       55.018      -88.168        3.710       58.825       75.708       45.404     3460.361     5731.740     2061.543        1.103        0.563      103.926       44.385        0.182      341.023       15.448      864.984
03/23/2014  13:15:00       54.820      -69.430       30.994       59.904      113.008       65.604     3588.445    12770.811     4303.911        1.472        1.033       88.463       70.503        0.635      340.934       15.297      864.961
03/23/2014  13:16:00       64.287     -177.622       -9.715       71.174      117.599       62.100     5065.725    13829.554     3856.406        2.926        1.138      188.898       66.286        0.123      340.871       15.188      864.937
03/23/2014  13:17:00      108.798     -203.042      -28.888       81.894       79.025       51.194     6706.553     6244.967     2620.835        3.473        0.779      230.354       48.067        0.044      340.756       14.993      864.927
03/23/2014  13:18:00       22.981     -125.656      -15.864       60.795       80.689       47.701     3696.085     6510.676     2275.363        1.452        0.624      127.740       42.215        0.109      340.811       15.088      864.904
03/23/2014  13:19:00      110.418     -190.036      -33.243       84.627       63.230       36.019     7161.751     3998.080     1297.391        3.093        0.623      219.786       15.995        0.005      340.624       14.771      864.880
03/23/2014  13:20:00       57.924     -103.572       -1.093       77.838       74.646       38.270     6058.825     5571.987     1464.571        1.359        0.655      118.669       29.231        0.061      341.080       15.545      864.870
03/23/2014  13:21:00      -11.063      -91.338       10.948       53.576       79.723       54.738     2870.338     6355.710     2996.272        1.040        0.611       92.006       50.053        0.296      341.441       16.155      864.853
03/23/2014  13:22:00      -81.407     -113.469      -10.956       68.666       69.868       38.568     4715.009     4881.563     1487.463        1.535        0.554      139.651       18.435        0.017      340.779       15.035      864.839
03/23/2014  13:23:00      -64.084      -79.785       -5.883       70.514       61.680       29.279     4972.210     3804.433      857.265        1.007        0.482      102.335       22.897        0.050      340.671       14.852      864.828
03/23/2014  13:24:00     -110.451     -132.464        5.029       78.175       77.138       41.873     6111.277     5950.209     1753.317        2.179        0.691      172.470       43.989        0.065      340.793       15.058      864.811
03/23/2014  13:25:00      -22.719      -98.317       -2.943       43.599       79.259       26.428     1900.900     6281.968      698.440        0.953        0.444      100.908       26.002        0.066      340.688       14.881      864.797
03/23/2014  13:26:00      -74.927     -110.941       -4.232       49.096       68.589       26.935     2410.380     4704.517      725.501        1.289        0.392      133.873       19.855        0.022      340.533       14.619      864.804
03/23/2014  13:27:00     -159.058      -80.642       -4.990       50.517       56.514       34.234     2552.017     3193.797     1171.950        1.937        0.346      178.333       31.207        0.031      340.583       14.703      864.810
03/23/2014  13:28:00      -76.934        6.744        1.284       38.358       72.426       28.812     1471.330     5245.588      830.128        0.676        0.377       77.229       18.170        0.055      340.808       15.084      864.811
03/23/2014  13:29:00     -144.240       15.946      -15.397       42.086       41.046       24.617     1771.233     1684.781      605.998        1.268        0.203      145.119       12.264        0.007      340.582       14.703      864.804
03/23/2014  13:30:00      -40.539        2.902        0.608       41.543       36.413       23.251     1725.820     1325.882      540.616        0.262        0.180       40.643       15.463        0.145      341.024       15.451      864.801
03/23/2014  13:31:00       -8.417     -123.547       12.685       40.733       37.136       28.093     1659.152     1379.083      789.219        0.966        0.191      123.834       27.164        0.048      340.641       14.802      864.797
03/23/2014  13:32:00      -11.449      -40.342        0.386       20.659       33.607       19.736      426.813     1129.426      389.499        0.185        0.097       41.935        9.335        0.050      340.923       15.279      864.781
03/23/2014  13:33:00       36.340       14.763       35.923       32.078       32.417       29.253     1028.986     1050.840      855.731        0.288        0.147       39.224       28.028        0.511      341.534       16.313      864.765
03/23/2014  13:34:00        0.895      -21.938       26.486       49.531       64.907       32.013     2453.348     4212.956     1024.826        0.444        0.385       21.956       33.980        2.395      341.472       16.208      864.751
03/23/2014  13:35:00        1.963      -48.198       12.442       81.998       57.662       48.231     6723.633     3324.859     2326.207        0.743        0.619       48.238       32.499        0.454      341.470       16.206      864.739
03/23/2014  13:36:00       68.602     -128.887        9.200       73.211       80.293       66.646     5359.792     6447.046     4441.684        1.882        0.812      146.008       56.490        0.150      341.117       15.605      864.727
03/23/2014  13:37:00       63.442      -18.378       49.874       87.792      102.053       84.355     7707.443    10414.760     7115.793        1.604        1.262       66.050       69.076        1.094      341.309       15.931      864.705
03/23/2014  13:38:00      165.128      -55.945       58.100       99.159      138.889       90.818     9832.586    19290.069     8247.847        3.557        1.869      174.348      102.698        0.347      341.168       15.692      864.688
03/23/2014  13:39:00      136.252     -249.158      -26.088      114.637      121.960       77.873    13141.559    14874.362     6064.131        5.770        1.704      283.979       83.261        0.086      340.947       15.318      864.674
03/23/2014  13:40:00       47.520       57.633      109.998       84.316      165.208      114.225     7109.245    27293.576    13047.313        3.256        2.373       74.698      123.411        2.730      341.070       15.526      864.672
03/23/2014  13:41:00       94.364      -98.232        4.689       87.770      144.454       88.449     7703.508    20867.100     7823.284        2.748        1.820      136.213       93.878        0.475      341.216       15.772      864.650
03/23/2014  13:42:00       11.267      -51.301       90.369       59.459      117.000       79.480     3535.386    13689.014     6317.005        1.723        1.177       52.524       77.925        2.201      341.421       16.120      864.641
03/23/2014  13:43:00       44.424     -132.260      -22.154       72.625       72.683       51.531     5274.373     5282.795     2655.414        1.658        0.661      139.521       40.878        0.086      341.256       15.841      864.663
03/23/2014  13:44:00        2.485      -48.859       11.303       50.475       51.943       43.109     2547.691     2698.085     1858.405        0.481        0.355       48.922        7.992        0.027      341.665       16.534      864.642
03/23/2014  13:45:00      -13.340      -37.655       15.419       39.421       45.050       34.735     1553.993     2029.532     1206.497        0.331        0.240       39.948       22.025        0.304      341.829       16.813      864.636
03/23/2014  13:46:00      -50.182      -37.929        5.219       48.485       39.784       36.139     2350.758     1582.728     1306.032        0.461        0.262       62.903       26.289        0.175      341.721       16.630      864.639
03/23/2014  13:47:00      -50.172        0.764        1.779       33.371       29.464       19.946     1113.641      868.107      397.832        0.245        0.119       50.178       16.899        0.113      341.282       15.887      864.644
03/23/2014  13:48:00      -15.732       26.966       12.669       59.469       33.189       34.615     3536.606     1101.514     1198.169        0.348        0.292       31.220       41.556        1.772      341.507       16.269      864.625
03/23/2014  13:49:00       36.063       53.575       48.757       62.908       54.835       37.720     3957.421     3006.858     1422.833        0.747        0.419       64.582       29.004        0.202      341.524       16.297      864.614
03/23/2014  13:50:00       24.943       13.537       -1.955       28.992       25.430       24.190      840.514      646.679      585.140        0.144        0.104       28.380       20.682        0.531      341.657       16.522      864.620
03/23/2014  13:51:00       27.765        5.955       27.046       51.369       65.512       30.552     2638.768     4291.771      933.412        0.470        0.393       28.397       22.620        0.635      341.872       16.887      864.612
03/23/2014  13:52:00      -35.227      -63.505       14.592       35.916       60.982       45.890     1289.970     3718.854     2105.850        0.630        0.356       72.621       34.591        0.227      341.549       16.338      864.616
03/23/2014  13:53:00       29.965       19.057       18.068       43.650       36.928       33.155     1905.280     1363.703     1099.236        0.298        0.218       35.511       14.863        0.175      341.397       16.082      864.622
03/23/2014  13:54:00       32.239       27.535       -0.670       32.191       24.409       15.912     1036.274      595.807      253.186        0.184        0.094       42.397       14.009        0.109      341.546       16.335      864.623
03/23/2014  13:55:00       15.939       27.162       30.775       30.022       23.186       21.444      901.328      537.610      459.836        0.192        0.095       31.493        7.032        0.050      341.812       16.785      864.629
03/23/2014  13:56:00       48.473       63.381       14.687       59.067       46.622       40.918     3488.864     2173.577     1674.270        0.696        0.367       79.792       25.524        0.102      341.455       16.179      864.623
03/23/2014  13:57:00      111.091       83.005        3.888       59.985       33.058       34.971     3598.144     1092.805     1222.983        1.258        0.296      138.676       18.487        0.018      340.968       15.354      864.605
03/23/2014  13:58:00      105.464       77.702        3.565       51.358       41.988       34.944     2637.691     1762.983     1221.056        1.140        0.281      130.997       18.560        0.020      340.992       15.396      864.593
03/23/2014  13:59:00      192.991      136.583       11.785       82.414       58.223       42.885     6792.143     3389.966     1839.095        3.403        0.601      236.433       36.054        0.023      340.930       15.287      864.595
03/23/2014  14:00:00      137.538       60.222       32.452       96.257       80.446       45.864     9265.489     6471.532     2103.510        2.072        0.892      150.145       47.613        0.101      340.849       15.152      864.581
03/23/2014  14:01:00      160.430      126.116       65.328       84.101       45.399       51.726     7072.941     2061.067     2675.631        2.886        0.590      204.066       46.958        0.053      341.112       15.595      864.567
03/23/2014  14:02:00      118.824      107.372       74.769      109.079       66.719       70.110    11898.157     4451.453     4915.398        2.625        1.063      160.150       60.273        0.142      341.416       16.112      864.548
03/23/2014  14:03:00      133.353      150.860       73.577      105.081       61.668       76.102    11041.953     3802.898     5791.481        3.329        1.032      201.350       72.367        0.129      341.208       15.758      864.529
03/23/2014  14:04:00      227.307      125.235        7.096      155.295       89.142       65.160    24116.630     7946.238     4245.852        5.185        1.815      259.524        4.882        0.000      341.187       15.723      864.552
03/23/2014  14:05:00       38.655      129.740      -18.630       51.026       90.607       38.872     2603.702     8209.634     1511.050        1.550        0.616      135.376       28.743        0.045      341.098       15.575      864.566
03/23/2014  14:06:00      197.496       82.762       37.974       94.479       82.982       73.913     8926.369     6886.073     5463.199        3.428        1.064      214.136       22.334        0.011      340.950       15.322      864.532
03/23/2014  14:07:00      220.740      108.132       29.913       78.044       51.818       59.870     6090.834     2685.101     3584.436        3.683        0.618      245.802       29.414        0.014      340.938       15.302      864.512
03/23/2014  14:08:00       31.345       47.077       -3.200       52.345       92.463       34.582     2739.979     8549.417     1195.916        0.785        0.624       56.558       26.838        0.225      341.048       15.491      864.491
03/23/2014  14:09:00       11.780       14.554       51.983       28.918       41.965       29.337      836.222     1761.069      860.639        0.325        0.173       18.724       22.866        1.491      341.923       16.973      864.460
03/23/2014  14:10:00      124.476      115.257      121.987      103.790       86.955       70.641    10772.270     7561.093     4990.195        3.349        1.166      169.642       63.481        0.140      341.429       16.133      864.427
03/23/2014  14:11:00       62.155       64.427       63.034       93.633      109.574       51.424     8767.216    12006.451     2644.378        1.770        1.171       89.522       62.044        0.480      341.368       16.030      864.426
03/23/2014  14:12:00      137.782       81.402       17.979      135.722       90.757       52.913    18420.427     8236.887     2799.787        2.769        1.473      160.032       47.013        0.086      341.672       16.546      864.433
03/23/2014  14:13:00      138.198      124.590       16.109       84.056       77.204       56.596     7065.368     5960.383     3203.054        2.555        0.811      186.068       47.549        0.065      341.281       15.883      864.438
03/23/2014  14:14:00       37.013      108.157       -7.121       48.897       73.825       44.166     2390.920     5450.197     1950.652        1.145        0.490      114.315       41.457        0.132      341.318       15.947      864.432
03/23/2014  14:15:00       17.324       15.164        4.836       32.814       26.619       25.082     1076.751      708.596      629.090        0.148        0.121       23.023       14.818        0.414      341.471       16.207      864.413
03/23/2014  14:16:00       41.906       35.622        6.873       54.029       36.705       28.382     2919.133     1347.272      805.554        0.407        0.254       55.000       23.887        0.189      341.602       16.429      864.397
03/23/2014  14:17:00      -86.413      179.533      -24.355       71.416       59.308       33.949     5100.175     3517.497     1152.512        2.503        0.489      199.247       29.956        0.023      341.269       15.863      864.396
03/23/2014  14:18:00     -144.507      157.017      -36.574       62.380       64.225       38.000     3891.259     4124.851     1443.970        2.817        0.473      213.393       29.157        0.019      341.310       15.930      864.383
03/23/2014  14:19:00      -64.357      119.041      -20.063       43.127       51.392       34.837     1859.948     2641.161     1213.595        1.221        0.286      135.324       28.466        0.044      341.374       16.043      864.376
03/23/2014  14:20:00      -62.220       58.678       -0.489       51.050       54.029       38.520     2606.106     2919.091     1483.760        0.716        0.350       85.524       42.593        0.248      341.658       16.523      864.352
03/23/2014  14:21:00       50.234       60.728       18.519       49.526       54.870       39.580     2452.856     3010.737     1566.587        0.679        0.352       78.812       34.331        0.190      341.610       16.442      864.332
03/23/2014  14:22:00      140.031      105.980       22.625       69.878       56.615       48.500     4882.965     3205.228     2352.275        2.089        0.522      175.614       25.090        0.020      341.494       16.245      864.312
03/23/2014  14:23:00      191.278      137.714       21.105       95.239       69.313       58.157     9070.423     4804.300     3382.219        3.662        0.863      235.696       45.124        0.037      341.255       15.837      864.295
03/23/2014  14:24:00       26.801      136.103      138.140       60.718       61.146       48.091     3686.707     3738.772     2312.760        2.403        0.487      138.717       35.151        0.064      341.702       16.596      864.281
03/23/2014  14:25:00      155.563       47.025       65.332       74.688       84.273       52.775     5578.355     7102.005     2785.150        2.307        0.773      162.515       40.657        0.063      341.209       15.760      864.277
03/23/2014  14:26:00       28.511      -25.438       34.520       25.334       28.211       25.656      641.822      795.870      658.235        0.237        0.105       38.210       16.562        0.188      341.387       16.065      864.264
03/23/2014  14:27:00       53.174       70.728       24.507       87.576       50.587       50.041     7669.635     2559.068     2504.151        1.058        0.637       88.487       42.415        0.230      341.298       15.913      864.245
03/23/2014  14:28:00       55.248       62.400        0.960       77.354       59.181       31.825     5983.594     3502.409     1012.853        0.872        0.525       83.344       18.375        0.049      341.314       15.942      864.216
03/23/2014  14:29:00       90.857       23.622       52.816       77.893       85.423       55.238     6067.317     7297.154     3051.277        1.401        0.821       93.877       41.703        0.197      341.692       16.581      864.180
03/23/2014  14:30:00      195.735      132.170       99.294      135.169      118.970       91.631    18270.533    14153.753     8396.185        5.322        2.041      236.180       80.084        0.115      341.641       16.490      864.152
03/23/2014  14:31:00      110.534      130.904      141.329      120.116      118.103      104.563    14427.830    13948.249    10933.415        4.431        1.965      171.329       83.305        0.236      341.542       16.325      864.151
03/23/2014  14:32:00      132.523      149.005      164.741      127.959       95.344       80.165    16373.558     9090.385     6426.491        4.939        1.595      199.411       81.444        0.167      341.355       16.007      864.147
03/23/2014  14:33:00      114.801      116.697       84.278       91.864       71.584       78.026     8439.074     5124.296     6088.092        2.677        0.983      163.699       59.855        0.134      341.395       16.074      864.163
03/23/2014  14:34:00      200.436      107.506        2.662       72.847       72.620       66.924     5306.715     5273.704     4478.799        3.340        0.753      227.447       36.101        0.025      341.148       15.656      864.176
03/23/2014  14:35:00       56.188       64.678       67.187       58.422       69.371       47.864     3413.109     4812.393     2290.992        1.118        0.526       85.676       41.654        0.236      341.529       16.306      864.127
03/23/2014  14:36:00       88.861      124.803        6.069       56.505       73.817       53.401     3192.838     5449.015     2851.675        1.750        0.575      153.206       38.518        0.063      341.345       15.993      864.115
03/23/2014  14:37:00       91.988      -26.287       -6.063       46.067       65.879       26.338     2122.200     4339.993      693.716        0.817        0.358       95.670       16.244        0.029      341.107       15.590      864.123
03/23/2014  14:38:00       -9.310      -61.971       11.880       32.314       48.986       29.816     1044.201     2399.649      889.016        0.420        0.217       62.666       22.831        0.133      341.515       16.281      864.089
03/23/2014  14:39:00      -42.611      -14.747       -1.307       38.659       45.624       23.494     1494.490     2081.577      551.950        0.308        0.206       45.091       13.295        0.087      342.177       17.405      864.077
03/23/2014  14:40:00       -1.194      107.776       -0.546       65.714       89.051       39.780     4318.347     7930.002     1582.482        1.272        0.692      107.783       28.426        0.070      341.712       16.615      864.057
03/23/2014  14:41:00      -25.233       62.270      -11.463       51.671       77.627       36.959     2669.880     6025.973     1365.935        0.735        0.503       67.188       11.872        0.031      341.750       16.680      864.056
03/23/2014  14:42:00       12.156      -25.047       15.072       38.179       54.053       42.287     1457.601     2921.771     1788.194        0.358        0.308       27.841       35.228        1.601      342.087       17.253      864.042
03/23/2014  14:43:00       12.643     -131.723       -0.236       32.399       33.337       32.259     1049.726     1111.375     1040.623        1.036        0.160      132.328       22.728        0.029      341.875       16.893      864.014
03/23/2014  14:44:00       17.574       17.318       41.931       31.375       44.841       37.797      984.359     2010.680     1428.618        0.339        0.221       24.673       28.113        1.298      342.161       17.377      864.018
03/23/2014  14:45:00       22.092       76.341       47.640       54.273       58.984       43.635     2945.504     3479.127     1904.052        0.846        0.416       79.473       33.687        0.180      342.115       17.300      864.017
03/23/2014  14:46:00      252.902      189.522       17.836      101.002       77.702       66.280    10201.352     6037.545     4392.987        6.041        1.032      316.035       45.859        0.021      341.369       16.031      864.006
03/23/2014  14:47:00      286.645      143.174       59.572      148.262      101.055       87.779    21981.646    10212.151     7705.109        7.305        1.995      320.413       78.370        0.060      341.475       16.210      863.981
03/23/2014  14:48:00      196.655      126.916       48.947      112.508       88.218       79.117    12658.006     7782.376     6259.544        4.193        1.335      234.053       57.758        0.061      341.489       16.235      863.994
03/23/2014  14:49:00       24.270      106.451      112.120       67.313       92.581       77.468     4531.001     8571.265     6001.237        2.179        0.955      109.182       70.571        0.418      341.919       16.964      863.969
03/23/2014  14:50:00       82.051       87.348       45.364       79.099       80.896       68.616     6256.667     6544.207     4708.094        1.696        0.875      119.842       51.794        0.187      341.885       16.906      863.983
03/23/2014  14:51:00       46.603      204.872      -28.170       73.503       93.614       54.103     5402.633     8763.566     2927.118        3.101        0.855      210.105       38.152        0.033      341.638       16.486      863.999
03/23/2014  14:52:00     -127.518       30.043      -24.810       82.029       71.234       46.938     6728.820     5074.305     2203.135        1.589        0.700      131.010       33.188        0.064      341.463       16.192      863.982
03/23/2014  14:53:00     -132.399      -14.973      -13.385       93.982       82.226       37.617     8832.684     6761.119     1415.028        1.747        0.850      133.243       22.168        0.028      341.880       16.900      863.937
03/23/2014  14:54:00       28.009      -77.769        8.278       50.556       70.821       39.076     2555.940     5015.652     1526.928        0.800        0.455       82.659       26.297        0.101      342.002       17.108      863.936
03/23/2014  14:55:00       28.194       58.740       26.349       35.917       34.095       30.451     1290.011     1162.488      927.265        0.416        0.169       65.156       16.915        0.067      342.002       17.106      863.938
03/23/2014  14:56:00      170.968      107.099       24.185      144.801       75.120       60.194    20967.426     5643.078     3623.270        3.575        1.512      201.743       34.520        0.029      341.745       16.669      863.925
03/23/2014  14:57:00      294.858      198.133       30.746      107.136       89.492       76.535    11478.151     8008.896     5857.663        7.624        1.267      355.243       53.258        0.022      341.682       16.562      863.928
03/23/2014  14:58:00      139.068      134.499        5.196      117.929       96.742       65.817    13907.164     9359.087     4331.943        3.252        1.380      193.468       43.962        0.052      341.751       16.679      863.941
03/23/2014  14:59:00       -0.702       57.213      -38.381       54.136       79.481       27.837     2930.727     6317.184      774.921        0.738        0.501       57.217       23.999        0.176      341.420       16.119      863.964
03/23/2014  15:00:00      121.941       86.645       12.434      130.918       84.753       66.966    17139.579     7183.073     4484.389        2.566        1.440      149.589       45.324        0.092      341.534       16.312      863.952
03/23/2014  15:01:00      242.828      180.922       19.539      104.369       81.292       64.506    10892.924     6608.408     4161.081        5.687        1.083      302.817       42.576        0.020      341.563       16.360      863.948
03/23/2014  15:02:00      189.683       90.505       26.982      110.305       85.625       64.495    12167.218     7331.693     4159.639        3.427        1.183      210.169       54.932        0.068      341.702       16.594      863.950
03/23/2014  15:03:00      157.720      118.804       41.580       95.262       68.363       63.786     9074.803     4673.473     4068.683        2.926        0.891      197.459       36.498        0.034      341.784       16.735      863.937
03/23/2014  15:04:00       70.002       66.804       29.524       57.209       59.133       39.069     3272.881     3496.728     1526.380        0.926        0.415       96.763       33.144        0.117      341.785       16.737      863.938
03/23/2014  15:05:00       99.934       74.843       19.965       64.957       55.672       45.295     4219.449     3099.326     2051.645        1.268        0.469      124.853       33.753        0.073      342.012       17.123      863.934
03/23/2014  15:06:00       84.511       67.518       24.910       53.803       46.171       39.554     2894.750     2131.729     1564.553        0.946        0.330      108.171       38.681        0.128      342.200       17.442      863.941
03/23/2014  15:07:00       62.936      -56.455        7.360       54.060       90.473       39.026     2922.447     8185.419     1523.066        0.991        0.632       84.546       44.854        0.281      342.019       17.137      863.935
03/23/2014  15:08:00       46.971      -83.320       15.257       39.737      102.832       46.935     1579.022    10574.329     2202.900        1.187        0.718       95.648       56.852        0.353      341.970       17.054      863.924
03/23/2014  15:09:00       83.270     -158.731      -17.231       64.450       45.598       34.122     4153.746     2079.213     1164.336        1.991        0.370      179.247       39.899        0.050      341.671       16.545      863.906
03/23/2014  15:10:00       57.092     -161.520        7.228       89.251       87.052       50.133     7965.808     7578.121     2513.350        2.373        0.903      171.313       55.005        0.103      341.974       17.057      863.879
03/23/2014  15:11:00       48.611       76.948       40.256       94.166       61.595       52.978     8867.328     3793.947     2806.684        1.268        0.773       91.017       42.448        0.218      342.476       17.912      863.881
03/23/2014  15:12:00       64.450      193.916      -22.439       66.192       91.069       40.619     4381.362     8293.551     1649.901        2.829        0.716      204.346       35.047        0.029      342.013       17.121      863.907
03/23/2014  15:13:00       49.677       82.469      -12.491       40.729       51.235       36.795     1658.817     2624.996     1353.889        0.753        0.282       96.275       28.345        0.087      341.729       16.645      863.916
03/23/2014  15:14:00       -7.188      127.388      -20.139       47.128       50.414       28.030     2221.025     2541.575      785.654        1.112        0.277      127.591       21.300        0.028      341.560       16.356      863.901
03/23/2014  15:15:00       14.556       82.203      -15.598       29.515       46.567       30.249      871.157     2168.523      914.984        0.558        0.198       83.482       28.042        0.113      341.656       16.520      863.887
03/23/2014  15:16:00       51.025       28.300       17.668       26.068       19.547       32.217      679.516      382.075     1037.952        0.291        0.105       58.347       19.151        0.108      341.814       16.786      863.860
03/23/2014  15:17:00       11.644       27.951       14.204       39.460       37.479       29.080     1557.125     1404.668      845.639        0.246        0.190       30.280       22.141        0.535      342.158       17.374      863.852
03/23/2014  15:18:00      -29.831       62.459      -12.135       42.873       51.017       32.280     1838.107     2602.721     1042.027        0.521        0.274       69.217       29.062        0.176      342.233       17.499      863.842
03/23/2014  15:19:00      -24.974       16.973       19.083       39.004       32.874       31.118     1521.323     1080.692      968.354        0.242        0.179       30.196       21.444        0.504      342.602       18.127      863.831
03/23/2014  15:20:00       45.199       95.072       -2.710       62.766       55.033       42.757     3939.611     3028.590     1828.175        0.994        0.440      105.270       35.320        0.113      341.973       17.058      863.833
03/23/2014  15:21:00       35.146       84.177       -6.149       36.470       45.345       27.005     1330.094     2056.184      729.291        0.624        0.206       91.219       26.748        0.086      342.130       17.322      863.837
03/23/2014  15:22:00       93.243       93.510       -9.926       38.151       64.551       37.366     1455.502     4166.849     1396.253        1.228        0.351      132.055       36.589        0.077      341.974       17.058      863.822
03/23/2014  15:23:00      -15.409      147.285        7.232       98.386       59.641       58.013     9679.791     3557.028     3365.482        1.929        0.830      148.089       38.883        0.069      342.148       17.353      863.810
03/23/2014  15:24:00       19.976      166.733       -2.984      140.337       93.599       68.320    19694.470     8760.782     4667.645        3.066        1.656      167.925       67.171        0.160      342.065       17.212      863.812
03/23/2014  15:25:00      214.117      106.585      -15.918       90.728       73.370       71.779     8231.645     5383.084     5152.188        3.811        0.938      239.178       24.125        0.010      341.757       16.686      863.811
03/23/2014  15:26:00       97.722      131.571       83.880      130.143       71.692       69.389    16937.104     5139.709     4814.826        3.039        1.345      163.892       85.845        0.274      342.167       17.385      863.749
03/23/2014  15:27:00      -37.359       53.351        7.645       67.805       54.856       56.103     4597.536     3009.200     3147.512        0.753        0.538       65.131       48.943        0.565      342.343       17.686      863.789
03/23/2014  15:28:00      -24.425      112.111       34.651       68.528       80.055       86.980     4696.045     6408.752     7565.468        1.652        0.934      114.741       61.561        0.288      342.170       17.393      863.780
03/23/2014  15:29:00      -35.184      168.133      -18.593       95.420       79.946       55.894     9104.989     6391.375     3124.101        2.423        0.931      171.775       52.364        0.093      341.989       17.081      863.767
03/23/2014  15:30:00       -6.313      135.700      -16.796       83.466       81.356       29.729     6966.590     6618.867      883.803        1.660        0.723      135.846       16.503        0.015      342.156       17.367      863.745
03/23/2014  15:31:00       19.230       35.113       10.996       51.616       48.605       29.956     2664.226     2362.472      897.364        0.382        0.296       40.034       31.346        0.613      342.559       18.052      863.734
03/23/2014  15:32:00      110.047      137.915        5.339      159.891       50.034       62.597    25565.146     2503.389     3918.424        3.157        1.599      176.440       75.681        0.184      342.163       17.378      863.715
03/23/2014  15:33:00      203.498      125.268       31.180       86.907       78.598       52.174     7552.765     6177.659     2722.131        3.726        0.823      238.963       25.981        0.012      341.977       17.061      863.686
03/23/2014  15:34:00      108.569      117.370        6.346      105.448       72.651       56.738    11119.316     5278.121     3219.225        2.261        0.981      159.884       44.859        0.079      342.091       17.256      863.693
03/23/2014  15:35:00       72.570      106.940        8.395       97.899       67.451       50.864     9584.163     4549.679     2587.148        1.674        0.836      129.239       23.133        0.032      342.086       17.247      863.712
03/23/2014  15:36:00       41.858       69.585        9.943       78.541       56.456       42.276     6168.659     3187.272     1787.245        0.892        0.557       81.204       40.994        0.255      342.341       17.683      863.728
03/23/2014  15:37:00       19.672       81.017       -9.076       43.514      102.720       33.785     1893.477    10551.372     1141.424        1.031        0.679       83.372       46.763        0.315      342.385       17.757      863.732
03/23/2014  15:38:00       72.170       85.364       11.203       79.134       69.957       54.535     6262.188     4894.017     2974.027        1.337        0.707      111.783       44.596        0.159      342.097       17.267      863.724
03/23/2014  15:39:00       29.581      213.630      -33.552      105.761      122.779       55.883    11185.465    15074.691     3122.963        3.851        1.469      215.668       62.158        0.083      342.036       17.161      863.739
03/23/2014  15:40:00     -160.470      212.575      -41.649      116.475       88.204       57.640    13566.473     7779.860     3322.342        4.867        1.233      266.343       65.210        0.060      342.119       17.303      863.758
03/23/2014  15:41:00      -89.745      180.155      -12.911       59.607       80.665       47.208     3552.981     6506.827     2228.556        2.648        0.614      201.271       44.196        0.048      342.018       17.133      863.753
03/23/2014  15:42:00       -2.288      288.526      -29.291       62.135       83.100       35.037     3860.742     6905.567     1227.615        4.805        0.600      288.535       39.369        0.019      341.767       16.705      863.742
03/23/2014  15:43:00       -1.047      249.664      -28.001       61.142       80.245       40.254     3738.357     6439.276     1620.419        3.746        0.590      249.666       39.547        0.025      341.843       16.833      863.734
03/23/2014  15:44:00       28.447      211.655      -24.080       75.038       90.994       43.535     5630.702     8279.830     1895.277        3.099        0.790      213.558       51.447        0.058      341.976       17.061      863.727
03/23/2014  15:45:00       -7.098      162.120      -11.051       93.115      107.394       48.175     8670.353    11533.486     2320.865        2.449        1.126      162.275       66.329        0.167      342.079       17.235      863.728
03/23/2014  15:46:00      -25.425      142.455      -14.763       38.994       67.482       30.751     1520.516     4553.852      945.614        1.409        0.351      144.706       33.207        0.053      341.909       16.948      863.723
03/23/2014  15:47:00       40.741      160.090      -18.707       39.191       88.230       38.951     1535.908     7784.452     1517.191        1.924        0.542      165.193       53.586        0.105      341.911       16.950      863.709
03/23/2014  15:48:00        6.481      187.627      -18.215       63.482       64.181       40.747     4029.979     4119.178     1660.310        2.269        0.490      187.739       43.978        0.055      341.964       17.041      863.686
03/23/2014  15:49:00       25.693       95.561      -10.634      101.299       83.874       48.355    10261.527     7034.871     2338.175        1.477        0.982       98.955       54.984        0.309      342.241       17.512      863.667
03/23/2014  15:50:00       44.272       40.448       18.686       57.057       43.980       45.132     3255.508     1934.253     2036.891        0.558        0.361       59.967       29.748        0.246      342.295       17.605      863.639
03/23/2014  15:51:00       65.759      141.953       -5.220       66.831       85.948       48.604     4466.375     7387.100     2362.343        1.936        0.711      156.445       48.271        0.095      342.143       17.345      863.637
03/23/2014  15:52:00       21.046      110.439       -4.704       58.159       60.353       36.927     3382.436     3642.475     1363.590        1.052        0.419      112.427       36.693        0.107      342.211       17.461      863.626
03/23/2014  15:53:00      -35.686      157.203       -9.647       52.118       75.815       43.905     2716.315     5747.963     1927.623        1.823        0.520      161.203       43.933        0.074      342.202       17.445      863.618
03/23/2014  15:54:00      -49.438      105.519       -8.270       54.792       72.492       33.266     3002.132     5255.157     1106.609        1.150        0.468      116.526       38.943        0.112      342.182       17.413      863.595
03/23/2014  15:55:00       37.031       47.658      -13.208       40.985       30.764       28.787     1679.754      946.428      828.711        0.364        0.173       60.354       18.762        0.097      342.181       17.411      863.574
03/23/2014  15:56:00       68.481       22.213       17.036      112.289       45.707       41.057    12608.786     2089.166     1685.692        1.093        0.819       71.994       23.394        0.106      342.614       18.147      863.554
03/23/2014  15:57:00      188.164      109.510       22.866      118.899       79.550       78.019    14136.869     6328.210     6086.943        3.723        1.328      217.711       52.459        0.058      342.146       17.349      863.533
03/23/2014  15:58:00       38.497      131.146      -15.322       92.199       87.298       43.593     8500.708     7620.879     1900.370        1.847        0.901      136.679       44.991        0.108      342.095       17.263      863.524
03/23/2014  15:59:00      -12.526      353.359      -46.096       69.133      103.901       35.092     4779.394    10795.516     1231.424        7.197        0.840      353.581       34.088        0.009      341.991       17.086      863.536
03/23/2014  16:00:00      -10.906      168.058       -9.764       82.983      103.096       46.758     6886.164    10628.856     2186.320        2.408        0.985      168.411       42.612        0.064      342.411       17.800      863.518
03/23/2014  16:01:00     -126.714      179.380      -15.492       85.161       96.383       54.934     7252.424     9289.638     3017.797        3.401        0.978      219.621       55.557        0.064      342.525       17.995      863.535
03/23/2014  16:02:00     -200.104      207.141      -43.094       68.643       99.935       49.200     4711.833     9986.995     2420.645        5.096        0.856      288.009       53.706        0.035      342.062       17.206      863.547
03/23/2014  16:03:00      -27.339      285.880      -38.736       69.410       61.522       32.974     4817.750     3784.971     1087.262        4.683        0.484      287.184       32.316        0.013      341.840       16.826      863.552
03/23/2014  16:04:00       -0.307      383.564      -47.386       45.203       66.512       22.606     2043.272     4423.911      511.014        7.817        0.349      383.564       22.122        0.003      341.803       16.766      863.534
03/23/2014  16:05:00       55.815      260.927      -33.870       59.595      108.874       54.687     3551.594    11853.624     2990.717        4.537        0.920      266.830       60.928        0.052      341.915       16.958      863.526
03/23/2014  16:06:00       30.195      107.571      -16.258       55.336       71.569       49.019     3062.074     5122.143     2402.815        1.167        0.529      111.728       26.212        0.055      341.959       17.033      863.520
03/23/2014  16:07:00      -38.619       17.487       -9.145       62.359       40.127       29.841     3888.604     1610.170      890.493        0.413        0.319       42.394       36.700        0.749      341.991       17.089      863.486
03/23/2014  16:08:00      -84.623       65.807       -7.638       56.383       55.972       35.514     3179.014     3132.819     1261.255        0.956        0.379      107.198       40.552        0.143      342.167       17.386      863.461
03/23/2014  16:09:00       22.272       82.644        2.852       34.475       50.351       34.833     1188.514     2535.234     1213.305        0.613        0.247       85.592       21.621        0.064      342.226       17.488      863.453
03/23/2014  16:10:00      117.053       79.011       17.084       99.868       47.751       44.826     9973.548     2280.135     2009.348        1.725        0.713      141.224       36.572        0.067      342.177       17.404      863.440
03/23/2014  16:11:00       55.195      230.892      -23.229       83.348       95.883       51.128     6946.903     9193.477     2614.106        3.782        0.938      237.397       53.037        0.050      342.075       17.227      863.434
03/23/2014  16:12:00      186.899      124.038       12.826      119.030       67.917       49.675    14168.236     4612.762     2467.583        3.586        1.062      224.314       40.312        0.032      342.132       17.324      863.421
03/23/2014  16:13:00      104.886       80.692       22.881       99.012       70.658       48.657     9803.430     4992.622     2367.537        1.760        0.858      132.334       26.310        0.040      342.289       17.593      863.420
03/23/2014  16:14:00       68.477      150.772       -4.902       86.487       90.919       57.882     7480.034     8266.256     3350.353        2.327        0.955      165.594       51.844        0.098      342.536       18.012      863.415
03/23/2014  16:15:00       43.892      177.224       -9.392       72.622      108.196       63.949     5273.883    11706.458     4089.416        2.724        1.053      182.579       58.749        0.104      342.171       17.391      863.427
03/23/2014  16:16:00      173.150       91.422       12.607       88.179       48.648       45.735     7775.594     2366.590     2091.734        2.536        0.612      195.803       24.598        0.016      342.065       17.211      863.419
03/23/2014  16:17:00      130.884       65.601       50.905       83.725       84.110       62.732     7009.867     7074.446     3935.336        2.102        0.901      146.404       37.165        0.064      342.113       17.294      863.378
03/23/2014  16:18:00      138.598       90.363       22.928       89.843       58.265       52.080     8071.800     3394.827     2712.364        2.104        0.709      165.454       39.737        0.058      342.312       17.633      863.379
03/23/2014  16:19:00      170.255      125.674       13.098      125.472       76.856       63.318    15743.187     5906.855     4009.153        3.530        1.283      211.615       40.751        0.037      342.171       17.390      863.369
03/23/2014  16:20:00       43.487      190.972      -22.459       63.092       94.948       53.851     3980.551     9015.111     2899.922        2.738        0.795      195.861       44.617        0.052      342.167       17.386      863.407
03/23/2014  16:21:00       14.523       67.457        9.541       33.125       52.016       28.352     1097.287     2705.689      803.855        0.473        0.230       69.003       28.072        0.166      342.220       17.478      863.404
03/23/2014  16:22:00       26.953       19.036       17.549       44.538       41.494       26.557     1983.644     1721.776      705.295        0.290        0.221       32.997       14.649        0.197      342.392       17.770      863.371
03/23/2014  16:23:00       22.054       21.147       13.644       32.592       25.168       21.329     1062.263      633.408      454.941        0.163        0.108       30.555       18.161        0.353      342.568       18.070      863.375
03/23/2014  16:24:00      -20.877      104.380       -8.457       44.665       69.720       33.377     1995.002     4860.880     1114.002        0.968        0.398      106.447       37.166        0.122      342.265       17.554      863.379
03/23/2014  16:25:00      -48.253      130.480      -20.661       40.968       52.154       27.912     1678.374     2720.088      779.105        1.248        0.259      139.116       27.291        0.038      342.157       17.370      863.375
03/23/2014  16:26:00     -159.070       51.396      -30.181       93.887       34.371       29.360     8814.762     1181.374      861.997        1.986        0.543      167.166       32.807        0.039      342.174       17.398      863.378
03/23/2014  16:27:00      -82.341       64.886      -18.356       33.296       43.353       24.614     1108.642     1879.442      605.841        0.746        0.180      104.834       17.319        0.027      342.126       17.318      863.384
03/23/2014  16:28:00      -40.250       24.807      -10.838       20.526       29.009       22.933      421.321      841.528      525.914        0.207        0.089       47.281       16.523        0.122      342.256       17.539      863.378
03/23/2014  16:29:00        2.496       -8.782      -14.327       13.488       39.736       20.579      181.938     1578.985      423.485        0.124        0.109        9.130       21.060        5.321      342.197       17.439      863.378
03/23/2014  16:30:00       12.528      -34.665       12.923       34.665       29.956       18.323     1201.695      897.344      335.731        0.198        0.122       36.859        4.432        0.014      342.136       17.335      863.374
03/23/2014  16:31:00       61.216       52.310        1.850       19.157       22.130       19.929      366.992      489.756      397.179        0.387        0.063       80.521       11.269        0.020      342.142       17.345      863.363
03/23/2014  16:32:00       10.355       13.490       18.213       19.810       38.412       27.025      392.434     1475.485      730.338        0.161        0.130       17.006       19.523        1.318      342.425       17.826      863.356
03/23/2014  16:33:00       64.222       40.664       26.954       53.959       37.495       31.353     2911.534     1405.842      982.993        0.590        0.265       76.014       24.480        0.104      342.381       17.751      863.363
03/23/2014  16:34:00       45.761      -12.744       15.600       36.710       18.559       21.273     1347.646      344.454      452.522        0.232        0.107       47.503        6.366        0.018      342.446       17.860      863.362
03/23/2014  16:35:00       21.415       17.035       21.854       21.814       13.919       15.739      475.860      193.736      247.713        0.107        0.046       27.364       13.880        0.257      342.532       18.007      863.362
03/23/2014  16:36:00       28.436       20.129        5.439       35.397       18.518       20.819     1252.943      342.915      433.421        0.164        0.101       34.840       23.368        0.450      342.378       17.746      863.362
03/23/2014  16:37:00       58.378       20.493       14.060       43.217       46.075       38.578     1867.722     2122.923     1488.299        0.475        0.274       61.871       27.456        0.197      342.473       17.907      863.355
03/23/2014  16:38:00       33.366        3.558       19.008       33.597       52.082       38.456     1128.773     2712.561     1478.832        0.340        0.266       33.556       30.051        0.802      342.455       17.877      863.338
03/23/2014  16:39:00      116.694       96.501       19.967       58.305       43.887       42.499     3399.416     1926.090     1806.135        1.523        0.357      151.426       30.446        0.040      342.343       17.687      863.335
03/23/2014  16:40:00       85.030       61.215       16.814       43.896       29.166       33.198     1926.885      850.640     1102.080        0.757        0.194      104.774       23.641        0.051      342.224       17.483      863.320
03/23/2014  16:41:00      100.766      -48.329       26.272       91.546       71.319       58.276     8380.617     5086.461     3396.038        1.502        0.843      111.756       43.969        0.155      342.505       17.959      863.311
03/23/2014  16:42:00       59.908       60.292       80.302       66.172       91.015       46.595     4378.776     8283.792     2171.051        1.425        0.742       84.995       42.366        0.248      342.468       17.898      863.311
03/23/2014  16:43:00       75.059       71.980       63.155       75.719       60.194       56.086     5733.326     3623.267     3145.651        1.365        0.625      103.995       54.438        0.274      342.385       17.757      863.320
03/23/2014  16:44:00       21.619       25.304       51.481       49.575       35.586       24.901     2457.710     1266.370      620.066        0.405        0.217       33.282       19.267        0.335      342.652       18.210      863.284
03/23/2014  16:45:00       -3.042        4.610       60.197       31.454       58.261       37.203      989.352     3394.288     1384.078        0.471        0.288        5.523       40.657       54.185      342.939       18.701      863.278
03/23/2014  16:46:00       25.136       13.731       60.956       32.489       43.398       37.027     1055.533     1883.392     1370.969        0.442        0.215       28.642       36.120        1.590      342.801       18.467      863.290
03/23/2014  16:47:00       60.768      -48.143       21.120       34.737       46.454       28.099     1206.654     2157.930      789.534        0.530        0.208       77.527       29.730        0.147      342.526       17.998      863.292
03/23/2014  16:48:00       15.783       -4.504       37.071       34.727       62.833       27.927     1205.964     3947.973      779.919        0.379        0.297       16.413       33.122        4.072      342.708       18.306      863.276
03/23/2014  16:49:00       84.769       22.360       47.173       61.816      108.350       59.294     3821.216    11739.766     3515.793        1.449        0.954       87.668       58.975        0.453      342.566       18.064      863.261
03/23/2014  16:50:00      151.057      122.400       31.604       78.759       42.316       54.483     6202.951     1790.633     2968.380        2.488        0.548      194.422       41.777        0.046      342.285       17.585      863.288
03/23/2014  16:51:00       20.244       95.932      -10.282       34.886       45.859       32.296     1217.010     2103.061     1043.000        0.704        0.218       98.045       26.904        0.075      342.078       17.236      863.293
03/23/2014  16:52:00       24.148       16.367       11.701       36.920       47.055       19.704     1363.104     2214.127      388.252        0.248        0.198       29.172       15.366        0.277      342.266       17.555      863.292
03/23/2014  16:53:00       70.108      -42.505       24.137       53.828       55.038       33.479     2897.475     3029.198     1120.875        0.717        0.352       81.987       33.347        0.165      342.337       17.675      863.295
03/23/2014  16:54:00       83.419      -19.164       40.393       65.619       84.351       49.262     4305.791     7115.174     2426.766        1.140        0.692       85.592       52.128        0.371      342.436       17.845      863.293
03/23/2014  16:55:00       46.361      -59.344      -13.982       65.436       72.623       35.382     4281.893     5274.059     1251.878        0.834        0.540       75.307       43.181        0.329      342.436       17.843      863.294
03/23/2014  16:56:00       28.194      -16.231       25.472       49.790       62.243       50.062     2479.057     3874.151     2506.227        0.528        0.443       32.532       58.018        3.180      342.438       17.847      863.315
03/23/2014  16:57:00       22.619        9.193       40.953       28.038       54.566       39.409      786.128     2977.455     1553.036        0.379        0.266       24.416       37.903        2.410      342.250       17.528      863.331
03/23/2014  16:58:00       30.010      -23.647       13.111       33.107       37.632       15.345     1096.076     1416.199      235.465        0.219        0.137       38.207       10.139        0.070      342.329       17.662      863.331
03/23/2014  16:59:00       46.032       32.042       11.906       46.839       32.604       25.973     2193.878     1063.008      674.580        0.361        0.197       56.086       23.614        0.177      342.384       17.755      863.324
03/23/2014  17:00:00        9.452       -0.310        5.168       15.888       31.259       17.170      252.422      977.143      294.818        0.082        0.076        9.457        7.183        0.577      342.478       17.915      863.315
03/23/2014  17:01:00       56.467        2.862       28.897       41.960       24.927       28.656     1760.628      621.331      821.139        0.362        0.160       56.540       23.241        0.169      342.478       17.916      863.323
03/23/2014  17:02:00      102.561       58.019       31.529       54.256       58.217       31.646     2943.754     3389.258     1001.484        1.111        0.367      117.834       25.804        0.048      342.444       17.857      863.330
03/23/2014  17:03:00      101.892       86.546       11.704       78.911       62.128       39.906     6226.904     3859.837     1592.452        1.484        0.584      133.687       33.201        0.062      342.574       18.078      863.338
03/23/2014  17:04:00      114.289      129.442       14.559       88.169       94.270       70.353     7773.727     8886.833     4949.593        2.582        1.081      172.677       67.662        0.154      342.400       17.781      863.341
03/23/2014  17:05:00       56.118      260.261      -13.364      122.032      108.022       70.739    14891.699    11668.665     5004.073        5.131        1.578      266.243       70.740        0.071      342.294       17.600      863.345
03/23/2014  17:06:00       63.350       65.905        3.704       80.503       71.966       51.026     6480.782     5179.146     2603.620        1.131        0.713       91.415       27.822        0.093      342.570       18.072      863.345
03/23/2014  17:07:00       51.107       65.108        5.474       72.843       93.440       40.915     5306.125     8730.955     1674.070        1.129        0.786       82.771       31.059        0.141      342.579       18.087      863.356
03/23/2014  17:08:00       17.343      211.629      -33.439       58.185       75.863       30.558     3385.457     5755.137      933.790        2.814        0.504      212.338       34.019        0.026      342.381       17.747      863.347
03/23/2014  17:09:00       69.324      255.545      -25.477       83.167      122.233       63.833     6916.814    14941.015     4074.606        4.834        1.297      264.781       66.698        0.063      342.447       17.859      863.337
03/23/2014  17:10:00       27.602      244.105      -19.099      108.641      157.156       62.343    11802.905    24697.995     3886.676        5.054        2.019      245.660       71.461        0.085      342.333       17.668      863.336
03/23/2014  17:11:00      148.408      234.634       -2.640      191.416      140.476       90.647    36639.967    19733.411     8216.904        7.083        3.230      277.629       82.862        0.089      342.188       17.420      863.344
03/23/2014  17:12:00      160.747      138.076       22.413       97.789       68.849       70.850     9562.749     4740.203     5019.689        3.236        0.966      211.907       40.873        0.037      342.139       17.338      863.362
03/23/2014  17:13:00       75.367      115.451        5.643       77.528       65.970       51.684     6010.565     4352.007     2671.202        1.604        0.652      137.874       39.828        0.083      342.200       17.441      863.349
03/23/2014  17:14:00      218.233      199.096       11.610      142.355      100.503       94.156    20264.841    10100.953     8865.371        6.331        1.962      295.406       59.637        0.041      342.179       17.406      863.330
03/23/2014  17:15:00      260.839      181.683       17.254      134.155       88.907       84.604    17997.588     7904.429     7157.764        6.720        1.653      317.877       46.826        0.022      342.102       17.273      863.330
03/23/2014  17:16:00      137.592      119.147       20.705      109.606       81.726       62.555    12013.476     6679.087     3913.170        2.808        1.130      182.010       39.830        0.048      342.089       17.253      863.340
03/23/2014  17:17:00      271.605      165.412       34.291       81.829       74.318       77.780     6695.927     5523.148     6049.754        6.028        0.913      318.010       36.205        0.013      342.145       17.346      863.328
03/23/2014  17:18:00      151.773      146.412        6.050      149.334       97.527       78.162    22300.728     9511.489     6109.329        4.121        1.896      210.883       56.070        0.071      342.223       17.479      863.325
03/23/2014  17:19:00      218.510      128.117       35.933      110.382       85.450       60.415    12184.194     7301.745     3649.931        4.429        1.157      253.299       36.952        0.021      342.178       17.401      863.317
03/23/2014  17:20:00      138.281      119.675       30.591       94.291       68.910       71.591     8890.839     4748.532     5125.329        2.657        0.938      182.877       62.675        0.117      342.068       17.217      863.307
03/23/2014  17:21:00      162.694      115.311       45.681      125.886       62.444       65.263    15847.397     3899.244     4259.292        3.293        1.200      199.414       54.826        0.076      342.283       17.583      863.294
03/23/2014  17:22:00      244.040      168.014       16.793      116.840       74.206       61.829    13651.688     5506.524     3822.839        5.552        1.149      296.283       29.066        0.010      342.091       17.256      863.296
03/23/2014  17:23:00       99.236       97.104        1.606       86.658       68.136       54.606     7509.536     4642.547     2981.810        1.720        0.757      138.841       44.861        0.104      342.232       17.495      863.283
03/23/2014  17:24:00      132.448       89.557       49.306       99.072       49.612       48.869     9815.286     2461.336     2388.164        2.133        0.733      159.885       39.840        0.062      342.366       17.722      863.275
03/23/2014  17:25:00      134.284       60.708       21.256       74.812       48.891       44.059     5596.830     2390.343     1941.220        1.605        0.496      147.369       33.182        0.051      342.111       17.290      863.271
03/23/2014  17:26:00       54.850       44.866       28.052       67.773       46.701       38.285     4593.239     2180.942     1465.711        0.702        0.412       70.862       35.697        0.254      342.330       17.665      863.265
03/23/2014  17:27:00        7.037       24.011       44.258       34.169       57.721       33.254     1167.535     3331.668     1105.836        0.409        0.280       25.021       19.849        0.629      342.456       17.878      863.252
03/23/2014  17:28:00      201.440      155.156       56.066      125.531       91.672       80.338    15757.944     8403.706     6454.118        4.920        1.531      254.266       47.138        0.034      342.292       17.598      863.240
03/23/2014  17:29:00      122.575       87.702       78.540      125.308       96.227       70.052    15702.001     9259.632     4907.325        2.937        1.493      150.719       67.035        0.198      342.345       17.689      863.226
03/23/2014  17:30:00      201.534      148.863       19.468       86.975       75.501       64.549     7564.702     5700.417     4166.543        4.029        0.872      250.551       46.928        0.035      342.117       17.298      863.241
03/23/2014  17:31:00      132.449       85.193       61.830      131.966       76.494       69.942    17415.088     5851.269     4891.834        2.839        1.408      157.482       64.744        0.169      342.329       17.659      863.241
03/23/2014  17:32:00        7.906       65.790       90.809       70.846       62.614       54.880     5019.137     3920.459     3011.784        1.229        0.598       66.263       49.881        0.567      342.342       17.684      863.243
03/23/2014  17:33:00       99.071       83.175       70.691       73.753       76.753       56.370     5439.465     5891.047     3177.535        1.812        0.725      129.357       46.414        0.129      342.168       17.387      863.247
03/23/2014  17:34:00       95.930       82.956       86.807      108.509       88.582       72.384    11774.301     7846.720     5239.479        2.424        1.243      126.824       68.872        0.295      342.200       17.441      863.228
03/23/2014  17:35:00      148.108      109.371       97.144       78.077       72.344       60.132     6096.017     5233.602     3615.889        2.914        0.747      184.115       50.654        0.076      342.223       17.480      863.238
03/23/2014  17:36:00      140.080       91.056       71.497       79.778       71.142       61.340     6364.475     5061.177     3762.636        2.410        0.759      167.074       50.636        0.092      342.294       17.600      863.246
03/23/2014  17:37:00      103.882      112.620       99.676      109.791       82.724       56.556    12054.110     6843.223     3198.613        2.775        1.105      153.215       40.525        0.070      342.323       17.649      863.243
03/23/2014  17:38:00       66.518      -74.541       42.322       67.688      106.305       55.102     4581.676    11300.648     3036.234        1.534        0.946       99.905       54.500        0.298      342.523       17.992      863.224
03/23/2014  17:39:00      111.946       65.604       86.942      110.775      110.326       92.579    12271.118    12171.804     8570.876        2.870        1.651      129.753       85.294        0.432      342.435       17.840      863.221
03/23/2014  17:40:00      129.142       77.638       95.337       95.996       76.329       56.496     9215.190     5826.178     3191.836        2.501        0.912      150.683       48.305        0.103      342.311       17.630      863.268
03/23/2014  17:41:00       69.666       16.763       38.828       62.197       42.510       38.924     3868.442     1807.137     1515.059        0.692        0.360       71.654       27.047        0.142      342.403       17.788      863.274
03/23/2014  17:42:00       53.346       19.755        1.924       44.351       46.321       30.445     1966.993     2145.653      926.882        0.414        0.252       56.887       14.361        0.064      342.444       17.857      863.271
03/23/2014  17:43:00      104.041       43.087       13.498       75.371       72.092       44.503     5680.794     5197.294     1980.476        1.286        0.643      112.610       23.703        0.044      342.453       17.873      863.270
03/23/2014  17:44:00       47.544       51.036       61.316       53.652       49.371       40.936     2878.586     2437.455     1675.742        0.781        0.350       69.750       30.603        0.193      342.399       17.780      863.281
03/23/2014  17:45:00      144.405       64.322       23.993       59.520       63.022       46.379     3542.635     3971.745     2150.968        1.761        0.483      158.082        6.628        0.002      342.352       17.699      863.279
03/23/2014  17:46:00      179.438       95.678       34.034       78.022       58.247       53.448     6087.474     3392.739     2856.651        2.742        0.617      203.353       40.084        0.039      342.310       17.628      863.274
03/23/2014  17:47:00       93.977       84.811       43.854       55.174       50.523       48.413     3044.193     2552.532     2343.812        1.294        0.397      126.588       33.476        0.070      342.470       17.901      863.284
03/23/2014  17:48:00      104.908       41.976        3.118       70.559       48.820       45.969     4978.617     2383.388     2113.184        1.112        0.474      112.994       26.554        0.055      342.427       17.827      863.291
03/23/2014  17:49:00      170.270      122.951       36.508       60.411       51.613       56.907     3649.434     2663.940     3238.361        2.750        0.478      210.021       44.432        0.045      342.326       17.655      863.307
03/23/2014  17:50:00      160.133       88.284       14.458       57.255       53.742       43.495     3278.096     2888.225     1891.801        2.085        0.403      182.856       32.908        0.032      342.171       17.391      863.314
03/23/2014  17:51:00       56.096       53.976      -17.032       42.132       68.240       30.460     1775.132     4656.700      927.837        0.685        0.368       77.847        3.909        0.003      342.126       17.318      863.314
03/23/2014  17:52:00       51.173      -48.775        5.903       39.608       57.834       38.882     1568.756     3344.773     1511.779        0.573        0.321       70.694       32.222        0.208      342.298       17.610      863.303
03/23/2014  17:53:00       29.746     -112.062      -25.591       42.565       33.851       26.193     1811.800     1145.904      686.070        0.887        0.182      115.943       21.776        0.035      342.099       17.272      863.312
03/23/2014  17:54:00        7.615      -10.026       35.144       31.787       48.405       25.844     1010.437     2343.078      667.914        0.271        0.201       12.590       26.467        4.419      342.384       17.756      863.317
03/23/2014  17:55:00      119.124       75.835       31.241      103.299       52.379       59.543    10670.607     2743.545     3545.352        1.894        0.848      141.214       37.827        0.072      342.217       17.471      863.312
03/23/2014  17:56:00      159.066      139.307       22.578      121.899       78.684       62.620    14859.345     6191.228     3921.244        3.509        1.249      211.444       39.813        0.035      342.137       17.335      863.312
03/23/2014  17:57:00      144.577      136.354       30.704      109.879       77.526       53.573    12073.384     6010.342     2870.034        3.069        1.048      198.734       35.364        0.032      342.142       17.341      863.307
03/23/2014  17:58:00      274.233      185.687       34.930       88.964       69.069       63.250     7914.660     4770.486     4000.551        6.379        0.834      331.185       34.565        0.011      342.064       17.209      863.311
03/23/2014  17:59:00      225.641       90.632       42.632      109.204       83.616       62.836    11925.597     6991.714     3948.406        4.190        1.143      243.163       40.485        0.028      342.115       17.296      863.294
03/23/2014  18:00:00      159.729      164.832       16.797       95.352       59.239       65.245     9092.055     3509.249     4256.924        3.491        0.843      229.528       38.281        0.028      342.118       17.300      863.309
03/23/2014  18:01:00      161.326       77.312       26.007       87.214       51.317       44.839     7606.286     2633.385     2010.514        2.246        0.613      178.894       24.428        0.019      342.094       17.259      863.303
03/23/2014  18:02:00       91.024       79.725       11.141       91.879       51.714       39.961     8441.723     2674.307     1596.871        1.374        0.636      121.002       37.599        0.097      342.106       17.281      863.312
03/23/2014  18:03:00       47.027       67.421       -3.374       49.884       51.233       36.090     2488.423     2624.863     1302.515        0.659        0.321       82.202       34.241        0.174      342.236       17.504      863.313
03/23/2014  18:04:00       58.185       35.189       15.194       52.685       36.044       33.824     2775.739     1299.149     1144.072        0.504        0.261       67.998       15.353        0.051      342.196       17.438      863.303
03/23/2014  18:05:00       76.277       52.455       11.319       55.889       53.088       33.077     3123.575     2818.373     1094.118        0.787        0.352       92.573       22.474        0.059      342.222       17.481      863.311
03/23/2014  18:06:00      113.044       68.171       15.431       96.011       69.042       39.027     9218.106     4766.856     1523.104        1.658        0.775      132.008       18.821        0.020      342.197       17.436      863.308
03/23/2014  18:07:00      165.885      135.084       35.494      100.764       65.164       50.825    10153.329     4246.295     2583.167        3.200        0.849      213.929       44.494        0.043      342.091       17.255      863.307
03/23/2014  18:08:00      134.063      108.829       17.137       75.974       57.868       43.112     5772.038     3348.662     1858.617        2.054        0.549      172.675       31.958        0.034      342.030       17.152      863.320
03/23/2014  18:09:00      193.847      147.914       12.363       83.969       66.834       58.889     7050.871     4466.835     3467.870        3.729        0.749      243.834       44.785        0.034      342.058       17.199      863.310
03/23/2014  18:10:00      161.167       89.924       24.321       97.147       75.163       45.501     9437.447     5649.534     2070.342        2.590        0.858      184.557       44.808        0.059      342.214       17.464      863.307
03/23/2014  18:11:00      122.766      111.277       12.793      105.158       71.970       56.261    11058.129     5179.639     3165.332        2.351        0.970      165.692       32.676        0.039      342.153       17.364      863.320
03/23/2014  18:12:00      210.387      152.477       13.643      120.706       78.691       67.473    14569.960     6192.265     4552.631        4.650        1.266      259.831       48.306        0.035      342.056       17.193      863.327
03/23/2014  18:13:00      184.053      153.550       32.380      106.805       87.800       66.002    11407.364     7708.852     4356.318        4.098        1.174      239.693       48.123        0.040      341.973       17.054      863.325
03/23/2014  18:14:00      151.225      101.571       18.979      113.953       84.117       57.220    12985.195     7075.653     3274.147        2.844        1.167      182.169       39.177        0.046      341.991       17.087      863.347
03/23/2014  18:15:00      167.008      130.701        1.689       88.105       69.073       67.046     7762.528     4771.078     4495.223        3.100        0.851      212.072       41.506        0.038      341.942       17.003      863.364
03/23/2014  18:16:00      143.770       98.247       12.096       70.324       58.173       42.151     4945.409     3384.117     1776.749        2.029        0.505      174.132       12.830        0.005      341.940       16.999      863.357
03/23/2014  18:17:00      191.452      107.312       41.458       62.489       49.732       36.093     3904.888     2473.260     1302.682        2.878        0.384      219.476       19.209        0.008      341.950       17.015      863.357
03/23/2014  18:18:00      164.423       92.238       13.245       61.428       57.126       41.476     3773.410     3263.329     1720.297        2.224        0.438      188.528       33.879        0.032      341.929       16.980      863.343
03/23/2014  18:19:00      179.710      143.407       25.662       82.126       65.661       44.759     6744.734     4311.315     2003.366        3.329        0.653      229.915       39.779        0.030      341.961       17.034      863.353
03/23/2014  18:20:00       93.995      136.621       -6.922       81.328       93.082       46.301     6614.267     8664.247     2143.771        2.248        0.871      165.832       48.724        0.086      341.970       17.051      863.352
03/23/2014  18:21:00      116.590       74.681       10.170       93.884       58.774       40.944     8814.149     3454.356     1676.441        1.661        0.697      138.457       27.159        0.038      342.038       17.167      863.366
03/23/2014  18:22:00       63.687      129.306      -11.495       62.889       82.507       45.158     3955.045     6807.421     2039.237        1.685        0.640      144.140       44.770        0.096      342.020       17.135      863.379
03/23/2014  18:23:00      115.661      107.381        6.581       69.235       51.590       54.715     4793.451     2661.530     2993.776        1.770        0.522      157.823       32.446        0.042      341.971       17.053      863.396
03/23/2014  18:24:00      106.761       89.161        4.274       46.020       39.341       40.918     2117.886     1547.703     1674.276        1.235        0.267      139.096       28.278        0.041      341.899       16.931      863.399
03/23/2014  18:25:00       40.750       41.612        8.839       33.145       19.722       18.855     1098.565      388.974      355.493        0.266        0.092       58.242       14.119        0.059      341.923       16.971      863.393
03/23/2014  18:26:00       44.339       48.170        1.782       42.317       23.506       22.339     1790.719      552.539      499.027        0.357        0.142       65.469       15.671        0.057      341.975       17.061      863.405
03/23/2014  18:27:00       27.246      149.426      -24.094       33.508       43.998       23.540     1122.775     1935.843      554.116        1.363        0.181      151.889       20.458        0.018      341.968       17.051      863.403
03/23/2014  18:28:00      119.161      107.704        3.004       71.345       60.511       47.890     5090.137     3661.595     2293.442        1.843        0.552      160.622       33.519        0.044      341.954       17.025      863.412
03/23/2014  18:29:00       76.900       58.927       -3.909       85.803       58.124       30.864     7362.165     3378.444      952.577        1.055        0.585       96.882       30.215        0.097      341.954       17.023      863.415
03/23/2014  18:30:00       74.678       80.519       13.387       94.669       65.905       48.221     8962.145     4343.514     2325.298        1.393        0.782      109.818       42.081        0.147      341.949       17.016      863.419
03/23/2014  18:31:00      125.306      105.116        8.208       86.448       69.672       51.300     7473.230     4854.233     2631.709        2.089        0.748      163.557       40.178        0.060      341.923       16.973      863.428
03/23/2014  18:32:00      107.827      126.693        8.198       80.264       61.952       51.494     6442.314     3838.093     2651.593        2.034        0.647      166.366       38.564        0.054      341.888       16.912      863.438
03/23/2014  18:33:00      102.426      157.614       -2.507       74.701      113.935       81.417     5580.186    12981.271     6628.782        3.026        1.260      187.971       78.385        0.174      341.875       16.889      863.432
03/23/2014  18:34:00      106.194      172.417       -5.815       79.854       98.073       57.538     6376.716     9618.250     3310.596        3.017        0.965      202.496       66.141        0.107      341.884       16.902      863.441
03/23/2014  18:35:00      116.645      139.999        0.697       83.864       90.512       65.191     7033.235     8192.390     4249.893        2.634        0.974      182.225       56.795        0.097      341.855       16.854      863.444
03/23/2014  18:36:00       66.514       87.549        7.048       70.259       71.033       44.111     4936.294     5045.670     1945.813        1.203        0.596      109.950       36.337        0.109      341.822       16.802      863.448
03/23/2014  18:37:00       84.076      116.610        8.631       68.383       72.932       65.759     4676.171     5319.077     4324.293        1.753        0.716      143.759       53.600        0.139      341.826       16.806      863.444
03/23/2014  18:38:00       80.428      166.187      -12.968       77.559       70.179       54.259     6015.451     4925.031     2944.067        2.407        0.694      184.626       39.590        0.046      341.840       16.830      863.445
03/23/2014  18:39:00      110.941      129.722        5.847      112.511       99.606       65.453    12658.700     9921.424     4284.141        2.801        1.343      170.692       62.615        0.135      341.821       16.796      863.439
03/23/2014  18:40:00       44.174      115.603       -1.796       63.667       87.671       57.350     4053.488     7686.225     3289.030        1.517        0.751      123.755       55.081        0.198      341.834       16.820      863.453
03/23/2014  18:41:00       52.367      131.358      -17.960       57.378       75.017       46.270     3292.190     5627.524     2140.911        1.569        0.553      141.412       45.256        0.102      341.795       16.753      863.475
03/23/2014  18:42:00       38.852      177.776      -20.125       48.166       68.426       40.175     2319.953     4682.052     1614.007        2.107        0.431      181.971       41.208        0.051      341.789       16.744      863.485
03/23/2014  18:43:00       52.154       83.813        8.413       49.812       54.723       40.945     2481.221     2994.591     1676.511        0.848        0.358       98.715       30.931        0.098      341.775       16.723      863.507
03/23/2014  18:44:00       51.768      195.734      -22.924       67.698      112.728       48.827     4582.978    12707.561     2384.066        3.059        0.984      202.464       51.577        0.065      341.691       16.577      863.537
03/23/2014  18:45:00       42.843      259.817      -34.381       78.563      121.529       53.822     6172.094    14769.269     2896.807        4.718        1.192      263.326       65.498        0.062      341.633       16.480      863.547
03/23/2014  18:46:00       43.187      195.645      -16.018       87.102      133.062       60.046     7586.682    17705.452     3605.493        3.464        1.445      200.355       69.889        0.122      341.601       16.425      863.556
03/23/2014  18:47:00       15.193      258.764      -35.549       61.029       96.097       41.797     3724.479     9234.563     1746.962        4.158        0.735      259.209       47.340        0.033      341.609       16.436      863.570
03/23/2014  18:48:00      -14.212      255.121      -33.038       52.554       59.319       31.832     2761.884     3518.713     1013.272        3.684        0.365      255.516       24.842        0.009      341.592       16.406      863.588
03/23/2014  18:49:00        9.617      317.282      -38.561       83.490      126.851       59.964     6970.625    16091.218     3595.672        6.445        1.333      317.427       67.484        0.045      341.523       16.291      863.593
03/23/2014  18:50:00       50.403      291.239      -36.483       70.645      114.777       63.079     4990.679    13173.844     3978.967        5.541        1.107      295.568       68.682        0.054      341.495       16.243      863.594
03/23/2014  18:51:00       18.203      303.842      -25.596       86.334      144.003       71.938     7453.522    20736.871     5175.059        6.333        1.668      304.387       79.856        0.069      341.450       16.168      863.608
03/23/2014  18:52:00       41.622      215.749      -17.231      107.913      125.602       75.114    11645.259    15775.745     5642.179        4.081        1.653      219.728       73.451        0.112      341.425       16.126      863.621
03/23/2014  18:53:00       23.472      251.401       -9.222       86.483      172.518       79.952     7479.286    29762.463     6392.278        5.373        2.182      252.494       97.644        0.150      341.381       16.052      863.622
03/23/2014  18:54:00       32.153      181.702      -16.265       63.149      117.232       64.795     3987.752    13743.293     4198.439        2.812        1.096      184.525       65.279        0.125      341.348       15.997      863.618
03/23/2014  18:55:00       30.091      223.621      -31.766       58.107      101.312       34.424     3376.392    10264.163     1184.988        3.337        0.741      225.636       42.465        0.035      341.334       15.974      863.631
03/23/2014  18:56:00       13.102      198.659      -17.052       69.773      126.112       52.398     4868.334    15904.357     2745.534        3.172        1.176      199.091       60.703        0.093      341.276       15.873      863.623
03/23/2014  18:57:00       52.256      129.876        3.705       81.812       94.355       58.001     6693.245     8902.881     3364.088        1.928        0.948      139.994       56.288        0.162      341.241       15.817      863.640
03/23/2014  18:58:00       48.892      148.926       22.668       73.816      128.561       81.288     5448.801    16527.938     6607.740        2.683        1.429      156.746       85.587        0.298      341.239       15.812      863.641
03/23/2014  18:59:00       19.271      317.233      -49.667       67.774      139.777       55.614     4593.323    19537.636     3092.866        6.534        1.361      317.818       68.032        0.046      341.256       15.839      863.646
03/23/2014  19:00:00       22.413      276.574      -23.347       58.219      101.747       56.253     3389.476    10352.355     3164.397        4.722        0.845      277.481       58.169        0.044      341.208       15.758      863.654
03/23/2014  19:01:00       23.232      233.734      -23.528       81.304      117.530       56.529     6610.393    13813.369     3195.507        3.967        1.181      234.886       60.934        0.067      341.196       15.739      863.666
03/23/2014  19:02:00       43.274      359.368      -54.768       64.758       93.394       52.207     4193.553     8722.438     2725.577        7.483        0.782      361.964       49.038        0.018      341.231       15.797      863.662
03/23/2014  19:03:00       41.470      123.735       -8.612       69.383       98.824       64.513     4813.965     9766.219     4161.969        1.792        0.937      130.500       58.501        0.201      341.160       15.680      863.663
03/23/2014  19:04:00        5.179      198.832      -30.843       63.163       65.470       39.621     3989.560     4286.269     1569.789        2.518        0.492      198.900       31.672        0.025      341.174       15.703      863.672
03/23/2014  19:05:00       -4.995      329.512      -44.165       73.427      103.132       44.481     5391.545    10636.201     1978.538        6.428        0.900      329.549       44.186        0.018      341.169       15.692      863.663
03/23/2014  19:06:00      -18.399      231.497      -19.383       64.193      128.786       47.970     4120.727    16585.709     2301.143        3.865        1.150      232.227       63.123        0.074      341.111       15.594      863.662
03/23/2014  19:07:00       46.907      217.231      -22.870       81.876      115.742       69.258     6703.611    13396.206     4796.674        3.740        1.245      222.238       67.958        0.094      341.107       15.588      863.660
03/23/2014  19:08:00      -11.992      230.810      -28.790       87.135       98.572       58.159     7592.436     9716.495     3382.459        3.747        1.035      231.122       64.367        0.078      341.105       15.584      863.668
03/23/2014  19:09:00       18.013      322.556      -52.278       75.054       71.742       43.068     5633.059     5146.958     1854.894        5.987        0.632      323.058       40.603        0.016      341.124       15.614      863.668
03/23/2014  19:10:00        6.862      204.507      -26.006       53.948       88.439       41.749     2910.345     7821.397     1743.006        2.751        0.624      204.622       43.551        0.045      341.066       15.518      863.677
03/23/2014  19:11:00       14.330      261.289      -39.522       74.647       79.230       43.014     5572.107     6277.468     1850.216        4.187        0.685      261.682       41.062        0.025      341.075       15.534      863.685
03/23/2014  19:12:00       49.771      309.097      -43.531       87.811      106.905       70.247     7710.794    11428.655     4934.596        6.199        1.204      313.078       66.359        0.045      341.057       15.501      863.692
03/23/2014  19:13:00      -28.127      213.631      -24.106       66.931       69.439       44.863     4479.825     4821.724     2012.699        2.916        0.566      215.475       41.167        0.037      341.060       15.509      863.700
03/23/2014  19:14:00      -16.230      271.476      -40.534       68.833      111.626       46.866     4737.965    12460.458     2196.407        4.750        0.970      271.960       53.036        0.038      341.064       15.514      863.702
03/23/2014  19:15:00      -69.243      271.183      -35.128       58.109       79.943       41.543     3376.712     6390.952     1725.817        4.553        0.575      279.884       39.900        0.020      341.035       15.466      863.701
03/23/2014  19:16:00      -54.915      254.173      -32.579       80.263       83.476       41.897     6442.220     6968.200     1755.330        4.192        0.758      260.038       40.297        0.024      341.002       15.408      863.710
03/23/2014  19:17:00      -42.758      240.960      -37.426       78.373       98.092       48.693     6142.322     9622.123     2371.050        3.971        0.907      244.724       38.003        0.024      340.979       15.370      863.701
03/23/2014  19:18:00      -12.980      309.113      -48.300       80.228      116.046       44.026     6436.587    13466.644     1938.247        5.994        1.092      309.386       56.844        0.034      341.009       15.420      863.701
03/23/2014  19:19:00      -62.970      208.154      -35.702       70.081       99.598       40.122     4911.385     9919.836     1609.789        3.250        0.822      217.471       37.223        0.029      341.012       15.426      863.703
03/23/2014  19:20:00      -79.718      204.846      -33.408       74.384       92.492       48.642     5532.991     8554.761     2366.047        3.294        0.823      219.811       44.335        0.041      340.997       15.400      863.707
03/23/2014  19:21:00      -50.889      302.782      -43.420       69.118       91.629       47.136     4777.253     8395.852     2221.772        5.577        0.770      307.029       36.803        0.014      341.003       15.409      863.713
03/23/2014  19:22:00      -64.703      262.209      -38.259       53.887       97.140       37.224     2903.781     9436.221     1385.612        4.406        0.686      270.074       44.466        0.027      340.999       15.404      863.714
03/23/2014  19:23:00      -64.718      233.501      -42.558       66.433       76.256       37.635     4413.314     5814.961     1416.410        3.608        0.582      242.304       30.259        0.016      340.992       15.392      863.711
03/23/2014  19:24:00      -71.305      256.277      -35.338       57.487      101.083       41.528     3304.754    10217.855     1724.594        4.363        0.762      266.012       45.118        0.029      340.970       15.356      863.710
03/23/2014  19:25:00      -73.907      296.099      -42.127       66.136       97.933       46.658     4373.944     9590.857     2176.987        5.552        0.807      305.183       47.917        0.025      340.927       15.281      863.714
03/23/2014  19:26:00      -86.894      164.391      -29.440       79.473       70.627       41.432     6315.921     4988.187     1716.644        2.423        0.651      185.943       23.953        0.017      340.939       15.304      863.722
03/23/2014  19:27:00      -69.782      190.208      -36.208       62.988      109.811       35.125     3967.519    12058.432     1233.762        2.981        0.863      202.605       41.570        0.042      341.002       15.409      863.738
03/23/2014  19:28:00      -58.962      172.307      -27.248       91.858      126.079       41.966     8437.823    15895.822     1761.160        3.000        1.305      182.116       51.337        0.079      340.976       15.368      863.744
03/23/2014  19:29:00      -87.161      121.868      -14.765       70.312       73.394       41.824     4943.724     5386.696     1749.276        1.737        0.604      149.829       38.207        0.065      340.901       15.241      863.748
03/23/2014  19:30:00      -98.086       96.671       -4.319       97.896       84.247       49.950     9583.556     7097.633     2495.048        1.908        0.959      137.717       67.302        0.239      340.855       15.162      863.755
03/23/2014  19:31:00      -77.538       86.303       -2.206       56.907       46.600       32.143     3238.362     2171.525     1033.156        0.995        0.322      116.019       20.883        0.032      340.855       15.163      863.760
03/23/2014  19:32:00     -104.479       84.170      -22.388       48.671       53.008       30.350     2368.890     2809.887      921.107        1.230        0.305      134.166       29.354        0.048      340.839       15.138      863.765
03/23/2014  19:33:00     -126.135      130.663      -26.252       46.172       70.307       33.362     2131.812     4943.061     1112.995        2.093        0.409      181.612       25.047        0.019      340.710       14.917      863.784
03/23/2014  19:34:00     -157.572      109.483      -25.993       71.905       56.167       38.617     5170.260     3154.704     1491.280        2.365        0.491      191.874       32.742        0.029      340.662       14.836      863.805
03/23/2014  19:35:00     -125.907       67.508      -19.191       68.210       54.112       31.619     4652.585     2928.155      999.759        1.468        0.429      142.863       26.798        0.035      340.542       14.634      863.817
03/23/2014  19:36:00      -96.002       41.085      -12.174       54.642       72.872       38.287     2985.761     5310.337     1465.920        1.041        0.488      104.423       29.586        0.080      340.513       14.585      863.827
03/23/2014  19:37:00     -120.210       65.317      -21.517       43.303       54.083       29.847     1875.135     2924.953      890.828        1.243        0.285      136.810       19.959        0.021      340.497       14.558      863.843
03/23/2014  19:38:00     -108.196      115.940       -5.003       68.992      133.328       45.864     4759.933    17776.461     2103.539        2.490        1.232      158.583       39.568        0.062      340.369       14.340      863.860
03/23/2014  19:39:00     -109.103      132.328      -12.453       55.975       58.140       46.511     3133.194     3380.289     2163.243        1.912        0.434      171.505       40.497        0.056      340.283       14.196      863.873
03/23/2014  19:40:00     -124.084       82.657      -14.375       63.818       56.351       37.456     4072.799     3175.395     1402.948        1.554        0.433      149.093       32.960        0.049      340.307       14.236      863.895
03/23/2014  19:41:00     -153.421       86.619      -33.114       80.242       66.985       39.108     6438.831     4486.930     1529.429        2.229        0.623      176.184       31.100        0.031      340.233       14.110      863.910
03/23/2014  19:42:00     -160.499      142.720      -40.920       51.859       61.064       33.214     2689.331     3728.769     1103.147        2.766        0.376      214.776       27.225        0.016      340.247       14.133      863.925
03/23/2014  19:43:00     -158.382      187.173      -39.341       67.647       84.867       51.781     4576.062     7202.473     2681.253        3.806        0.723      245.192       52.509        0.046      340.196       14.047      863.950
03/23/2014  19:44:00     -137.225       91.022      -17.757       87.986       61.458       47.400     7741.515     3777.122     2246.738        2.060        0.688      164.668       55.237        0.113      340.249       14.137      863.960
03/23/2014  19:45:00     -146.161      214.201      -37.201       71.543       88.969       50.402     5118.371     7915.523     2540.322        4.210        0.779      259.317       50.676        0.038      340.242       14.123      863.986
03/23/2014  19:46:00     -124.398      197.675      -22.071       54.928      121.874       56.569     3017.101    14853.165     3200.070        3.805        1.054      233.560       46.486        0.040      340.288       14.203      864.016
03/23/2014  19:47:00     -155.619      157.878      -32.434       86.190       65.178       41.494     7428.799     4248.222     1721.793        3.179        0.670      221.681       37.995        0.029      340.319       14.256      864.049
03/23/2014  19:48:00      -55.298      157.431      -25.226       59.675       48.620       34.491     3561.119     2363.888     1189.610        1.780        0.356      166.860       27.443        0.027      340.272       14.176      864.074
03/23/2014  19:49:00      -69.731       88.460      -12.666       49.348       46.783       30.994     2435.212     2188.659      960.630        0.922        0.279      112.639       20.707        0.034      340.289       14.208      864.101
03/23/2014  19:50:00      -41.612       30.921       -6.662       42.579       35.954       23.141     1813.003     1292.684      535.503        0.319        0.182       51.842       23.960        0.214      340.373       14.349      864.129
03/23/2014  19:51:00     -133.164      129.785      -39.533       73.981       76.088       36.998     5473.164     5789.440     1368.860        2.438        0.632      185.948       41.348        0.049      340.300       14.223      864.164
03/23/2014  19:52:00      -42.645      144.926      -11.113       66.355       90.090       49.426     4402.997     8116.280     2442.886        1.895        0.748      151.070       61.954        0.168      340.207       14.067      864.191
03/23/2014  19:53:00      -45.374      117.778      -20.580       48.042       71.829       24.251     2308.014     5159.382      588.135        1.220        0.403      126.216       18.368        0.021      340.236       14.116      864.219
03/23/2014  19:54:00      -24.000       67.598        3.850       39.995       54.536       29.885     1599.574     2974.190      893.139        0.531        0.273       71.732       26.861        0.140      340.218       14.087      864.238
03/23/2014  19:55:00      -86.576      155.682      -19.043       53.125       69.783       34.292     2822.288     4869.621     1175.967        2.048        0.443      178.136       26.295        0.022      340.202       14.057      864.261
03/23/2014  19:56:00       22.947      159.191      -25.524       53.467      107.137       33.497     2858.667    11478.420     1122.069        2.099        0.773      160.837       47.612        0.088      340.186       14.029      864.289
03/23/2014  19:57:00       18.725      173.245      -29.654       50.981       51.212       29.147     2599.045     2622.628      849.546        1.866        0.304      174.254       29.114        0.028      340.149       13.969      864.310
03/23/2014  19:58:00      -46.824      168.898      -26.509       77.428       80.961       47.206     5995.040     6554.749     2228.400        2.310        0.739      175.268       46.078        0.069      340.127       13.931      864.315
03/23/2014  19:59:00       -8.642       45.547       23.741       38.348       48.667       26.813     1470.557     2368.429      718.942        0.363        0.228       46.360       25.821        0.310      340.048       13.799      864.322
03/23/2014  20:00:00       28.477       34.668       41.520       43.584       33.616       33.691     1899.604     1130.048     1135.060        0.395        0.208       44.865       28.953        0.416      339.955       13.643      864.329
03/23/2014  20:01:00       62.448       52.945        9.946       31.906       37.462       34.291     1017.998     1403.375     1175.850        0.520        0.180       81.872       17.263        0.044      340.018       13.748      864.346
03/23/2014  20:02:00       46.429      130.442      -21.967       36.862       67.335       32.080     1358.798     4534.067     1029.110        1.329        0.346      138.459       37.589        0.074      340.030       13.767      864.373
03/23/2014  20:03:00       55.659       39.752       21.811       28.006       30.354       29.340      784.315      921.353      860.826        0.386        0.128       68.397       18.351        0.072      339.926       13.595      864.383
03/23/2014  20:04:00        9.662       57.593        4.746       44.266       33.966       38.381     1959.474     1153.680     1473.106        0.401        0.229       58.397       26.070        0.199      339.883       13.521      864.411
03/23/2014  20:05:00       29.105       97.015       -4.093       28.388       61.252       30.951      805.898     3751.842      957.982        0.789        0.276      101.287       36.017        0.126      339.883       13.522      864.440
03/23/2014  20:06:00        0.699      106.889      -12.290       46.886       56.511       23.458     2198.262     3193.519      550.261        0.876        0.297      106.891       28.357        0.070      339.943       13.623      864.471
03/23/2014  20:07:00        2.507       56.549       -8.379       22.812       27.683       20.069      520.397      766.368      402.770        0.248        0.084       56.604       16.264        0.083      339.944       13.626      864.486
03/23/2014  20:08:00       45.194       34.213        5.319       22.826       23.870       18.151      521.034      569.772      329.460        0.233        0.071       56.683       11.713        0.043      339.859       13.480      864.519
03/23/2014  20:09:00       22.283       40.618       30.657       39.075       25.151       32.825     1526.878      632.582     1077.504        0.316        0.162       46.329       32.449        0.491      339.818       13.412      864.517
03/23/2014  20:10:00       41.738       41.909       30.012       31.889       23.726       25.782     1016.888      562.944      664.697        0.332        0.112       59.147       17.631        0.089      339.818       13.411      864.531
03/23/2014  20:11:00       11.151       44.622       51.485       23.466       22.632       20.088      550.663      512.192      403.546        0.312        0.073       45.994       14.093        0.094      339.794       13.373      864.542
03/23/2014  20:12:00       25.181       61.585       63.837       35.630       29.869       28.641     1269.467      892.175      820.299        0.574        0.149       66.534       15.383        0.053      339.894       13.540      864.562
03/23/2014  20:13:00       -1.838       73.768       97.840       24.356       43.269       26.472      593.217     1872.221      700.793        0.909        0.158       73.791       29.511        0.160      339.901       13.552      864.564
03/23/2014  20:14:00       34.535       74.981       85.893       59.187       41.571       37.805     3503.083     1728.124     1429.227        1.043        0.333       82.552       34.075        0.170      339.876       13.508      864.574
03/23/2014  20:15:00       83.188       46.228       39.683       67.823       51.659       45.994     4599.967     2668.626     2115.431        1.001        0.469       95.170       43.979        0.214      339.921       13.587      864.595
03/23/2014  20:16:00      101.904       73.708       35.561       67.218       41.320       32.915     4518.316     1707.342     1083.391        1.219        0.365      125.767       29.880        0.056      339.917       13.578      864.609
03/23/2014  20:17:00      110.767       50.715       19.659       52.889       40.396       34.611     2797.205     1631.854     1197.893        1.043        0.281      121.825       20.638        0.029      339.851       13.468      864.631
03/23/2014  20:18:00       67.787       50.370       -2.025       43.773       40.653       30.884     1916.102     1652.692      953.794        0.583        0.226       84.452       18.847        0.050      339.851       13.469      864.644
03/23/2014  20:19:00      107.125       48.804       35.654       37.732       34.475       29.181     1423.731     1188.520      851.558        0.930        0.173      117.718       22.190        0.036      339.872       13.502      864.654
03/23/2014  20:20:00      167.030       78.208       27.374       77.373       51.741       40.481     5986.648     2677.122     1638.728        2.253        0.515      184.433       34.136        0.034      339.934       13.604      864.659
03/23/2014  20:21:00       91.615       67.881       -4.354       56.406       52.015       38.113     3181.616     2705.593     1452.563        1.018        0.367      114.022       31.065        0.074      339.902       13.556      864.668
03/23/2014  20:22:00       52.765       60.628        1.961       60.758       38.430       37.171     3691.486     1476.866     1381.677        0.651        0.328       80.373       21.493        0.072      339.887       13.527      864.673
03/23/2014  20:23:00       14.050       32.807       -9.319       25.467       23.490       10.655      648.545      551.796      113.536        0.134        0.066       35.688       10.839        0.092      339.884       13.522      864.680
03/23/2014  20:24:00      -55.031       24.542      -15.567       37.847       25.433       17.569     1432.430      646.842      308.678        0.313        0.119       60.255       20.285        0.113      339.942       13.619      864.695
03/23/2014  20:25:00      -92.296       25.769       -9.314       24.693       30.562       17.125      609.751      934.021      293.270        0.555        0.092       95.826       11.430        0.014      340.012       13.741      864.697
03/23/2014  20:26:00     -121.074        9.323      -13.312       51.826       28.697       18.573     2685.950      823.509      344.946        0.939        0.193      121.432       19.438        0.026      340.140       13.955      864.708
03/23/2014  20:27:00     -144.861       12.731      -13.818       28.005       29.597       20.462      784.253      875.986      418.698        1.171        0.104      145.419       18.071        0.015      339.943       13.623      864.717
03/23/2014  20:28:00     -141.782      -37.901      -12.482       36.118       31.716       26.796     1304.492     1005.911      718.008        1.236        0.151      146.761       22.832        0.024      339.893       13.539      864.717
03/23/2014  20:29:00      -70.668      -33.722       11.416       72.602       49.232       41.597     5271.066     2423.771     1730.335        0.784        0.471       78.302       40.905        0.273      339.876       13.509      864.730
03/23/2014  20:30:00     -110.112      -43.871       -4.157       54.355       31.683       29.131     2954.520     1003.823      848.634        0.944        0.240      118.530       25.378        0.046      339.810       13.398      864.737
03/23/2014  20:31:00     -156.399        2.520      -19.279       40.813       44.073       25.023     1665.717     1942.415      626.158        1.454        0.212      156.419       19.727        0.016      339.970       13.668      864.759
03/23/2014  20:32:00     -113.386      -37.676      -11.111       44.849       46.590       27.022     2011.417     2170.620      730.194        0.965        0.246      119.481       22.447        0.035      339.796       13.375      864.772
03/23/2014  20:33:00     -128.837      -35.396      -18.090       48.011       57.889       25.027     2305.025     3351.137      626.365        1.223        0.314      133.611       17.692        0.018      339.727       13.259      864.775
03/23/2014  20:34:00     -121.376      -34.126      -10.928       34.089       38.006       17.613     1162.054     1444.469      310.209        0.947        0.146      126.082       12.718        0.010      339.654       13.136      864.794
03/23/2014  20:35:00     -105.976       21.743      -14.426       47.019       39.892       18.249     2210.757     1591.340      333.026        0.802        0.207      108.183       16.205        0.022      339.809       13.396      864.804
03/23/2014  20:36:00      -65.513       46.973       -5.948       34.581       31.164       20.863     1195.820      971.192      435.245        0.457        0.130       80.613       20.280        0.063      339.675       13.171      864.808
03/23/2014  20:37:00      -93.382       40.476       -8.324       29.148       39.311       23.201      849.611     1545.357      538.307        0.668        0.147      101.777       20.606        0.041      339.849       13.464      864.812
03/23/2014  20:38:00      -66.281       25.739       -5.391       20.241       29.866       16.941      409.708      891.990      286.984        0.334        0.079       71.103       12.500        0.031      339.810       13.399      864.817
03/23/2014  20:39:00      -63.469        8.856       -5.923       36.456       26.198       19.761     1329.013      686.340      390.497        0.327        0.120       64.084       18.075        0.080      339.834       13.438      864.825
03/23/2014  20:40:00      -73.037       24.835      -11.047       40.063       33.772       20.437     1605.005     1140.525      417.653        0.462        0.158       77.144       22.820        0.088      339.828       13.429      864.849
03/23/2014  20:41:00      -80.465       59.111       -8.671       33.788       35.399       26.394     1141.642     1253.096      696.649        0.657        0.155       99.843       21.115        0.045      339.797       13.376      864.860
03/23/2014  20:42:00      -88.752      -14.426       -3.062       34.423       30.575       17.704     1184.912      934.804      313.435        0.526        0.122       89.917       15.567        0.030      339.881       13.518      864.875
03/23/2014  20:43:00     -110.326      -23.644      -13.607       31.198       40.159       20.756      973.313     1612.710      430.803        0.797        0.151      112.831       13.063        0.013      339.827       13.428      864.893
03/23/2014  20:44:00     -110.924      -49.628      -11.882       33.849       31.787       18.498     1145.786     1010.424      342.167        0.870        0.125      121.520       13.433        0.012      339.636       13.104      864.893
03/23/2014  20:45:00      -71.959      -37.835      -15.716       36.881       28.461       24.441     1360.229      810.043      597.365        0.481        0.138       81.299       13.070        0.026      339.507       12.886      864.900
03/23/2014  20:46:00      -89.846      -10.810       -9.379       27.608       35.715       20.570      762.224     1275.593      423.139        0.537        0.123       90.494        8.584        0.009      339.656       13.140      864.925
03/23/2014  20:47:00      -94.908      -17.593      -13.860       32.860       47.811       24.325     1079.788     2285.912      591.698        0.673        0.198       96.525       18.958        0.039      339.597       13.039      864.942
03/23/2014  20:48:00     -118.105      -56.789      -14.989       20.726       29.511       14.089      429.565      870.916      198.490        0.945        0.075      131.049       10.841        0.007      339.393       12.694      864.950
03/23/2014  20:49:00      -76.214      -43.484        0.435       39.252       37.946       20.738     1540.748     1439.926      430.079        0.555        0.171       87.746       17.813        0.041      339.396       12.700      864.968
03/23/2014  20:50:00      -21.252      -19.496       10.089       52.993       30.499       23.895     2808.253      930.207      570.981        0.262        0.215       28.840       27.477        0.908      339.239       12.436      864.984
03/23/2014  20:51:00      -72.332      -37.735       -0.905       51.030       39.112       19.087     2604.058     1529.778      364.320        0.558        0.225       81.583       17.745        0.047      339.311       12.558      864.991
03/23/2014  20:52:00      -77.218      -29.312        1.381       42.959       42.134       19.617     1845.507     1775.291      384.834        0.541        0.200       82.594       16.114        0.038      339.245       12.445      865.000
03/23/2014  20:53:00     -101.610      -23.861      -14.476       27.603       22.308       16.948      761.944      497.661      287.251        0.632        0.077      104.374       14.672        0.020      339.306       12.549      865.011
03/23/2014  20:54:00     -108.751       12.462      -17.756       21.733       21.657       16.437      472.332      469.004      270.165        0.675        0.061      109.463       12.587        0.013      339.379       12.673      865.018
03/23/2014  20:55:00      -79.428       -2.928       -9.798       22.984       27.239       17.610      528.268      741.946      310.116        0.400        0.079       79.482       12.400        0.024      339.426       12.750      865.019
03/23/2014  20:56:00     -103.189       23.536      -10.509       34.037       30.561       20.800     1158.540      933.971      432.647        0.692        0.126      105.839       13.846        0.017      339.578       13.006      865.019
03/23/2014  20:57:00     -116.833       56.320      -18.371       27.988       33.395       24.627      783.304     1115.210      606.482        0.983        0.125      129.699       18.149        0.020      339.526       12.919      865.026
03/23/2014  20:58:00     -105.301       40.178      -15.389       27.024       25.812       17.353      730.279      666.260      301.142        0.732        0.085      112.705       13.400        0.014      339.544       12.950      865.026
03/23/2014  20:59:00     -106.590       34.411       -7.015       43.024       41.901       22.083     1851.071     1755.670      487.640        0.834        0.205      112.007       19.606        0.031      339.546       12.952      865.027
03/23/2014  21:00:00     -101.356      -18.014      -12.105       42.197       29.196       18.868     1780.625      852.402      355.984        0.687        0.149      102.945       14.566        0.020      339.211       12.389      865.035
03/23/2014  21:01:00      -87.874      -10.595       -6.388       40.480       31.310       17.710     1638.620      980.337      313.643        0.540        0.147       88.511       18.804        0.045      339.278       12.503      865.039
03/23/2014  21:02:00     -102.853      -27.466       -3.455       37.705       29.382       16.936     1421.663      863.299      286.814        0.696        0.129      106.457       10.526        0.010      339.113       12.223      865.041
03/23/2014  21:03:00     -115.930       -8.755       -6.878       42.724       29.085       23.056     1825.337      845.950      531.591        0.838        0.160      116.260       17.574        0.023      339.121       12.237      865.051
03/23/2014  21:04:00     -130.146       -3.234      -15.190       49.703       24.726       21.018     2470.391      611.392      441.777        1.035        0.176      130.186       21.689        0.028      339.157       12.298      865.060
03/23/2014  21:05:00     -139.420       -5.564      -14.987       31.766       27.753       20.977     1009.097      770.235      440.024        1.096        0.111      139.531       18.529        0.018      339.046       12.111      865.074
03/23/2014  21:06:00     -138.782       -6.045      -16.908       41.192       27.393       27.072     1696.777      750.367      732.882        1.138        0.159      138.914       21.553        0.024      339.080       12.169      865.064
03/23/2014  21:07:00     -141.955        2.196      -18.579       44.253       29.497       22.040     1958.348      870.052      485.768        1.191        0.166      141.972       20.309        0.020      338.975       11.991      865.072
03/23/2014  21:08:00     -135.123       -9.712      -12.174       38.101       30.014       27.491     1451.685      900.822      755.779        1.080        0.155      135.472       22.766        0.028      338.893       11.854      865.072
03/23/2014  21:09:00     -166.300      -28.775      -15.767       56.687       43.404       26.466     3213.361     1883.928      700.439        1.726        0.290      168.771       27.055        0.026      338.751       11.614      865.070
03/23/2014  21:10:00     -198.637      -65.507       -3.226       41.285       37.811       27.923     1704.473     1429.703      779.711        2.384        0.196      209.159       26.571        0.016      338.626       11.402      865.072
03/23/2014  21:11:00     -196.705      -49.986      -11.246       51.654       38.092       23.603     2668.148     1451.029      557.086        2.300        0.234      202.957       20.247        0.010      338.713       11.550      865.082
03/23/2014  21:12:00     -182.794       -0.997      -12.997       62.798       55.792       25.222     3943.581     3112.776      636.148        2.064        0.385      182.797       27.088        0.022      338.994       12.020      865.081
03/23/2014  21:13:00     -169.624       57.817      -21.704       46.534       52.535       25.730     2165.429     2759.896      662.039        1.909        0.279      179.207       23.896        0.018      339.076       12.161      865.085
03/23/2014  21:14:00     -113.366       27.535      -11.946       50.532       39.586       23.841     2553.473     1567.078      568.406        0.922        0.234      116.662       22.267        0.036      338.968       11.980      865.091
03/23/2014  21:15:00     -100.097       41.382      -20.570       58.129       45.815       27.141     3378.947     2098.992      736.616        0.918        0.311      108.314       31.225        0.083      338.835       11.755      865.087
03/23/2014  21:16:00     -127.828       92.713      -29.924       48.465       66.619       31.903     2348.837     4438.130     1017.818        1.682        0.390      157.911       32.795        0.043      338.759       11.627      865.089
03/23/2014  21:17:00     -165.333      122.762      -39.164       40.765       40.941       25.749     1661.775     1676.157      662.989        2.397        0.200      205.926       21.888        0.011      338.837       11.758      865.100
03/23/2014  21:18:00     -104.613       29.698       -6.821       54.914       50.445       31.722     3015.602     2544.697     1006.282        0.922        0.328      108.747       30.949        0.081      338.936       11.926      865.088
03/23/2014  21:19:00      -91.897       -4.046        0.571       55.235       52.158       26.962     3050.928     2720.480      726.926        0.748        0.325       91.986       27.077        0.087      338.870       11.815      865.100
03/23/2014  21:20:00      -81.713      -14.612      -19.551       34.163       34.529       18.185     1167.116     1192.226      330.700        0.498        0.135       83.010       14.489        0.030      338.819       11.729      865.093
03/23/2014  21:21:00      -91.829       -8.966       -6.720       29.623       41.298       23.118      877.501     1705.537      534.444        0.584        0.156       92.266       11.177        0.015      338.802       11.702      865.094
03/23/2014  21:22:00     -110.658       28.704       -9.224       35.894       41.251       24.408     1288.353     1701.613      595.764        0.837        0.179      114.321       20.379        0.032      338.822       11.735      865.109
03/23/2014  21:23:00      -88.755       -4.550      -11.264       32.839       62.850       25.311     1078.432     3950.082      640.623        0.685        0.283       88.872       22.406        0.064      338.808       11.712      865.121
03/23/2014  21:24:00      -87.119        5.592       -8.447       26.867       36.290       21.857      721.821     1316.958      477.724        0.510        0.126       87.298       10.699        0.015      338.899       11.865      865.142
03/23/2014  21:25:00     -116.849       -2.609      -18.377       34.723       28.362       22.771     1205.692      804.397      518.503        0.826        0.126      116.879       19.954        0.029      338.953       11.955      865.149
03/23/2014  21:26:00     -111.072       29.280       -1.185       36.204       27.800       21.461     1310.753      772.831      460.596        0.787        0.127      114.867       20.245        0.031      339.090       12.186      865.162
03/23/2014  21:27:00     -124.362       20.625      -10.421       35.790       36.863       24.700     1280.937     1358.911      610.089        0.962        0.162      126.061       20.414        0.026      339.018       12.065      865.175
03/23/2014  21:28:00      -93.228       31.317       -9.101       35.255       28.734       22.748     1242.889      825.667      517.466        0.617        0.129       98.347       18.218        0.034      339.184       12.344      865.177
03/23/2014  21:29:00     -100.508       20.918      -14.663       33.279       33.661       20.365     1107.522     1133.031      414.721        0.670        0.133      102.661       15.222        0.022      339.015       12.059      865.174
03/23/2014  21:30:00     -103.989       11.092      -16.566       31.462       37.607       19.973      989.841     1414.316      398.911        0.701        0.140      104.579       15.330        0.021      338.786       11.674      865.184
03/23/2014  21:31:00     -106.297        1.814      -15.311       32.792       26.962       14.986     1075.296      726.955      224.590        0.678        0.101      106.312       10.520        0.010      338.950       11.951      865.177
03/23/2014  21:32:00     -114.856      -31.499      -10.892       35.142       32.359       22.756     1234.929     1047.117      517.857        0.855        0.140      119.097       19.402        0.027      338.699       11.528      865.179
03/23/2014  21:33:00     -143.502      -56.359      -18.195       32.489       28.111       20.676     1055.556      790.214      427.514        1.319        0.114      154.172       12.582        0.007      338.459       11.125      865.190
03/23/2014  21:34:00     -135.794      -54.173      -16.876       50.303       27.475       25.082     2530.351      754.892      629.111        1.279        0.196      146.201       22.841        0.024      338.259       10.788      865.188
03/23/2014  21:35:00      -63.970      -70.379        3.766       59.068       30.484       27.414     3488.972      929.262      751.529        0.711        0.258       95.108       28.296        0.089      338.384       10.999      865.195
03/23/2014  21:36:00     -103.982      -68.251        6.490       53.156       38.076       26.067     2825.574     1449.760      679.475        1.023        0.248      124.380       25.706        0.043      338.378       10.989      865.210
03/23/2014  21:37:00     -115.150      -78.070        6.804       74.514       46.530       35.733     5552.317     2165.012     1276.820        1.420        0.450      139.120       41.056        0.087      338.417       11.053      865.209
03/23/2014  21:38:00     -112.215      -95.000        7.140       67.799       43.556       31.066     4596.651     1897.108      965.085        1.456        0.373      147.028       29.365        0.040      338.444       11.099      865.215
03/23/2014  21:39:00     -108.139      -87.392        4.021       65.701       34.458       30.163     4316.682     1187.361      909.785        1.288        0.321      139.037       35.152        0.064      338.487       11.172      865.229
03/23/2014  21:40:00     -109.732      -80.836        7.253       51.823       43.243       26.410     2685.592     1869.964      697.465        1.194        0.263      136.292       25.192        0.034      338.450       11.110      865.233
03/23/2014  21:41:00     -110.237      -89.420       -1.626       52.100       42.582       25.577     2714.454     1813.192      654.205        1.267        0.259      141.944       25.091        0.031      338.509       11.210      865.238
03/23/2014  21:42:00      -41.744      -40.996        8.923       51.863       39.179       30.824     2689.758     1535.005      950.107        0.434        0.259       58.508       32.432        0.307      338.434       11.083      865.262
03/23/2014  21:43:00      -45.725      -46.845        9.267       52.304       31.804       31.182     2735.677     1011.506      972.330        0.454        0.236       65.462       31.385        0.230      338.416       11.053      865.281
03/23/2014  21:44:00      -71.324      -73.116        4.791       48.625       31.762       24.750     2364.428     1008.793      612.565        0.722        0.199      102.142       26.492        0.067      338.392       11.013      865.297
03/23/2014  21:45:00      -74.043      -63.161        3.347       63.653       41.269       32.122     4051.667     1703.114     1031.834        0.813        0.339       97.323       35.148        0.130      338.385       11.001      865.323
03/23/2014  21:46:00      -56.860      -64.297        5.256       39.258       37.693       25.716     1541.229     1420.767      661.290        0.551        0.181       85.833       22.828        0.071      338.457       11.122      865.336
03/23/2014  21:47:00     -107.160      -95.065       -2.973       51.294       45.657       27.166     2631.035     2084.557      737.979        1.299        0.273      143.250       29.539        0.043      338.429       11.074      865.337
03/23/2014  21:48:00      -81.876      -65.090       -1.439       42.267       33.007       24.084     1786.529     1089.431      580.049        0.720        0.173      104.596       24.321        0.054      338.477       11.154      865.348
03/23/2014  21:49:00     -106.491      -48.929       -5.771       34.790       22.547       19.623     1210.371      508.371      385.056        0.794        0.105      117.194       18.120        0.024      338.412       11.046      865.347
03/23/2014  21:50:00      -75.158      -59.658        2.838       39.052       35.961       26.824     1525.053     1293.190      719.548        0.638        0.177       95.958       22.962        0.057      338.580       11.328      865.338
03/23/2014  21:51:00      -64.845      -56.949        3.122       45.380       36.673       24.898     2059.303     1344.926      619.929        0.574        0.201       86.302       27.261        0.100      338.586       11.338      865.342
03/23/2014  21:52:00     -103.221      -82.258       -4.726       46.235       44.608       27.416     2137.655     1989.882      751.628        1.116        0.244      131.989       23.805        0.033      338.575       11.321      865.348
03/23/2014  21:53:00     -121.221      -85.141       -7.110       52.941       39.587       26.232     2802.783     1567.161      688.121        1.353        0.253      148.134       21.118        0.020      338.590       11.346      865.344
03/23/2014  21:54:00      -76.128      -73.335        1.674       54.424       45.407       27.085     2961.985     2061.819      733.618        0.847        0.288      105.705       32.115        0.092      338.550       11.278      865.348
03/23/2014  21:55:00      -69.862      -71.236        3.307       63.665       57.587       31.898     4053.293     3316.319     1017.473        0.918        0.419       99.776       35.322        0.125      338.471       11.146      865.373
03/23/2014  21:56:00     -104.555     -108.570       -6.349       43.879       53.089       26.325     1925.388     2818.448      692.988        1.410        0.272      150.729        9.788        0.004      338.571       11.312      865.379
03/23/2014  21:57:00      -67.874      -64.400        8.164       63.546       41.847       28.270     4038.101     1751.188      799.187        0.770        0.329       93.564       29.952        0.102      338.611       11.380      865.380
03/23/2014  21:58:00     -130.042     -110.288       -7.007       44.931       38.826       29.706     2018.756     1507.490      882.453        1.677        0.220      170.512       23.408        0.019      338.606       11.372      865.397
03/23/2014  21:59:00     -109.557     -107.863       -7.135       30.893       42.432       23.654      954.383     1800.493      559.524        1.350        0.166      153.743       17.801        0.013      338.572       11.315      865.413
03/23/2014  22:00:00     -116.108     -104.796       -9.992       37.872       30.903       24.222     1434.293      954.986      586.694        1.377        0.149      156.407       20.491        0.017      338.652       11.448      865.421
03/23/2014  22:01:00      -87.368      -84.447        2.894       49.450       45.877       26.518     2445.298     2104.662      703.199        1.001        0.263      121.509       26.896        0.049      338.733       11.587      865.426
03/23/2014  22:02:00      -92.626      -81.047       -5.444       31.673       30.158       18.650     1003.149      909.533      347.813        0.872        0.113      123.078       15.435        0.016      338.737       11.592      865.434
03/23/2014  22:03:00      -87.306      -50.083        0.675       32.346       29.991       19.160     1046.291      899.487      367.120        0.622        0.116      100.651       10.970        0.012      338.654       11.453      865.437
03/23/2014  22:04:00      -76.643      -45.183       -0.420       51.402       31.906       22.259     2642.205     1017.985      495.465        0.604        0.208       88.970       23.766        0.071      338.622       11.399      865.433
03/23/2014  22:05:00      -77.589      -72.020       -8.570       38.281       28.371       14.348     1465.449      804.904      205.863        0.688        0.124      105.863       10.956        0.011      338.593       11.350      865.441
03/23/2014  22:06:00      -82.113      -98.742        0.042       34.400       49.449       22.421     1183.336     2445.215      502.723        1.031        0.207      128.423       21.853        0.029      338.519       11.226      865.459
03/23/2014  22:07:00      -63.859      -96.590        2.270       40.149       41.600       25.981     1611.935     1730.598      674.998        0.871        0.201      115.791       24.630        0.045      338.496       11.187      865.473
03/23/2014  22:08:00      -50.823      -62.224       10.980       52.770       50.474       28.860     2784.685     2547.617      832.920        0.637        0.308       80.342       29.439        0.134      338.441       11.094      865.477
03/23/2014  22:09:00      -87.007     -109.062      -13.518       41.555       43.874       24.513     1726.833     1924.899      600.892        1.195        0.213      139.516       17.340        0.015      338.395       11.017      865.480
03/23/2014  22:10:00     -106.425     -107.696      -11.466       65.166       54.913       30.814     4246.638     3015.454      949.519        1.563        0.411      151.409       32.155        0.045      338.293       10.845      865.488
03/23/2014  22:11:00     -104.466     -112.141      -12.792       36.091       49.932       22.463     1302.558     2493.190      504.568        1.398        0.215      153.261       14.948        0.010      338.213       10.710      865.489
03/23/2014  22:12:00      -88.677      -64.863       -1.146       43.734       42.239       21.449     1912.640     1784.124      460.039        0.811        0.208      109.867       19.404        0.031      338.175       10.648      865.475
03/23/2014  22:13:00      -73.839      -46.305        9.153       59.592       40.835       27.318     3551.201     1667.515      746.246        0.682        0.298       87.157       35.133        0.162      338.109       10.536      865.467
03/23/2014  22:14:00      -92.733      -51.432        4.095       35.073       24.726       20.815     1230.089      611.370      433.266        0.677        0.114      106.041       18.734        0.031      338.063       10.460      865.469
03/23/2014  22:15:00     -113.444      -78.822       -5.586       52.585       38.045       23.349     2765.194     1447.460      545.176        1.193        0.238      138.139       17.376        0.016      338.055       10.446      865.467
03/23/2014  22:16:00     -110.784      -47.177       -0.251       48.962       29.931       24.592     2397.315      895.860      604.788        0.920        0.195      120.411       20.951        0.030      338.036       10.413      865.466
03/23/2014  22:17:00      -78.632      -43.377        4.026       53.974       36.425       23.126     2913.234     1326.796      534.797        0.643        0.239       89.803       24.905        0.077      338.028       10.402      865.450
03/23/2014  22:18:00      -79.863      -64.243       -5.162       42.914       29.683       25.708     1841.593      881.105      660.921        0.696        0.169      102.495       24.307        0.056      337.940       10.254      865.447
03/23/2014  22:19:00      -69.762      -24.702       -2.171       35.916       32.248       23.532     1289.964     1039.947      553.745        0.418        0.144       74.006       19.244        0.068      337.843       10.091      865.455
03/23/2014  22:20:00      -94.472       -5.244       -4.951       54.384       32.561       27.712     2957.581     1060.208      767.970        0.688        0.239       94.617       28.041        0.088      337.769        9.967      865.460
03/23/2014  22:21:00      -98.234       -6.446       -3.976       41.862       35.265       23.901     1752.433     1243.598      571.260        0.664        0.178       98.445       23.811        0.059      337.840       10.085      865.462
03/23/2014  22:22:00     -109.198       -1.310      -10.676       47.195       27.274       21.559     2227.339      743.878      464.798        0.774        0.172      109.206       24.202        0.049      337.736        9.911      865.462
03/23/2014  22:23:00     -114.424       -1.838       -9.308       43.732       33.344       22.717     1912.479     1111.799      516.048        0.836        0.177      114.439       23.694        0.043      337.726        9.896      865.469
03/23/2014  22:24:00      -89.839       -2.982       -2.643       39.725       32.456       25.767     1578.044     1053.381      663.942        0.569        0.165       89.888       24.205        0.073      337.800       10.019      865.483
03/23/2014  22:25:00      -88.043      -28.582       -7.033       34.444       32.553       20.116     1186.371     1059.696      404.654        0.563        0.133       92.566       17.055        0.034      337.611        9.703      865.487
03/23/2014  22:26:00     -119.859       -5.788       -8.114       26.697       28.951       20.693      712.756      838.178      428.216        0.822        0.099      119.999       18.099        0.023      337.535        9.575      865.498
03/23/2014  22:27:00     -104.110      -48.455      -10.193       35.758       27.501       18.693     1278.604      756.280      349.442        0.784        0.119      114.833       14.084        0.015      337.565        9.626      865.533
03/23/2014  22:28:00      -96.192      -46.654       -5.732       25.809       22.193       14.547      666.124      492.517      211.604        0.642        0.069      106.909       10.540        0.010      337.530        9.567      865.548
03/23/2014  22:29:00      -66.046      -44.006       -0.875       25.307       20.924       17.455      640.433      437.821      304.675        0.384        0.069       79.363        7.343        0.009      337.511        9.535      865.564
03/23/2014  22:30:00     -113.930      -17.859      -14.549       27.995       28.816       19.283      783.693      830.390      371.839        0.775        0.099      115.321       20.122        0.030      337.523        9.553      865.581
03/23/2014  22:31:00      -94.243      -34.025        0.954       39.455       45.373       26.610     1556.679     2058.675      708.114        0.718        0.216      100.197       19.082        0.036      337.287        9.160      865.600
03/23/2014  22:32:00      -76.510        5.666       -5.838       34.900       32.181       20.942     1217.992     1035.632      438.572        0.431        0.135       76.719       20.090        0.069      337.370        9.299      865.612
03/23/2014  22:33:00     -109.450        1.326      -17.359       23.208       31.484       19.124      538.594      991.239      365.731        0.709        0.095      109.458       17.695        0.026      337.303        9.187      865.618
03/23/2014  22:34:00      -94.039      -12.662      -10.751       26.761       28.792       17.412      716.136      828.985      303.182        0.548        0.092       94.887       11.129        0.014      337.404        9.354      865.627
03/23/2014  22:35:00     -100.825      -13.440      -13.198       26.308       30.071       19.486      692.125      904.236      379.711        0.625        0.099      101.717       18.552        0.033      337.430        9.398      865.638
03/23/2014  22:36:00      -85.851      -18.825       -4.701       43.127       24.449       19.883     1859.921      597.738      395.339        0.530        0.143       87.891       21.135        0.058      337.388        9.329      865.648
03/23/2014  22:37:00      -89.022      -28.283       -3.155       27.948       27.211       17.799      781.118      740.418      316.814        0.529        0.092       93.407       17.543        0.035      337.357        9.276      865.655
03/23/2014  22:38:00      -98.182      -18.238       -3.841       41.771       27.616       24.582     1744.827      762.639      604.260        0.655        0.156       99.862       21.059        0.044      337.348        9.261      865.676
03/23/2014  22:39:00     -112.556      -31.103       -5.831       31.856       32.202       20.393     1014.819     1036.952      415.870        0.807        0.123      116.774       16.688        0.020      337.419        9.380      865.691
03/23/2014  22:40:00     -116.789      -49.981       -1.695       28.658       20.005       16.432      821.258      400.212      269.997        0.882        0.075      127.034       11.679        0.008      337.308        9.196      865.697
03/23/2014  22:41:00     -117.227      -19.783       -5.450       20.131       18.945       13.665      405.259      358.926      186.723        0.756        0.048      118.884       11.680        0.010      337.204        9.020      865.712
03/23/2014  22:42:00      -78.860      -24.763       -6.570       33.642       20.867       17.967     1131.762      435.449      322.813        0.438        0.095       82.657       18.818        0.052      337.281        9.150      865.736
03/23/2014  22:43:00      -86.804      -32.538       -2.424       23.359       19.414       14.664      545.634      376.917      215.021        0.487        0.057       92.702        8.940        0.009      337.362        9.285      865.737
03/23/2014  22:44:00      -96.723      -44.628       -3.556       17.675       18.759       15.174      312.407      351.893      230.255        0.613        0.045      106.523        9.577        0.008      337.304        9.187      865.737
03/23/2014  22:45:00      -46.852      -31.082        7.340       39.563       26.576       24.073     1565.219      706.306      579.514        0.303        0.143       56.225       24.782        0.194      337.373        9.302      865.734
03/23/2014  22:46:00      -36.564      -19.964        7.776       37.896       22.368       20.131     1436.123      500.310      405.259        0.207        0.117       41.660       21.404        0.264      337.283        9.152      865.746
03/23/2014  22:47:00      -41.264      -28.788        9.413       36.337       27.762       21.348     1320.406      770.705      455.719        0.258        0.127       50.314       23.129        0.211      337.235        9.074      865.745
03/23/2014  22:48:00      -63.273      -42.786       -0.214       48.754       20.572       17.364     2376.977      423.218      301.510        0.447        0.155       76.382       20.862        0.075      337.249        9.097      865.743
03/23/2014  22:49:00      -60.843      -33.613        7.033       39.784       27.987       19.210     1582.799      783.286      369.005        0.381        0.137       69.510       17.860        0.066      337.194        9.004      865.735
03/23/2014  22:50:00      -72.314      -37.698        5.322       50.231       27.269       22.387     2523.126      743.595      501.172        0.522        0.188       81.551       20.013        0.060      337.225        9.055      865.746
03/23/2014  22:51:00      -50.117      -40.202        8.041       40.631       31.088       23.032     1650.913      966.442      530.493        0.367        0.157       64.249       19.977        0.097      337.252        9.101      865.741
03/23/2014  22:52:00      -64.964      -61.872       -1.586       48.091       28.777       16.935     2312.746      828.124      286.797        0.574        0.171       89.714       21.282        0.056      337.366        9.291      865.744
03/23/2014  22:53:00      -58.938      -61.310        0.018       27.335       31.604       16.970      747.184      998.805      287.969        0.463        0.102       85.045       13.943        0.027      337.342        9.251      865.759
03/23/2014  22:54:00      -87.155      -46.082       -1.026       38.152       25.598       15.137     1455.583      655.238      229.115        0.603        0.117       98.587       10.418        0.011      337.276        9.141      865.761
03/23/2014  22:55:00      -81.443      -51.330        0.250       48.084       28.702       20.081     2312.107      823.803      403.257        0.640        0.177       96.269       22.901        0.057      337.292        9.167      865.767
03/23/2014  22:56:00     -122.183      -56.809      -10.503       29.833       34.594       16.700      890.006     1196.718      278.902        1.032        0.118      134.744       13.427        0.010      337.255        9.106      865.772
03/23/2014  22:57:00     -129.830      -39.338      -10.077       25.343       39.618       19.767      642.257     1569.569      390.732        1.055        0.130      135.659       15.662        0.013      337.220        9.047      865.779
03/23/2014  22:58:00      -91.855      -33.320       -3.285       48.168       45.098       17.309     2320.149     2033.798      299.585        0.711        0.233       97.712       18.515        0.036      337.158        8.944      865.789
03/23/2014  22:59:00     -124.102      -24.892       -7.582       34.015       19.679       16.828     1157.005      387.259      283.173        0.895        0.091      126.574       15.233        0.014      337.167        8.958      865.787
03/23/2014  23:00:00     -127.003      -26.078       -9.852       35.852       27.133       20.556     1285.382      736.217      422.567        0.968        0.122      129.653       18.193        0.020      337.092        8.831      865.777
03/23/2014  23:01:00     -100.656      -19.946        2.248       48.739       28.008       24.543     2375.538      784.459      602.339        0.715        0.188      102.613       24.540        0.057      337.009        8.692      865.777
03/23/2014  23:02:00     -117.604      -35.453       -1.439       44.765       39.877       23.656     2003.881     1590.148      559.628        0.962        0.208      122.832       19.985        0.026      337.012        8.698      865.777
03/23/2014  23:03:00     -142.593      -61.687       -0.816       45.456       28.031       18.046     2066.212      785.764      325.671        1.366        0.159      155.365       16.334        0.011      336.992        8.664      865.775
03/23/2014  23:04:00     -122.593      -59.229      -11.133       28.738       34.291       23.445      825.869     1175.869      549.691        1.061        0.128      136.151       14.756        0.012      337.046        8.754      865.769
03/23/2014  23:05:00     -135.926      -29.461      -12.586       36.139       35.204       20.659     1306.057     1239.333      426.805        1.124        0.149      139.082       13.482        0.009      337.039        8.744      865.775
03/23/2014  23:06:00     -135.104       -2.477      -11.459       50.838       34.411       31.898     2584.454     1184.131     1017.489        1.159        0.239      135.127       32.254        0.057      337.140        8.914      865.770
03/23/2014  23:07:00     -111.850       -8.668       -7.324       55.216       40.725       29.475     3048.822     1658.559      868.772        0.911        0.279      112.185       30.163        0.072      337.067        8.791      865.770
03/23/2014  23:08:00      -73.381      -21.767       -5.905       34.121       37.809       21.661     1164.227     1429.535      469.207        0.448        0.153       76.541       14.478        0.036      337.097        8.841      865.781
03/23/2014  23:09:00     -100.458       -5.298       -7.145       36.095       46.203       24.297     1302.830     2134.711      590.343        0.710        0.201      100.597       16.068        0.026      337.021        8.714      865.784
03/23/2014  23:10:00     -150.676      -19.647      -16.860       43.222       37.570       27.457     1868.131     1411.467      753.864        1.370        0.202      151.951       25.102        0.027      336.914        8.536      865.781
03/23/2014  23:11:00     -163.313      -43.237      -16.820       46.456       30.914       27.522     2158.125      955.655      757.450        1.635        0.194      168.939       21.540        0.016      336.657        8.108      865.786
03/23/2014  23:12:00     -162.835      -49.939      -16.583       37.346       35.498       28.033     1394.753     1260.134      785.828        1.636        0.172      170.321       21.686        0.016      336.514        7.868      865.787
03/23/2014  23:13:00     -120.756      -38.373       -2.082       42.147       42.305       34.160     1776.407     1789.694     1166.907        1.040        0.237      126.707       26.287        0.043      336.739        8.243      865.777
03/23/2014  23:14:00     -121.815      -46.942      -11.237       54.490       48.909       29.711     2969.203     2392.103      882.757        1.171        0.312      130.547       34.508        0.070      336.605        8.020      865.774
03/23/2014  23:15:00     -170.021       -9.012      -19.819       48.128       44.998       31.856     2316.267     2024.825     1014.783        1.737        0.268      170.260       27.972        0.027      336.727        8.222      865.787
03/23/2014  23:16:00     -134.661      -31.261      -14.880       36.633       34.659       22.632     1342.013     1201.224      512.212        1.119        0.153      138.242       16.127        0.014      336.641        8.080      865.793
03/23/2014  23:17:00     -154.063      -23.562      -19.829       35.105       35.854       20.457     1232.334     1285.527      418.476        1.381        0.147      155.855       18.697        0.014      336.491        7.830      865.791
03/23/2014  23:18:00     -135.796      -30.215       -7.847       35.356       31.021       19.907     1250.068      962.272      396.286        1.101        0.130      139.117       16.484        0.014      336.522        7.881      865.792
03/23/2014  23:19:00     -130.857      -23.995       -5.640       31.771       38.118       22.445     1009.367     1452.987      503.756        1.035        0.148      133.039       20.327        0.023      336.581        7.978      865.786
03/23/2014  23:20:00     -135.645      -11.923      -11.767       48.368       39.836       23.511     2339.462     1586.923      552.770        1.158        0.224      136.168       23.063        0.029      336.572        7.965      865.787
03/23/2014  23:21:00     -187.225      -12.142      -17.609       34.611       35.902       25.782     1197.947     1288.972      664.717        1.933        0.158      187.618       18.455        0.010      336.682        8.147      865.786
03/23/2014  23:22:00     -183.359      -11.192      -13.889       41.909       33.120       31.649     1756.359     1096.926     1001.688        1.890        0.193      183.701       28.126        0.023      336.689        8.157      865.781
03/23/2014  23:23:00     -186.341      -23.346      -14.228       45.203       28.334       24.874     2043.298      802.811      618.723        1.947        0.173      187.798       24.084        0.016      336.503        7.847      865.786
03/23/2014  23:24:00     -147.327      -24.204       -9.785       49.663       41.174       31.647     2466.374     1695.265     1001.501        1.377        0.258      149.302       29.780        0.040      336.659        8.110      865.780
03/23/2014  23:25:00     -138.381      -57.902        0.515       65.178       49.533       28.745     4248.140     2453.566      826.265        1.501        0.376      150.007       30.203        0.041      336.516        7.870      865.778
03/23/2014  23:26:00     -141.787      -67.081       -7.383       47.483       47.939       28.279     2254.595     2298.134      799.721        1.500        0.268      156.855       27.504        0.031      336.440        7.743      865.786
03/23/2014  23:27:00     -112.782       -6.951        2.035       60.186       41.768       34.736     3622.354     1744.546     1206.566        0.967        0.329      112.996       37.630        0.111      336.600        8.011      865.784
03/23/2014  23:28:00      -77.050      -26.564       -6.161       70.199       45.136       24.926     4927.931     2037.296      621.320        0.713        0.379       81.501       18.753        0.053      336.497        7.838      865.778
03/23/2014  23:29:00      -62.658       20.413        0.665       58.014       40.073       30.553     3365.647     1605.816      933.466        0.512        0.295       65.900       27.002        0.168      336.810        8.362      865.798
03/23/2014  23:30:00      -70.298       10.432       -3.917       47.986       24.885       24.491     2302.668      619.244      599.810        0.429        0.176       71.068       26.022        0.134      336.611        8.030      865.804
03/23/2014  23:31:00      -40.877       -8.581        0.942       24.495       23.982       18.517      599.999      575.127      342.892        0.163        0.076       41.768       15.804        0.143      336.574        7.967      865.807
03/23/2014  23:32:00     -101.987      -13.327       -9.732       37.044       19.415       15.554     1372.238      376.953      241.914        0.633        0.100      102.854       13.983        0.018      336.591        7.996      865.820
03/23/2014  23:33:00      -63.171      -20.164      -10.074       41.438       38.421       14.663     1717.087     1476.204      214.989        0.395        0.170       66.311       16.825        0.064      336.578        7.974      865.815
03/23/2014  23:34:00     -115.844      -15.279       -9.106       29.258       27.543       17.122      856.055      758.625      293.150        0.782        0.095      116.848       13.458        0.013      336.520        7.877      865.810
03/23/2014  23:35:00      -74.383       -6.835       -7.220       50.237       32.818       19.280     2523.792     1077.002      371.710        0.480        0.199       74.696       22.942        0.094      336.527        7.890      865.810
03/23/2014  23:36:00       -8.880      -11.146        7.942       30.130       22.746       21.841      907.845      517.398      477.020        0.108        0.095       14.251       17.331        1.479      336.561        7.945      865.800
03/23/2014  23:37:00      -49.818      -16.794      -11.216       35.563       33.832       14.846     1264.759     1144.625      220.407        0.276        0.131       52.573        7.819        0.022      336.709        8.193      865.792
03/23/2014  23:38:00      -88.249      -19.750       -5.672       36.533       20.754       15.164     1334.625      430.710      229.945        0.510        0.100       90.432       13.804        0.023      336.528        7.891      865.799
03/23/2014  23:39:00      -86.140      -14.784      -10.705       29.026       23.867       16.260      842.530      569.616      264.382        0.471        0.084       87.399       12.042        0.019      336.495        7.834      865.799
03/23/2014  23:40:00      -97.304      -22.052      -13.665       18.233       18.605       11.271      332.456      346.133      127.031        0.547        0.040       99.772        9.198        0.008      336.427        7.721      865.800
03/23/2014  23:41:00     -103.626      -24.667      -20.888       14.923       13.890       13.193      222.696      192.925      174.060        0.619        0.029      106.522        7.952        0.006      336.314        7.534      865.813
03/23/2014  23:42:00     -112.173      -16.960      -20.016       14.247       18.287       13.797      202.985      334.405      190.366        0.700        0.036      113.448        4.835        0.002      336.350        7.594      865.813
03/23/2014  23:43:00      -89.707      -21.102      -18.255       24.157       15.644       14.113      583.548      244.731      199.178        0.493        0.051       92.156       14.654        0.025      336.346        7.585      865.801
03/23/2014  23:44:00      -93.110      -27.975      -13.615       14.845       20.207       14.217      220.381      408.324      202.122        0.523        0.042       97.222        6.056        0.004      336.328        7.556      865.794
03/23/2014  23:45:00      -84.686      -40.774      -15.537       22.723       23.755       17.641      516.352      564.319      311.195        0.523        0.070       93.991       11.977        0.016      336.351        7.594      865.803
03/23/2014  23:46:00      -41.229      -39.838       -5.191       29.672       25.342       24.130      880.403      642.198      582.281        0.271        0.105       57.331       22.395        0.153      336.373        7.630      865.800
03/23/2014  23:47:00      -38.096      -21.857       -2.871       35.814       25.854       25.107     1282.640      668.431      630.348        0.226        0.129       43.921       22.849        0.271      336.396        7.670      865.799
03/23/2014  23:48:00      -99.088      -31.322      -16.463       25.214       17.903       16.005      635.742      320.514      256.173        0.614        0.061      103.921        9.621        0.009      336.333        7.564      865.809
03/23/2014  23:49:00     -116.251      -25.990      -12.778       15.179       16.749       14.549      230.402      280.524      211.680        0.754        0.036      119.121        8.956        0.006      336.343        7.580      865.813
03/23/2014  23:50:00     -121.882      -39.217      -14.968       26.198       17.525       17.271      686.350      307.134      298.280        0.895        0.065      128.036       13.390        0.011      336.374        7.632      865.811
03/23/2014  23:51:00     -135.096      -54.989       -9.759       16.509       15.018       12.814      272.538      225.544      164.211        1.102        0.033      145.858        7.941        0.003      336.357        7.604      865.799
03/23/2014  23:52:00     -140.181      -67.168      -11.784       16.114       19.381       13.756      259.669      375.636      189.221        1.256        0.041      155.442       10.053        0.004      336.272        7.462      865.803
03/23/2014  23:53:00     -125.138      -47.896        0.708       44.339       25.311       22.561     1965.973      640.670      509.009        1.053        0.156      133.991       24.032        0.032      336.228        7.388      865.811
03/23/2014  23:54:00      -95.154      -43.999        5.594       34.403       31.340       20.545     1183.569      982.181      422.082        0.680        0.129      104.834       19.138        0.033      336.300        7.508      865.818
03/23/2014  23:55:00      -67.513      -40.565        3.589       40.098       24.019       21.190     1607.847      576.891      449.027        0.442        0.132       78.762       18.497        0.055      336.368        7.622      865.817
03/23/2014  23:56:00      -26.350      -35.031       10.091       39.000       29.168       28.991     1521.008      850.774      840.469        0.262        0.161       43.835       24.632        0.316      336.389        7.658      865.823
03/23/2014  23:57:00      -99.116      -59.326        6.510       57.740       27.145       25.347     3333.879      736.824      642.461        0.905        0.236      115.514       30.692        0.071      336.334        7.566      865.836
03/23/2014  23:58:00      -85.830      -56.558        4.308       54.596       35.886       25.280     2980.732     1287.839      639.061        0.775        0.245      102.789       26.109        0.065      336.228        7.388      865.839
03/23/2014  23:59:00      -53.749      -48.505       18.768       60.959       36.904       29.157     3715.975     1361.912      850.120        0.576        0.296       72.400       34.558        0.228      336.265        7.450      865.843
